[[{"header":{"parameterUnit":"m.s-1","parameterCategory":1,"la1":31.0,"la2":29.5877,"lo1":-88.7671,"lo2":-86.6584,"dy":0.0162,"dx":0.0185,"nx":115,"ny":88,"refTime":"2024-06-14T18:00:00:Z","depth":0,"parameterNumber":2,"parameterNumberName":"U-component_of_WINDS"},"data":[0.0,0.0,0.0,0.0,0.0,0.0,0.0,0.0,0.0,0.0,0.0,0.0,0.0,0.0,0.0,0.0,0.0,0.0,0.0,0.0,0.0,0.0,0.0,0.0,0.0,0.0,0.0,0.0,0.0,0.0,0.0,0.0,0.0,0.0,0.0,0.0,0.0,0.0,0.0,0.0,0.0,0.0,0.0,0.0,0.0,0.0,0.0,0.0,0.0,0.0,0.0,0.0,0.0,0.0,0.0,0.0,0.0,0.0,0.0,0.0,0.0,0.0,0.0,0.0,0.0,0.0,0.0,0.0,0.0,0.0,0.0,0.0,0.0,0.0,0.0,0.0,0.0,0.0,0.0,0.0,0.0,0.0,0.0,0.0,0.0,0.0,0.0,0.0,0.0,0.0,0.0,0.0,0.0,0.0,0.0,0.0,0.0,0.0,0.0,0.0,0.0,0.0,0.0,0.0,0.0,0.0,0.0,0.0,0.0,0.0,0.0,0.0,0.0,0.0,0.0,0.0,0.0,0.0,0.0,0.0,0.0,0.0,0.0,0.0,0.0,0.0,0.0,0.0,0.0,0.0,0.0,0.0,0.0,0.0,0.0,0.0,0.0,0.0,0.0,0.0,0.0,0.0,0.0,0.0,0.0,0.0,0.0,0.0,0.0,0.0,0.0,0.0,0.0,0.0,0.0,0.0,0.0,0.0,0.0,0.0,0.0,0.0,0.0,0.0,0.0,0.0,0.0,0.0,0.0,0.0,0.0,0.0,0.0,0.0,0.0,0.0,0.0,0.0,0.0,0.0,0.0,0.0,0.0,0.0,0.0,0.0,0.0,0.0,0.0,0.0,0.0,0.0,0.0,0.0,0.0,0.0,0.0,0.0,0.0,0.0,0.0,0.0,0.0,0.0,0.0,0.0,0.0,0.0,0.0,0.0,0.0,0.0,0.0,0.0,0.0,0.0,0.0,0.0,0.0,0.0,0.0,0.0,0.0,0.0,0.0,0.0,0.0,0.0,0.0,0.0,0.0,0.0,0.0,0.0,0.0,0.0,0.0,0.0,0.0,0.0,0.0,0.0,0.0,0.0,0.0,0.0,0.0,0.0,0.0,0.0,0.0,0.0,0.0,0.0,0.0,0.0,0.0,0.0,0.0,0.0,0.0,0.0,0.0,0.0,0.0,0.0,0.0,0.0,0.0,0.0,0.0,0.0,0.0,0.0,0.0,0.0,0.0,0.0,0.0,0.0,0.0,0.0,0.0,0.0,0.0,0.0,0.0,0.0,0.0,0.0,0.0,0.0,0.0,0.0,0.0,0.0,0.0,0.0,0.0,0.0,0.0,0.0,0.0,0.0,0.0,0.0,0.0,0.0,0.0,0.0,0.0,0.0,0.0,0.0,0.0,0.0,0.0,0.0,0.0,0.0,0.0,0.0,0.0,0.0,0.0,0.0,0.0,0.0,0.0,0.0,0.0,0.0,0.0,0.0,0.0,0.0,0.0,0.0,0.0,0.0,0.0,0.0,0.0,0.0,0.0,0.0,0.0,0.0,0.0,0.0,0.0,0.0,0.0,0.0,0.0,0.0,0.0,0.0,0.0,0.0,0.0,0.0,0.0,0.0,0.0,0.0,0.0,0.0,0.0,0.0,0.0,0.0,0.0,0.0,0.0,0.0,0.0,0.0,0.0,0.0,0.0,0.0,0.0,0.0,0.0,0.0,0.0,0.0,0.0,0.0,0.0,0.0,0.0,0.0,0.0,0.0,0.0,0.0,0.0,0.0,0.0,0.0,0.0,0.0,0.0,0.0,0.0,0.0,0.0,0.0,0.0,0.0,0.0,0.0,0.0,0.0,0.0,0.0,0.0,0.0,0.0,0.0,0.0,0.0,0.0,0.0,0.0,0.0,0.0,0.0,0.0,0.0,0.0,0.0,0.0,0.0,0.0,0.0,0.0,0.0,0.0,0.0,0.0,0.0,0.0,0.0,0.0,0.0,0.0,0.0,0.0,0.0,0.0,0.0,0.0,0.0,0.0,0.0,0.0,0.0,0.0,0.0,0.0,0.0,0.0,0.0,0.0,0.0,0.0,0.0,0.0,0.0,0.0,0.0,0.0,0.0,0.0,0.0,0.0,0.0,0.0,0.0,0.0,0.0,0.0,0.0,0.0,0.0,0.0,0.0,0.0,0.0,0.0,0.0,0.0,0.0,0.0,0.0,0.0,0.0,0.0,0.0,0.0,0.0,0.0,0.0,0.0,0.0,0.0,0.0,0.0,0.0,0.0,0.0,0.0,0.0,0.0,0.0,0.0,0.0,0.0,0.0,0.0,0.0,0.0,0.0,0.0,0.0,0.0,0.0,0.0,0.0,0.0,0.0,0.0,0.0,0.0,0.0,0.0,0.0,0.0,0.0,0.0,0.0,0.0,0.0,0.0,0.0,0.0,0.0,0.0,0.0,0.0,0.0,0.0,0.0,0.0,0.0,0.0,0.0,0.0,0.0,0.0,0.0,0.0,0.0,0.0,0.0,0.0,0.0,0.0,0.0,0.0,0.0,0.0,0.0,0.0,0.0,0.0,0.0,0.0,0.0,0.0,0.0,0.0,0.0,0.0,0.0,0.0,0.0,0.0,0.0,0.0,0.0,0.0,0.0,0.0,0.0,0.0,0.0,0.0,0.0,0.0,0.0,0.0,0.0,0.0,0.0,0.0,0.0,0.0,0.0,0.0,0.0,0.0,0.0,0.0,0.0,0.0,0.0,0.0,0.0,0.0,0.0,0.0,0.0,0.0,0.0,0.0,0.0,0.0,0.0,0.0,0.0,0.0,0.0,0.0,0.0,0.0,0.0,0.0,0.0,0.0,0.0,0.0,0.0,0.0,0.0,0.0,0.0,0.0,0.0,0.0,0.0,0.0,0.0,0.0,0.0,0.0,0.0,0.0,0.0,0.0,0.0,0.0,0.0,0.0,0.0,0.0,0.0,0.0,0.0,0.0,0.0,0.0,0.0,0.0,0.0,0.0,0.0,0.0,0.0,0.0,0.0,0.0,0.0,0.0,0.0,0.0,0.0,0.0,0.0,0.0,0.0,0.0,0.0,0.0,0.0,0.0,0.0,0.0,0.0,0.0,0.0,0.0,0.0,0.0,0.0,0.0,0.0,0.0,0.0,0.0,0.0,0.0,0.0,0.0,0.0,0.0,0.0,0.0,0.0,0.0,0.0,0.0,0.0,0.0,0.0,0.0,0.0,0.0,0.0,0.0,0.0,0.0,0.0,0.0,0.0,0.0,0.0,0.0,0.0,0.0,0.0,0.0,0.0,0.0,0.0,0.0,0.0,0.0,0.0,0.0,0.0,0.0,0.0,0.0,0.0,0.0,0.0,0.0,0.0,0.0,0.0,0.0,0.0,0.0,0.0,0.0,0.0,0.0,0.0,0.0,0.0,0.0,0.0,0.0,0.0,0.0,0.0,0.0,0.0,0.0,0.0,0.0,0.0,0.0,0.0,0.0,0.0,0.0,0.0,0.0,0.0,0.0,0.0,0.0,0.0,0.0,0.0,0.0,0.0,0.0,0.0,0.0,0.0,0.0,0.0,0.0,0.0,0.0,0.0,0.0,0.0,0.0,0.0,0.0,0.0,0.0,0.0,0.0,0.0,0.0,0.0,0.0,0.0,0.0,0.0,0.0,0.0,0.0,0.0,0.0,0.0,0.0,0.0,0.0,0.0,0.0,0.0,0.0,0.0,0.0,0.0,0.0,0.0,0.0,0.0,0.0,0.0,0.0,0.0,0.0,0.0,0.0,0.0,0.0,0.0,0.0,0.0,0.0,0.0,0.0,0.0,0.0,0.0,0.0,0.0,0.0,0.0,0.0,0.0,0.0,0.0,0.0,0.0,0.0,0.0,0.0,0.0,0.0,0.0,0.0,0.0,0.0,0.0,0.0,0.0,0.0,0.0,0.0,0.0,0.0,0.0,0.0,0.0,0.0,0.0,0.0,0.0,0.0,0.0,0.0,0.0,0.0,0.0,0.0,0.0,0.0,0.0,0.0,0.0,0.0,0.0,0.0,0.0,0.0,0.0,0.0,0.0,0.0,0.0,0.0,0.0,0.0,0.0,0.0,0.0,0.0,0.0,0.0,0.0,0.0,0.0,0.0,0.0,0.0,0.0,0.0,0.0,0.0,0.0,0.0,0.0,0.0,0.0,0.0,0.0,0.0,0.0,0.0,0.0,0.0,0.0,0.0,0.0,0.0,0.0,0.0,0.0,0.0,0.0,0.0,0.0,0.0,0.0,-0.1804,0.0,0.0,0.0,0.0,0.0,0.0,0.0,0.0,0.0,0.0,0.0,0.0,0.0,0.0,0.0,0.0,0.0,0.0,0.0,0.0,0.0,0.0,0.0,0.0,0.0,0.0,0.0,0.0,0.0,0.0,0.0,0.0,0.0,0.0,0.0,0.0,0.0,0.0,0.0,0.0,0.0,0.0,0.0,0.0,0.0,0.0,0.0,0.0,0.0,0.0,0.0,0.0,0.0,0.0,0.0,0.0,0.0,0.0,0.0,0.0,0.0,0.0,0.0,0.0,0.0,0.0,0.0,0.0,0.0,0.0,0.0,0.0,0.0,0.0,0.0,0.0,0.0,0.0,0.0,0.0,0.0,0.0,0.0,0.0,0.0,0.0,0.0,0.0,0.0,0.0,0.0,0.0,0.0,0.0,0.0,0.0,0.0,0.0,0.0,0.0,0.0,0.0,0.0,0.0,0.0,0.0,0.0,0.0,0.0,0.0,-0.1478,-0.1798,-0.1798,-0.1798,-0.1792,0.0,0.0,0.0,0.0,0.0,0.0,0.0,0.0,0.0,0.0,0.0,0.0,0.0,0.0,0.0,0.0,0.0,0.0,0.0,0.0,0.0,0.0,0.0,0.0,0.0,0.0,0.0,0.0,0.0,0.0,0.0,0.0,0.0,0.0,0.0,0.0,0.0,0.0,0.0,0.0,0.0,0.0,0.0,0.0,0.0,0.0,0.0,0.0,0.0,0.0,0.0,0.0,0.0,0.0,0.0,0.0,0.0,0.0,0.0,0.0,0.0,0.0,0.0,0.0,0.0,0.0,0.0,0.0,0.0,0.0,0.0,0.0,0.0,0.0,0.0,0.0,0.0,0.0,0.0,0.0,0.0,0.0,0.0,0.0,0.0,0.0,0.0,0.0,0.0,0.0,0.0,0.0,0.0,0.0,0.0,0.0,0.0,0.0,0.0,0.0,0.0,0.0,0.0,0.0,0.0,0.0,0.0,0.0,0.0,0.0,0.0,0.0,-0.1102,-0.1218,-0.1449,0.0,0.0,0.0,0.0,0.0,0.0,0.0,0.0,0.0,0.0,0.0,0.0,0.0,0.0,0.0,0.0,0.0,0.0,0.0,0.0,0.0,0.0,0.0,0.0,0.0,0.0,0.0,0.0,0.0,0.0,0.0,0.0,0.0,0.0,0.0,0.0,0.0,0.0,0.0,0.0,0.0,0.0,0.0,0.0,0.0,0.0,0.0,0.0,0.0,0.0,0.0,0.0,0.0,0.0,0.0,0.0,0.0,0.0,0.0,0.0,0.0,0.0,0.0,0.0,0.0,0.0,0.0,0.0,0.0,0.0,0.0,0.0,0.0,0.0,0.0,0.0,0.0,0.0,0.0,0.0,0.0,0.0,0.0,0.0,0.0,0.0,0.0,0.0,0.0,0.0,0.0,0.0,0.0,0.0,0.0,0.0,0.0,0.0,0.0,0.0,0.0,0.0,0.0,0.0,0.0,0.0,0.0,0.0,0.0,0.0,0.0278,0.0993,0.102,0.0,-0.037,0.0,0.0,0.0,0.0,0.0,0.0,0.0,0.0,0.0,0.0,0.0,0.0,0.0,0.0,0.0,0.0,0.0,0.0,0.0,0.0,0.0,0.0,0.0,0.0,0.0,0.0,0.0,0.0,0.0,0.0,0.0,0.0,0.0,0.0,0.0,0.0,0.0,0.0,0.0,0.0,0.0,0.0,0.0,0.0,0.0,0.0,0.0,0.0,0.0,0.0,0.0,0.0,0.0,0.0,0.0,0.0,0.0,0.0,0.0,0.0,0.0,0.0,0.0,0.0,0.0,0.0,0.0,0.0,0.0,0.0,0.0,0.0,0.0,0.0,0.0,0.0,0.0,0.0,0.0,0.0,0.0,0.0,0.0,0.0,0.0,0.0,0.0,0.0,0.0,0.0,0.0,0.0,0.0,0.0,0.0,0.0,0.0,0.0,0.0,0.0,0.0,0.0,0.0,0.0,0.0,0.0,0.0,0.0,0.0,0.0,0.0,0.1234,0.1823,0.1587,0.0,0.0,0.0,0.0,0.0,0.0,0.0,0.0,0.0,0.0,0.0,0.0,0.0,0.0,0.0,0.0,0.0,0.0,0.0,0.0,0.0,0.0,0.0,0.0,0.0,0.0,0.0,0.0,0.0,0.0,0.0,0.0,0.0,0.0,0.0,0.0,0.0,0.0,0.0,0.0,0.0,0.0,0.0,0.0,0.0,0.0,0.0,0.0,0.0,0.0,0.0,0.0,0.0,0.0,0.0,0.0,0.0,0.0,0.0,0.0,0.0,0.0,0.0,0.0,0.0,0.0,0.0,0.0,0.0,0.0,0.0,0.0,0.0,0.0,0.0,0.0,0.0,0.0,0.0,0.0,0.0,0.0,0.0,0.0,0.0,0.0,0.0,0.0,0.0,0.0,0.0,0.0,0.0,0.0,0.0,0.0,0.0,0.0,0.0,0.0,0.0,0.0,0.0,0.0,0.0,0.0,0.0,0.0,0.0,0.0,0.181,0.0,0.1779,0.2274,0.2049,0.1017,0.0,0.0,0.0,0.0,0.0,0.0,0.0,0.0,0.0,0.0,0.0,0.0,0.0,0.0,0.0,0.0,0.0,0.0,0.0,0.0,0.0,0.0,0.0,0.0,0.0,0.0,0.0,0.0,0.0,0.0,0.0,0.0,0.0,0.0,0.0,0.0,0.0,0.0,0.0,0.0,0.0,0.0,0.0,0.0,0.0,0.0,0.0,0.0,0.0,0.0,0.0,0.0,0.0,0.0,0.0,0.0,0.0,0.0,0.0,0.0,0.0,0.0,0.0,0.0,0.0,0.0,0.0,0.0,0.0,0.0,0.0,0.0,0.0,0.0,0.0,0.0,0.0,0.0,0.0,0.0,0.0,0.0,0.0,0.0,0.0,0.0,0.0,0.0,0.0,0.0,0.0,0.0,0.0,0.0,0.0,0.0,0.0,0.0,0.0,0.0,0.0,0.0,0.0,0.0,0.0,0.0,0.0,0.0,0.0,0.336,0.3286,0.3056,0.254,0.1887,0.0,0.0,0.0,0.0,0.0,0.0,0.0,0.0,0.0,0.0,0.0,0.0,0.0,0.0,0.0,0.0,0.0,0.0,0.0,0.0,0.0,0.0,0.0,0.0,0.0,0.0,0.0,0.0,0.0,0.0,0.0,0.0,0.0,0.0,0.0,0.0,0.0,0.0,0.0,0.0,0.0,0.0,0.0,0.0,0.0,0.0,0.0,0.0,0.0,0.0,0.0,0.0,0.0,0.0,0.0,0.0,0.0,0.0,0.0,0.0,0.0,0.0,0.0,0.0,0.0,0.0,0.0,0.0,0.0,0.0,0.0,0.0,0.0,0.0,0.0,0.0,0.0,0.0,0.0,0.0,0.0,0.0,0.0,0.0,0.0,0.0,0.0,0.0,0.0,0.0,0.0,0.0,0.0,0.0,0.0,0.0,0.0,0.0,0.0,0.0,0.0,0.0,0.0,0.0,0.0,0.0,0.0,0.0,0.0,0.2709,0.3198,0.3377,0.3101,0.2,0.1529,0.0,0.0,0.0,0.0,0.0,0.0,0.0,0.0,0.0,0.0,0.0,0.0,0.0,0.0,0.0,0.0,0.0,0.0,0.0,0.0,0.0,0.0,0.0,0.0,0.0,0.0,0.0,0.0,0.0,0.0,0.0,0.0,0.0,0.0,0.0,0.0,0.0,0.0,0.0,0.0,0.0,0.0,0.0,0.0,0.0,0.0,0.0,0.0,0.0,0.0,0.0,0.0,0.0,0.0,0.0,0.0,0.0,0.0,0.0,0.0,0.0,0.0,0.0,0.0,0.0,0.0,0.0,0.0,0.0,0.0,0.0,0.0,0.0,0.0,0.0,0.0,0.0,0.0,0.0,0.0,0.0,0.0,0.0,0.0,0.0,0.0,0.0,0.0,0.0,0.0,0.0,0.0,0.0,0.0,0.0,0.0,0.0,0.0,0.0,0.0,0.0,0.0,0.0,0.0,0.0,0.0,0.0,0.0,0.0,0.2586,0.0,0.3637,0.0,0.1982,0.1564,0.0,0.0,0.0,0.0,0.0,0.0,0.0,0.0,0.0,0.0,0.0,0.0,0.0,0.0,0.0,0.0,0.0,0.0,0.0,0.0,0.0,0.0,0.0,0.0,0.0,0.0,0.0,0.0,0.0,0.0,0.0,0.0,0.0,0.0,0.0,0.0,0.0,0.0,0.0,0.0,0.0,0.0,0.0,0.0,0.0,0.0,0.0,0.0,0.0,0.0,0.0,0.0,0.0,0.0,0.0,0.0,0.0,0.0,0.0,0.0,0.0,0.0,0.0,0.0,0.0,0.0,0.0,0.0,0.0,0.0,0.0,0.0,0.0,0.0,0.0,0.0,0.0,0.0,0.0,0.0,0.0,0.0,0.0,0.0,0.0,0.0,0.0,0.0,0.0,0.0,0.0,0.0,0.0,0.0,0.0,0.0,0.0,0.0,0.0,0.0,0.0,0.0,0.0,0.0,0.0,0.0,0.0,0.0,0.2946,0.3289,0.3966,0.4025,0.3507,0.2633,0.209,0.0,0.0,0.0,0.0,0.0,0.0,0.0,0.0,0.0,0.0,0.0,0.0,0.0,0.0,0.0,0.0,0.0,0.0,0.0,0.0,0.0,0.0,0.0,0.0,0.0,0.0,0.0,0.0,0.0,0.0,0.0,0.0,0.0,0.0,0.0,0.0,0.0,0.0,0.0,0.0,0.0,0.0,0.0,0.0,0.0,0.0,0.0,0.0,0.0,0.0,0.0,0.0,0.0,0.0,0.0,0.0,0.0,0.0,0.0,0.0,0.0,0.0,0.0,0.0,0.0,0.0,0.0,0.0,0.0,0.0,0.0,0.0,0.0,0.0,0.0,0.0,0.0,0.0,0.0,0.0,0.0,0.0,0.0,0.0,0.0,0.0,0.0,0.0,0.0,0.0,0.0,0.0,0.0,0.0,0.0,0.0,0.0,0.0,0.0,0.0,0.0,0.0,0.0,0.0,0.0,0.0,0.0,0.0,0.0,0.2959,0.3078,0.3252,0.3468,0.2892,0.2555,0.0,0.0,0.0,0.0,0.0,0.0,0.0,0.0,0.0,0.0,0.0,0.0,0.0,0.0,0.0,0.0,0.0,0.0,0.0,0.0,0.0,0.0,0.0,0.0,0.0,0.0,0.0,0.0,0.0,0.0,0.0,0.0,0.0,0.0,0.0,0.0,0.0,0.0,0.0,0.0,0.0,0.0,0.0,0.0,0.0,0.0,0.0,0.0,0.0,0.0,0.0,0.0,0.0,0.0,0.0,0.0,0.0,0.0,0.0,0.0,0.0,0.0,0.0,0.0,0.0,0.0,0.0,0.0,0.0,0.0,0.0,0.0,0.0,0.0,0.0,0.0,0.0,0.0,0.0,0.0,0.0,0.0,0.0,0.0,0.0,0.0,0.0,0.0,0.0,0.0,0.0,0.0,0.0,0.0,0.0,0.0,0.0,0.0,0.0,0.0,0.0,0.0,0.0,0.0,0.0,0.0,0.0,0.0,0.0,0.2675,0.2822,0.3039,0.3251,0.3094,0.2861,0.2571,0.0,0.0,0.0,0.0,0.0,0.0,0.0,0.0,0.0,0.0,0.0,0.0,0.0,0.0,0.0,0.0,0.0,0.0,0.0,0.0,0.0,0.0,0.0,0.0,0.0,0.0,0.0,0.0,0.0,0.0,0.0,0.0,0.0,0.0,0.0,0.0,0.0,0.0,0.0,0.0,0.0,0.0,0.0,0.0,0.0,0.0,0.0,0.0,0.0,0.0,0.0,0.0,0.0,0.0,0.0,0.0,0.0,0.0,0.0,0.0,0.0,0.0,0.0,0.0,0.0,0.0,0.0,0.0,0.0,0.0,0.0,0.0,0.0,0.0,0.0,0.0,0.0,0.0,0.0,0.0,0.0,0.0,0.0,0.0,0.0,0.0,0.0,0.0,0.0,0.0,0.0,0.0,0.0,0.0,0.0,0.0,0.0,0.0,0.0,0.0,0.0,0.0,0.0,0.0,0.0,0.0,0.0,0.0,0.2439,0.3086,0.3249,0.2941,0.3221,0.2967,0.0,0.0,0.0,0.0,0.0,0.0,0.0,0.0,0.0,0.0,0.0,0.0,0.0,0.0,0.0,0.0,0.0,0.0,0.0,0.0,0.0,0.0,0.0,0.0,0.0,0.0,0.0,0.0,0.0,0.0,0.0,0.0,0.0,0.0,0.0,0.0,0.0,0.0,0.0,0.0,0.0,0.0,0.0,0.0,0.0,0.0,0.0,0.0,0.0,0.0,0.0,0.0,0.0,0.0,0.0,0.0,0.0,0.0,0.0,0.0,0.0,0.0,0.0,0.0,0.0,0.0,0.0,0.0,0.0,0.0,0.0,0.0,0.0,0.0,0.0,0.0,0.0,0.0,0.0,0.0,0.0,0.0,0.0,0.0,0.0,0.0,0.0,0.0,0.0,0.0,0.0,0.0,0.0,0.0,0.0,0.0,0.0,0.0,0.0,0.0,0.0,0.0,0.0,0.0,0.0,0.0,0.0,0.0,0.0,0.2907,0.2659,0.27,0.3023,0.2527,0.2378,0.0,0.0,0.0,0.0,0.0,0.0,0.0,0.0,0.0,0.0,0.0,0.0,0.0,0.0,0.0,0.0,0.0,0.0,0.0,0.0,0.0,0.0,0.0,0.0,0.0,0.0,0.0,0.0,0.0,0.0,0.0,0.0,0.0,0.0,0.0,0.0,0.0,0.0,0.0,0.0,0.0,0.0,0.0,0.0,0.0,0.0,0.0,0.0,0.0,0.0,0.0,0.0,0.0,0.0,0.0,0.0,0.0,0.0,0.0,0.0,0.0,0.0,0.0,0.0,0.0,0.0,0.0,0.0,0.0,0.0,0.0,0.0,0.0,0.0,0.0,0.0,0.0,0.0,0.0,0.0,0.0,0.0,0.0,0.0,0.0,0.0,0.0,0.0,0.0,0.0,0.0,0.0,0.0,0.0,0.0,0.0,0.0,0.0,0.0,0.0,0.0,0.0,0.0,0.0,0.0,0.0,0.0,0.0,0.2901,0.2719,0.2522,0.2607,0.2928,0.2435,0.2281,0.0,0.0,0.0,0.0,0.0,0.0,0.0,0.0,0.0,0.0,0.0,0.0,0.0,0.0,0.0,0.0,0.0,0.0,0.0,0.0,0.0,0.0,0.0,0.0,0.0,0.0,0.0,0.0,0.0,0.0,0.0,0.0,0.0,0.0,0.0,0.0,0.0,0.0,0.0,0.0,0.0,0.0,0.0,0.0,0.0,0.0,0.0,0.0,0.0,0.0,0.0,0.0,0.0,0.0,0.0,0.0,0.0,0.0,0.0,0.0,0.0,0.0,0.0,0.0,0.0,0.0,0.0,0.0,0.0,0.0,0.0,0.0,0.0,0.0,0.0,0.0,0.0,0.0,0.0,0.0,0.0,0.0,0.0,0.0,0.0,0.0,0.0,0.0,0.0,0.0,0.0,0.0,0.0,0.0,0.0,0.0,0.0,0.0,0.0,0.0,0.0,0.0,0.0,0.0,0.0,0.0,0.0,0.0,0.2836,0.2292,0.2568,0.2679,0.2676,0.2677,0.2454,0.0,0.0,0.0,0.0,0.0,0.0,0.0,0.0,0.0,0.0,0.0,0.0,0.0,0.0,0.0,0.0,0.0,0.0,0.0,0.0,0.0,0.0,0.0,0.0,0.0,0.0,0.0,0.0,0.0,0.0,0.0,0.0,0.0,0.0,0.0,0.0,0.0,0.0,0.0,0.0,0.0,0.0,0.0,0.0,0.0,0.0,0.0,0.0,0.0,0.0,0.0,0.0,0.0,0.0,0.0,0.0,0.0,0.0,0.0,0.0,0.0,0.0,0.0,0.0,0.0,0.0,0.0,0.0,0.0,0.0,0.0,0.0,0.0,0.0,0.0,0.0,0.0,0.0,0.0,0.0,0.0,0.0,0.0,0.0,0.0,0.0,0.0,0.0,0.0,0.0,0.0,0.0,0.0,0.0,0.0,0.0,0.0,0.0,0.0,0.0,0.0,0.0,0.0,0.0,0.0,0.0,0.0,0.0,0.298,0.2761,0.2712,0.2679,0.2679,0.2425,0.2313,0.0,0.0,0.0,0.0,0.0,0.0,0.0,0.0,0.0,0.0,0.0,0.0,0.0,0.0,0.0,0.0,0.0,0.0,0.0,0.0,0.0,0.0,0.0,0.0,0.0,0.0,0.0,0.0,0.0,0.0,0.0,0.0,0.0,0.0,0.0,0.0,0.0,0.0,0.0,0.0,0.0,0.0,0.0,0.0,0.0,0.0,0.0,0.0,0.5407,0.0,0.0,0.0,0.0,0.0,0.0,0.0,0.0,0.0,0.0,0.0,0.0,0.0,0.0,0.0,0.0,0.0,0.0,0.0,0.0,0.0,0.0,0.0,0.0,0.0,0.0,0.0,0.0,0.0,0.0,0.0,0.0,0.0,0.0,0.0,0.0,0.0,0.0,0.0,0.0,0.0,0.0,0.0,0.0,0.0,0.0,0.0,0.0,0.0,0.0,0.0,0.0,0.0,0.0,0.0,0.0,0.0,0.0,0.0,0.2832,0.2721,0.273,0.2679,0.2671,0.252,0.2367,0.0,0.0,0.0,0.0,0.0,0.0,0.0,0.0,0.0,0.0,0.0,0.0,0.0,0.0,0.0,0.0,0.0,0.0,0.0,0.0,0.0,0.0,0.0,0.0,0.0,0.0,0.0,0.0,0.0,0.0,0.0,0.0,0.0,0.0,0.0,0.0,0.0,0.0,0.0,0.0,0.0,0.0,0.0,0.0,0.0,0.0,0.0,0.0,0.0,0.0,0.0,0.0,0.0,0.0,0.0,0.0,0.0,0.0,0.0,0.0,0.0,0.0,0.0,0.0,0.0,0.0,0.0,0.0,0.0,0.0,0.0,0.0,0.0,0.0,0.0,0.0,0.0,0.0,0.0,0.0,0.0,0.0,0.0,0.0,0.0,0.0,0.0,0.0,0.0,0.0,0.0,0.0,0.0,0.0,0.0,0.0,0.0,0.0,0.0,0.0,0.0,0.0,0.0,0.0,0.0,0.0,0.0,0.2698,0.264,0.2545,0.2635,0.2681,0.2679,0.2661,0.2478,0.2131,0.0,0.0,0.0,0.0,0.0,0.0,0.0,0.0,0.0,0.0,0.0,0.0,0.0,0.0,0.0,0.0,0.0,0.0,0.0,0.0,0.0,0.0,0.0,0.0,0.0,0.0,0.0,0.0,0.0,0.0,0.0,0.0,0.0,0.0,0.0,0.0,0.0,0.0,0.4379,0.4842,0.0,0.0,0.0,0.0,0.0,0.0,0.0,0.0,0.5508,0.0,0.0,0.0,0.0,0.0,0.0,0.0,0.0,0.0,0.0,0.0,0.0,0.0,0.0,0.0,0.0,0.0,0.0,0.0,0.0,0.0,0.0,0.0,0.0,0.0,0.0,0.0,0.0,0.0,0.0,0.0,0.0,0.0,0.0,0.0,0.0,0.0,0.0,0.0,0.0,0.0,0.0,0.0,0.0,0.0,0.0,0.0,0.0,0.0,0.0,0.0,0.0,0.0,0.0,0.0,0.0,0.3093,0.2829,0.2682,0.2683,0.2683,0.2691,0.2676,0.2532,0.2355,0.2183,0.0,0.0,0.0,0.0,0.0,0.0,0.0,0.0,0.0,0.0,0.0,0.0,0.0,0.0,0.0,0.0,0.0,0.0,0.0,0.0,0.0,0.0,0.0,0.0,0.0,0.0,0.0,0.0,0.0,0.0,0.0,0.0,0.0,0.0,0.0,0.0,0.0,0.0,0.0,0.5197,0.5534,0.0,0.0,0.0,0.0,0.0,0.0,0.0,0.0,0.5908,0.0,0.0,0.0,0.0,0.0,0.0,0.0,0.0,0.0,0.0,0.0,0.0,0.0,0.0,0.0,0.0,0.0,0.0,0.0,0.0,0.0,0.0,0.0,0.0,0.0,0.0,0.0,0.0,0.0,0.0,0.0,0.0,0.0,0.0,0.0,0.0,0.0,0.0,0.0,0.0,0.0,0.0,0.0,0.0,0.0,0.0,0.0,0.0,0.0,0.0,0.0,0.0,0.0,0.0,0.0,0.2875,0.2179,0.1844,0.1997,0.2453,0.2696,0.2688,0.25,0.2407,0.0,0.0,0.0,0.0,0.0,0.0,0.0,0.0,0.0,0.0,0.0,0.0,0.0,0.0,0.0,0.0,0.0,0.0,0.0,0.0,0.0,0.0,0.0,0.0,0.0,0.0,0.0,0.0,0.0,0.0,0.0,0.0,0.0,0.0,0.0,0.0,0.0,0.0,0.0,0.0,0.4891,0.5492,0.6882,0.0,0.0,0.0,0.0,0.0,0.0,0.6168,0.5972,0.0,0.0,0.0,0.0,0.0,0.0,0.0,0.0,0.0,0.0,0.0,0.0,0.0,0.0,0.0,0.0,0.0,0.0,0.0,0.0,0.0,0.0,0.0,0.0,0.0,0.0,0.0,0.0,0.0,0.0,0.0,0.0,0.0,0.0,0.0,0.0,0.0,0.0,0.0,0.0,0.0,0.0,0.0,0.0,0.0,0.0,0.0,0.0,0.0,0.0,0.0,0.0,0.0,0.0,0.0,0.2293,0.1393,0.0945,0.1083,0.1944,0.2512,0.2683,0.2464,0.2422,0.0,0.0,0.0,0.0,0.0,0.0,0.0,0.0,0.0,0.0,0.0,0.0,0.0,0.0,0.0,0.0,0.0,0.0,0.0,0.0,0.0,0.0,0.0,0.0,0.0,0.0,0.0,0.0,0.0,0.0,0.0,0.0,0.0,0.0,0.0,0.0,0.0,0.0,0.0,0.0,0.0,0.5595,0.7427,0.7339,0.0,0.0,0.0,0.0,0.7026,0.6644,0.0,0.0,0.0,0.0,0.0,0.0,0.0,0.0,0.0,0.0,0.0,0.0,0.0,0.0,0.0,0.0,0.0,0.0,0.0,0.0,0.0,0.0,0.0,0.0,0.0,0.0,0.0,0.0,0.0,0.0,0.0,0.0,0.0,0.0,0.0,0.0,0.0,0.0,0.0,0.0,0.0,0.0,0.0,0.0,0.0,0.0,0.0,0.0,0.0,0.0,0.0,0.0,0.0,0.0,0.0,0.0,0.1107,0.0968,0.0645,0.0227,0.1014,0.1865,0.2659,0.2403,0.2106,0.0,0.0,0.0,0.0,0.0,0.0,0.0,0.0,0.0,0.0,0.0,0.0,0.0,0.0,0.0,0.0,0.0,0.0,0.0,0.0,0.0,0.0,0.0,0.0,0.0,0.0,0.0,0.0,0.0,0.0,0.0,0.0,0.0,0.0,0.0,0.0,0.0,0.0,0.0,0.0,0.0,0.636,0.7545,0.7645,0.7578,0.0,0.0,0.7564,0.7613,0.7891,0.0,0.0,0.0,0.0,0.0,0.0,0.0,0.0,0.0,0.0,0.0,0.0,0.0,0.0,0.0,0.0,0.0,0.0,0.0,0.0,0.0,0.0,0.0,0.0,0.0,0.0,0.0,0.0,0.0,0.0,0.0,0.0,0.0,0.0,0.0,0.0,0.0,0.0,0.0,0.0,0.0,0.0,0.0,0.0,0.0,0.0,0.0,0.0,0.0,0.0,0.0,0.0,0.0,0.0,0.0,0.1415,0.1409,0.1226,0.126,0.1521,0.1901,0.2291,0.2695,0.2379,0.2244,0.0,0.0,0.0,0.0,0.0,0.0,0.0,0.0,0.0,0.0,0.0,0.0,0.0,0.0,0.0,0.0,0.0,0.0,0.0,0.0,0.0,0.0,0.0,0.0,0.0,0.0,0.0,0.0,0.0,0.0,0.0,0.0,0.0,0.0,0.0,0.0,0.0,0.0,0.0,0.0,0.0,0.0,0.8782,0.8324,0.0,0.0,0.0,0.8671,0.8666,0.0,0.0,0.0,0.0,0.0,0.0,0.0,0.0,0.0,0.0,0.0,0.0,0.0,0.0,0.0,0.0,0.0,0.0,0.0,0.0,0.0,0.0,0.0,0.0,0.0,0.0,0.0,0.0,0.0,0.0,0.0,0.0,0.0,0.0,0.0,0.0,0.0,0.0,0.0,0.0,0.0,0.0,0.0,0.0,0.0,0.0,0.0,0.0,0.0,0.0,0.0,0.0,0.0,0.0,0.0,0.0,0.0,0.1794,0.1513,0.1769,0.2671,0.2675,0.2673,0.2695,0.236,0.0,0.0,0.0,0.0,0.0,0.0,0.0,0.0,0.0,0.0,0.0,0.0,0.0,0.0,0.0,0.0,0.0,0.0,0.0,0.0,0.0,0.0,0.0,0.0,0.0,0.0,0.0,0.2654,0.0,0.0,0.0,0.0,0.0,0.0,0.0,0.0,0.0,0.0,0.0,0.0,0.0,0.0,0.6166,0.9776,0.918,0.8537,0.0,0.0,0.9442,0.9447,0.8844,0.8076,0.0,0.0,0.0,0.0,0.0,0.0,0.0,0.0,0.0,0.0,0.0,0.0,0.0,0.0,0.0,0.0,0.0,0.0,0.0,0.0,0.0,0.0,0.0,0.0,0.0,0.0,0.0,0.0,0.0,0.0,0.0,0.0,0.0,0.0,0.0,0.0,0.0,0.0,0.0,0.0,0.0,0.0,0.0,0.0,0.0,0.0,0.0,0.0,0.0,0.0,0.0,0.0,0.0,0.0,0.0,0.1794,0.1587,0.1876,0.2645,0.2675,0.2687,0.2675,0.2388,0.2101,0.0,0.0,0.0,0.0,0.0,0.0,0.0,0.0,0.0,0.0,0.0,0.0,0.0,0.0,0.0,0.0,0.0,0.0,0.0,0.0,0.0,0.0,0.0,0.0,0.0,0.0,0.0,0.0,0.0,0.0,0.0,0.0,0.0,0.0,0.0,0.0,0.0,0.0,0.0,0.0,0.0,0.7313,0.9932,1.0183,0.9939,0.0,0.0,0.96,0.96,0.9883,0.9424,0.7432,0.0,0.0,0.0,0.0,0.0,0.0,0.0,0.0,0.0,0.0,0.0,0.0,0.0,0.0,0.0,0.0,0.0,0.0,0.0,0.0,0.0,0.0,0.0,0.0,0.0,0.0,0.0,0.0,0.0,0.0,0.0,0.0,0.0,0.0,0.0,0.0,0.0,0.0,0.0,0.0,0.0,0.0,0.0,0.0,0.0,0.0,0.0,0.0,0.0,0.0,0.0,0.0,0.0,0.1667,0.1796,0.1876,0.2128,0.2486,0.2631,0.2673,0.2679,0.2382,0.2065,0.0,0.0,0.0,0.0,0.0,0.0,0.0,0.0,0.0,0.0,0.0,0.0,0.0,0.0,0.0,0.0,0.0,0.0,0.0,0.0,0.0,0.0,0.0,0.0,0.0,0.0,0.0,0.0,0.3032,0.3587,0.4001,0.0,0.0,0.0,0.0,0.0,0.0,0.0,0.0,0.0,0.0,0.6785,0.9857,1.0329,0.0,0.0,0.9978,1.0034,1.0029,0.9727,0.9126,0.8097,0.7583,0.0,0.0,0.0,0.0,0.0,0.0,0.0,0.0,0.0,0.0,0.0,0.0,0.0,0.0,0.0,0.0,0.0,0.0,0.0,0.0,0.0,0.0,0.0,0.0,0.0,0.0,0.0,0.0,0.0,0.0,0.0,0.0,0.0,0.0,0.0,0.0,0.0,0.0,0.0,0.0,0.0,0.0,0.0,0.0,0.0,0.0,0.0,0.0,0.0,0.0,0.0,0.0,0.1747,0.197,0.2136,0.229,0.2449,0.2614,0.2699,0.2689,0.2382,0.2143,0.0,0.0,0.0,0.0,0.0,0.0,0.0,0.0,0.0,0.0,0.0,0.0,0.0,0.0,0.0,0.0,0.0,0.0,0.0,0.0,0.0,0.0,0.0,0.0,0.0,0.0,0.0,0.0,0.339,0.4033,0.4744,0.0,0.0,0.0,0.0,0.0,0.0,0.0,0.0,0.0,0.0,0.6608,0.9405,0.9829,0.9928,1.0267,1.0312,1.0322,1.0322,0.978,0.9209,0.8657,0.0,0.0,0.0,0.0,0.0,0.0,0.0,0.0,0.0,0.0,0.0,0.0,0.0,0.0,0.0,0.0,0.0,0.0,0.0,0.0,0.0,0.0,0.0,0.0,0.0,0.0,0.0,0.0,0.0,0.0,0.0965,0.0,0.0,0.0,0.0,0.0,0.0,0.0,0.0,0.0,0.0,0.0,0.0,0.0,0.0,0.0,0.0,0.0,0.0,0.0,0.0,0.0,0.0,0.1998,0.2365,0.2264,0.2278,0.2504,0.2632,0.2699,0.2687,0.238,0.2327,0.2643,0.0,0.0,0.0,0.0,0.0,0.0,0.0,0.0,0.0,0.0,0.0,0.0,0.0,0.0,0.0,0.0,0.0,0.0,0.0,0.0,0.0,0.0,0.0,0.0,0.0,0.0,0.3408,0.3725,0.422,0.0,0.0,0.0,0.0,0.0,0.0,0.0,0.0,0.0,0.0,0.5953,0.7023,0.8549,0.8764,0.9178,1.0157,1.0298,1.0322,1.0322,1.0249,0.9971,0.0,0.0,0.0,0.0,0.0,0.0,0.0,0.0,0.0,0.0,0.0,0.0,0.0,0.0,0.0,0.0,0.0,0.0,0.0,0.0,0.0,0.0,0.0,0.0,0.0,0.0,0.0,0.1265,0.1148,0.0,0.0,0.0,0.0,0.0,0.0,0.0,0.0,0.0,0.0,0.0,0.3563,0.3432,0.0,0.0,0.0,0.0,0.0,0.0,0.0,0.0,0.0,0.0,0.0,0.0,0.2187,0.2388,0.2265,0.2308,0.2509,0.2532,0.2621,0.2677,0.2278,0.2043,0.1959,0.0,0.0,0.0,0.0,0.0,0.0,0.0,0.0,0.0,0.0,0.0,0.0,0.0,0.0,0.0,0.0,0.0,0.0,0.0,0.0,0.0,0.0,0.0,0.0,0.0,0.3056,0.0,0.0,0.0,0.0,0.0,0.0,0.0,0.0,0.0,0.0,0.0,0.5933,0.6305,0.6831,0.7559,0.8562,0.9306,0.9914,0.0,0.0,0.0,0.0,0.0,0.0,0.0,0.0,0.0,0.0,0.0,0.0,0.0,0.0,0.9155,0.8349,0.8186,0.8281,0.8592,0.0,0.0,0.0,0.0,0.0,0.0,0.0,0.0,0.0,0.0,0.0,0.0,0.0,0.0,0.0923,0.0,0.0643,0.0,0.0,0.0,0.0,0.0,0.0,0.0,0.0,0.2253,0.2231,0.2298,0.2774,0.2978,0.0,0.3104,0.3132,0.0,0.0,0.0,0.0,0.0,0.0,0.0,0.0,0.2398,0.2608,0.2427,0.2412,0.2551,0.2542,0.2508,0.2528,0.2139,0.1861,0.1689,0.2122,0.2278,0.0,0.0,0.0,0.0,0.0,0.0,0.0,0.0,0.0,0.0,0.0,0.0,0.0,0.0,0.0,0.0,0.0,0.0,0.0,0.0,0.0,0.0,0.0,0.3716,0.0,0.0,0.0,0.0,0.0,0.0,0.0,0.0,0.0,0.7114,0.6678,0.661,0.7461,0.7498,0.7823,0.8823,0.0,0.0,0.0,0.0,0.0,0.0,0.0,1.0249,1.0064,0.9976,0.9849,0.9697,0.9087,0.8896,0.9785,0.0,0.0,0.9303,0.898,0.8977,0.9426,0.9176,0.8845,0.8653,0.8752,0.8825,0.0,0.0,0.0,0.0,0.0,0.0,0.0,0.0,-0.0476,0.01,0.0,-0.0139,0.0,0.0,0.0,0.0,0.0,0.1535,0.0,0.0,0.1429,0.1107,0.0995,0.2242,0.2831,0.2743,0.3103,0.3209,0.305,0.2626,0.0,0.0,0.0,0.0,0.0,0.0,0.2655,0.3038,0.2696,0.2558,0.27,0.2594,0.241,0.2201,0.1954,0.1796,0.1825,0.2343,0.2532,0.2228,0.2468,0.0,0.0,0.0,0.0,0.0,0.0,0.0,0.0,0.0,0.0,0.0,0.0,0.0,0.0,0.0,0.0,0.0,0.0,0.0,0.0,0.3831,0.0,0.0,0.0,0.0,0.0,0.0,0.0,0.0,0.0,0.0,0.771,0.6963,0.6998,0.8597,0.0,0.0,0.0,0.0,0.9685,1.0843,1.1045,1.1207,1.1785,1.1669,1.1349,1.0903,0.0,0.0,1.0903,1.0546,1.0025,0.9277,1.0424,1.1579,1.173,1.0909,1.0251,1.0296,0.998,0.9674,0.9677,1.0013,1.0298,-0.3514,0.0,0.0,0.0,0.0,-0.096,-0.1309,-0.2187,-0.2041,-0.1626,-0.1071,-0.1739,0.0,0.0,0.0,0.0,0.0,0.0,0.1786,0.1738,0.0828,0.0323,0.0293,0.0669,0.16,0.2957,0.3062,0.2988,0.2819,0.2683,0.2595,0.2552,0.0,0.0,0.0,0.0,0.2731,0.293,0.267,0.2558,0.2678,0.2563,0.2361,0.2084,0.1882,0.1799,0.1804,0.2154,0.2407,0.2542,0.2677,0.0,0.0,0.0,0.0,0.0,0.0,0.0,0.0,0.0,0.0,0.0,0.0,0.0,0.0,0.0,0.0,0.0,0.0,0.0,0.3663,0.4461,0.4888,0.0,0.0,0.0,0.0,0.0,0.0,0.0,0.0,0.0,0.8028,0.8095,0.8378,0.0,0.0,0.8471,0.8861,0.9347,0.9771,1.0108,0.9983,0.0,1.0032,1.0099,1.0069,0.9913,1.003,1.0065,0.9913,1.0215,1.0587,1.0807,1.0377,1.0475,1.2155,1.184,1.1152,1.0954,1.0958,1.1018,1.1033,1.1165,1.1239,-0.4674,-0.3487,-0.2443,-0.2174,-0.2357,-0.1883,-0.2102,-0.2778,-0.2778,-0.254,-0.2208,-0.2601,-0.276,-0.2637,-0.1467,0.0,0.0,0.0,0.1091,0.1078,0.0333,-0.0,-0.0,-0.0,0.0637,0.1844,0.2317,0.2639,0.2844,0.283,0.2759,0.2707,0.0,0.0,0.2918,0.2843,0.2822,0.2902,0.2694,0.2621,0.2678,0.2632,0.2397,0.1991,0.1887,0.1804,0.1804,0.1957,0.2195,0.2478,0.254,0.2841,0.0,0.0,0.0,0.0,0.0,0.0,0.0,0.0,0.0,0.0,0.0,0.3013,0.2851,0.0,0.0,0.0,0.3551,0.4422,0.4506,0.5156,0.0,0.0,0.0,0.0,0.0,0.0,0.0,0.729,0.7795,0.8144,0.822,0.8536,0.8859,0.9169,0.8765,0.8565,0.8833,0.0,0.9435,0.9563,0.9626,0.9706,0.9882,0.997,1.003,1.0022,0.9861,0.9939,1.0246,1.0406,1.0828,1.1593,1.0767,0.9995,1.1058,1.1259,1.1265,1.104,1.1104,1.1104,1.0834,1.1132,1.1424,-0.5832,-0.4872,-0.3728,-0.3081,-0.2828,-0.2868,-0.2887,-0.2891,-0.293,-0.2854,-0.2729,-0.2764,-0.2749,-0.2675,-0.2097,0.0,-0.1619,-0.0515,-0.0,-0.0,-0.0,-0.0,-0.0,-0.0,-0.0,0.004,0.1158,0.2066,0.2811,0.2879,0.2822,0.2695,0.2696,0.2675,0.2701,0.2825,0.2894,0.2861,0.2767,0.2679,0.2676,0.2698,0.2479,0.2033,0.1867,0.1804,0.1804,0.1804,0.1913,0.2174,0.2241,0.2608,0.3356,0.0,0.0,0.0,0.0,0.0,0.0,0.0,0.0,0.0,0.0,0.0,0.0,0.0,0.0,0.0,0.3984,0.0,0.5161,0.5987,0.0,0.0,0.0,0.6584,0.7088,0.7411,0.7645,0.7733,0.0,0.0,0.8329,0.8504,0.8639,0.8557,0.8318,0.833,0.8941,0.879,0.8787,0.9125,0.9713,1.0205,1.0342,1.0456,1.0444,1.044,1.0343,1.0282,1.0885,1.0533,1.0805,1.2036,1.1186,0.9857,0.896,0.9877,1.0661,1.057,1.0629,1.0455,0.9935,1.0488,1.1062,-0.6609,-0.575,-0.4868,-0.4149,-0.3647,-0.3174,-0.2967,-0.3007,-0.3013,-0.2919,-0.267,-0.1972,-0.2043,-0.2668,-0.256,-0.1719,-0.0386,-0.012,-0.0,-0.0,-0.0,-0.0,-0.0,-0.0,-0.0,-0.0,0.0307,0.0517,0.0785,0.1652,0.2291,0.2659,0.2698,0.2692,0.2711,0.2738,0.2755,0.2755,0.2728,0.2679,0.2673,0.2696,0.2509,0.2157,0.1923,0.1804,0.1804,0.1804,0.1935,0.2195,0.2435,0.2673,0.2867,0.2539,0.0,0.0,0.0,0.0,0.0,0.0,0.0,0.0,0.0,0.3161,0.2771,0.0,0.3673,0.0,0.4094,0.5242,0.5611,0.6693,0.0,0.0,0.6411,0.6556,0.7194,0.7057,0.7239,0.8061,0.8161,0.8179,0.8167,0.8111,0.7946,0.7485,0.7909,0.8108,0.7661,0.8084,0.8446,0.8529,0.8893,0.9179,0.9291,0.9263,0.9309,0.926,0.919,0.9241,0.9427,0.9278,0.9284,0.9709,0.9452,0.9034,0.8833,0.9084,0.9239,0.9357,1.0031,1.0709,1.0508,1.0723,1.0872,-0.754,-0.6803,-0.5886,-0.5137,-0.4493,-0.3654,-0.2956,-0.2496,-0.2501,-0.2716,-0.2979,-0.1418,-0.1587,-0.3017,-0.1964,-0.096,-0.0,-0.0,-0.0,-0.0,-0.0,-0.0,-0.0,-0.0,-0.0,-0.0,-0.0,-0.0,-0.0,0.0691,0.1563,0.2681,0.2445,0.244,0.2678,0.2681,0.2688,0.269,0.2683,0.2679,0.2673,0.2698,0.2554,0.2202,0.1943,0.1804,0.1804,0.1804,0.1869,0.202,0.2326,0.2541,0.2689,0.2511,0.2244,0.0,0.0,0.0,0.0,0.0,0.0,0.0,0.0,0.0,0.0,0.0,0.395,0.3331,0.4439,0.5365,0.5804,0.6702,0.7116,0.6777,0.678,0.6942,0.7266,0.7296,0.7521,0.8146,0.8051,0.7855,0.7649,0.7561,0.7419,0.7241,0.7647,0.786,0.7664,0.8156,0.8565,0.848,0.8667,0.8808,0.8808,0.8808,0.8808,0.8808,0.8808,0.8808,0.8808,0.8808,0.8784,0.879,0.8764,0.8784,0.8808,0.8793,0.8808,0.891,0.9361,0.9865,0.9913,1.0171,1.0312,-0.8427,-0.7818,-0.6722,-0.5964,-0.527,-0.41,-0.2901,-0.1784,-0.1651,-0.2149,-0.302,-0.0943,-0.1168,-0.2974,-0.0628,0.0449,0.0449,0.0135,0.009,0.0225,0.009,-0.0,-0.0,-0.0,-0.0,-0.0,-0.0,-0.0,-0.0,-0.0,0.0791,0.2296,0.1981,0.2095,0.2663,0.2699,0.2685,0.2696,0.2686,0.2681,0.2676,0.2689,0.2549,0.2202,0.1936,0.1803,0.1804,0.1804,0.1804,0.1804,0.211,0.2411,0.2692,0.2578,0.2539,0.0,0.2489,0.0,0.0,0.0,0.0,0.0,0.0,0.0,0.0,0.362,0.3827,0.4211,0.5012,0.5643,0.5921,0.646,0.6818,0.696,0.7221,0.734,0.7295,0.7621,0.7886,0.793,0.7859,0.7572,0.7105,0.6975,0.7134,0.7408,0.755,0.7749,0.8137,0.8514,0.8765,0.8778,0.8808,0.8808,0.8808,0.8808,0.8808,0.8808,0.8808,0.8808,0.8808,0.8808,0.8804,0.8801,0.8801,0.8804,0.8808,0.8804,0.8808,0.8808,0.8857,0.8906,0.8959,0.9312,0.9462,-0.8767,-0.7762,-0.7113,-0.6435,-0.5658,-0.422,-0.2934,-0.174,-0.0759,-0.0448,-0.0629,-0.0225,-0.027,-0.0494,0.1842,0.2927,0.2793,0.0893,0.0535,0.143,0.0447,-0.0,-0.0,-0.0,-0.0,-0.0,-0.0,-0.0,-0.0,-0.0,0.0179,0.0532,0.1369,0.2092,0.2653,0.0,0.0,0.0,0.2696,0.2691,0.2674,0.2694,0.2536,0.2211,0.1931,0.0,0.1789,0.1804,0.1804,0.1826,0.2326,0.0,0.0,0.0,0.0,0.0,0.0,0.0,0.0,0.0,0.0,0.0,0.3605,0.3808,0.3529,0.3523,0.3937,0.49,0.6014,0.6543,0.6247,0.6797,0.7185,0.7209,0.7224,0.719,0.7083,0.7134,0.721,0.7214,0.7189,0.7154,0.7017,0.6975,0.7138,0.7445,0.7577,0.7814,0.8313,0.8619,0.8793,0.8798,0.8808,0.8808,0.8808,0.8808,0.8808,0.8808,0.8808,0.8808,0.8808,0.8808,0.8808,0.8808,0.8808,0.8808,0.8808,0.8808,0.8808,0.8808,0.8808,0.8808,0.8808,0.891,0.8956,-0.9186,0.0,-0.7788,-0.7066,0.0,-0.5298,-0.4248,-0.3105,-0.0936,-0.0,-0.0,0.1258,0.1123,0.0045,0.1256,0.2474,0.3531,0.2336,0.211,0.2652,0.2067,0.1167,-0.0,-0.0,-0.0,-0.0,-0.0,-0.0,-0.0,-0.0,-0.0,-0.0,0.0615,0.1516,0.2651,0.183,0.135,0.1377,0.2254,0.2696,0.2684,0.2694,0.2603,0.2342,0.1992,0.0,0.0,0.0,0.0,0.0,0.0,0.0,0.0,0.0,0.0,0.2679,0.2623,0.2615,0.2667,0.3003,0.3158,0.3025,0.367,0.407,0.3957,0.3938,0.4234,0.4958,0.5977,0.6439,0.6087,0.656,0.6939,0.6919,0.7024,0.7066,0.6987,0.6768,0.6732,0.6937,0.6764,0.6683,0.694,0.7158,0.7361,0.7652,0.7745,0.797,0.8476,0.8711,0.8804,0.8808,0.8808,0.8808,0.8808,0.8808,0.8808,0.8808,0.8808,0.8808,0.8808,0.8808,0.8808,0.8808,0.8808,0.8808,0.8808,0.8808,0.8808,0.8808,0.8808,0.8808,0.8808,0.8808,0.8808,-0.9593,-0.9443,-0.8557,-0.7852,-0.7245,-0.6716,-0.5899,-0.4721,0.0,0.0,0.0,0.2112,0.2113,0.0628,0.0403,0.1524,0.3534,0.3395,0.3255,0.3259,0.3075,0.2118,0.0629,0.018,-0.0,-0.0,-0.0,-0.0,-0.0,-0.0,-0.0,-0.0,-0.0,0.0775,0.205,0.0746,-0.0,-0.0,0.1611,0.2525,0.2691,0.2694,0.2638,0.2511,0.2079,0.1909,0.1985,0.1864,0.1804,0.1804,0.2042,0.2243,0.2376,0.257,0.2635,0.2488,0.267,0.2781,0.2721,0.3109,0.3246,0.3013,0.3669,0.4187,0.4442,0.4526,0.462,0.4817,0.5458,0.5814,0.5638,0.6069,0.6423,0.6557,0.6674,0.6719,0.668,0.6346,0.6218,0.655,0.6301,0.6218,0.6605,0.6868,0.725,0.7541,0.7699,0.8139,0.8623,0.8798,0.8808,0.8808,0.8808,0.8808,0.8808,0.8808,0.8808,0.8808,0.8808,0.8808,0.8808,0.8808,0.8808,0.8808,0.8808,0.8808,0.8808,0.8808,0.8808,0.8808,0.8808,0.8808,0.8808,0.8808,0.8808,-0.9922,-0.9474,-0.9319,-0.8954,-0.8419,-0.7814,-0.6877,-0.5522,-0.2771,-0.0977,-0.0,0.0358,0.1479,0.302,0.2014,0.2281,0.3509,0.2545,0.2052,0.2012,0.0983,0.1434,0.2929,0.0988,-0.0,-0.0,-0.0,-0.0,-0.0,-0.0,-0.0,-0.0,-0.0,-0.0,0.0353,0.0142,-0.0,-0.0,0.0971,0.1878,0.2661,0.2699,0.2648,0.2514,0.2264,0.2089,0.2011,0.1865,0.1804,0.1804,0.2042,0.2219,0.2239,0.2526,0.2678,0.2656,0.2536,0.2534,0.2681,0.2762,0.2987,0.3353,0.3543,0.3921,0.4671,0.5013,0.5084,0.4911,0.4775,0.4862,0.5289,0.5462,0.5902,0.6677,0.6081,0.5567,0.5607,0.5518,0.5478,0.5607,0.548,0.5435,0.5626,0.5779,0.6064,0.639,0.7265,0.8095,0.8515,0.8808,0.8808,0.8808,0.8808,0.8808,0.8808,0.8808,0.8808,0.8808,0.8808,0.8808,0.8808,0.8808,0.8808,0.8808,0.8808,0.8808,0.8808,0.8808,0.8808,0.8808,0.8808,0.8808,0.8808,0.8808,0.8808,-1.0162,-0.9922,-0.9646,-0.9364,-0.9075,-0.8529,-0.7601,-0.6428,-0.5194,-0.3602,-0.1957,-0.1244,0.0044,0.1658,0.2422,0.3062,0.3524,0.1656,0.0849,0.0761,0.0269,0.0583,0.1617,0.1842,0.1258,-0.0,-0.0,-0.0,-0.0,-0.0,-0.0,-0.0,-0.0,-0.0,-0.0,-0.0,-0.0,-0.0,0.0871,0.1742,0.2661,0.2686,0.268,0.2606,0.2495,0.2342,0.2112,0.1986,0.1867,0.1804,0.1935,0.1977,0.1977,0.2132,0.2217,0.2198,0.224,0.227,0.2327,0.2484,0.284,0.344,0.3445,0.3668,0.4331,0.4944,0.5102,0.4576,0.4186,0.4263,0.4979,0.5213,0.5623,0.6312,0.5715,0.5216,0.5031,0.5,0.5048,0.5221,0.4726,0.4637,0.5216,0.556,0.5799,0.609,0.7036,0.7751,0.7723,0.8299,0.8804,0.8808,0.8808,0.8808,0.8808,0.8808,0.8808,0.8808,0.8808,0.8808,0.8808,0.8808,0.8808,0.8808,0.8808,0.8808,0.8808,0.8808,0.8808,0.8808,0.8808,0.8808,0.8808,0.8808,0.8808,-1.039,-1.0239,-0.9843,-0.9681,-0.9637,-0.9123,-0.8374,-0.757,-0.729,-0.6137,-0.4331,-0.278,-0.155,-0.0356,0.1608,0.2743,0.2888,0.1257,0.0269,-0.0,-0.0,-0.0,-0.0,0.1979,0.2067,0.0853,0.0538,0.0403,0.0448,0.0674,0.0673,-0.0,0.0164,-0.0,-0.0,-0.0,-0.0,-0.0,0.067,0.1543,0.2628,0.2688,0.2684,0.2673,0.2694,0.2557,0.2261,0.2061,0.191,0.1798,0.1804,0.1809,0.1809,0.1806,0.1801,0.1817,0.1948,0.2047,0.2118,0.235,0.274,0.326,0.321,0.3331,0.3698,0.4307,0.4565,0.4147,0.3814,0.3906,0.4477,0.4772,0.5053,0.532,0.5101,0.4783,0.4509,0.4434,0.4535,0.4744,0.4115,0.3984,0.4714,0.5276,0.551,0.5702,0.6422,0.6824,0.7146,0.7815,0.8093,0.8699,0.8808,0.8808,0.8808,0.8808,0.8808,0.8808,0.8808,0.8808,0.8808,0.8808,0.8808,0.8808,0.8808,0.8808,0.8808,0.8808,0.8808,0.8808,0.8808,0.8808,0.8808,0.8808,0.8808,-1.0697,-1.0317,-1.021,-1.0235,-1.0162,-0.9642,-0.9315,-0.907,-0.8226,-0.7429,-0.6386,-0.4362,-0.296,-0.2028,-0.1107,0.0222,0.1787,0.1741,0.0984,-0.0,-0.0,-0.0,-0.0,-0.0,0.1393,0.2748,0.2071,0.1616,0.1699,0.2652,0.2651,0.1638,0.0574,-0.0,-0.0,-0.0,-0.0,-0.0,0.0067,0.0939,0.2561,0.2696,0.269,0.2679,0.2673,0.2589,0.234,0.2039,0.1816,0.1793,0.1781,0.178,0.1782,0.1801,0.179,0.179,0.1798,0.1962,0.2335,0.2442,0.2579,0.274,0.2763,0.2784,0.2852,0.2911,0.3251,0.3619,0.3685,0.3681,0.3734,0.3812,0.3917,0.398,0.3911,0.3753,0.3751,0.3709,0.3713,0.3755,0.3704,0.3663,0.3871,0.4162,0.4404,0.479,0.5101,0.5882,0.7416,0.6969,0.6899,0.8259,0.8752,0.8752,0.8804,0.8808,0.8808,0.8808,0.8808,0.8808,0.8808,0.8808,0.8808,0.8808,0.8808,0.8808,0.8808,0.8808,0.8808,0.8808,0.8808,0.8808,0.8808,0.8808,0.8808,-1.0631,-1.0625,-1.0386,-1.0322,-1.0283,-1.0079,-0.9602,-0.8958,-0.8561,-0.7848,-0.6923,-0.5682,-0.4632,-0.3658,-0.297,-0.2129,-0.1329,0.0089,0.0089,-0.0895,-0.0,-0.0,-0.0,-0.0,0.0583,0.1573,0.2386,0.2842,0.2932,0.3347,0.2615,0.1069,0.1606,0.1417,-0.0,-0.0,-0.0,-0.0,-0.0,0.0369,0.1141,0.2153,0.2696,0.2686,0.2699,0.2396,0.1821,0.1578,0.1426,0.1293,0.1281,0.1261,0.1259,0.1273,0.1261,0.1258,0.1263,0.1672,0.2492,0.26,0.2658,0.269,0.269,0.269,0.2669,0.2669,0.2946,0.3372,0.3547,0.3619,0.3605,0.3617,0.3617,0.3607,0.3615,0.358,0.358,0.358,0.358,0.358,0.358,0.358,0.3665,0.3836,0.4124,0.4478,0.4781,0.5548,0.619,0.6136,0.6799,0.7774,0.8156,0.8371,0.8643,0.8808,0.8808,0.8808,0.8808,0.8808,0.8808,0.8808,0.8808,0.8808,0.8808,0.8808,0.8808,0.8808,0.8808,0.8808,0.8808,0.8808,0.8808,0.8808,0.8808,-1.0744,-1.0688,-1.04,-1.0201,-1.0083,-1.0083,-0.9562,-0.872,-0.8557,-0.8021,-0.7231,-0.6644,-0.6039,-0.529,-0.443,-0.4041,-0.3642,-0.1862,-0.1422,-0.214,-0.1385,-0.0,-0.0491,-0.0,-0.0,-0.0,0.2068,0.2887,0.2754,0.3395,0.2524,0.1026,0.194,0.2066,0.106,0.0411,-0.0,-0.0,-0.0,-0.0,-0.0,0.1276,0.2083,0.2253,0.2085,0.1848,0.1683,0.121,0.0842,0.0663,0.065,0.0645,0.0644,0.0651,0.0659,0.0646,0.0644,0.1024,0.1911,0.2185,0.2318,0.232,0.2318,0.234,0.2365,0.2563,0.2867,0.3223,0.3453,0.358,0.358,0.358,0.358,0.358,0.358,0.358,0.358,0.358,0.358,0.358,0.358,0.362,0.3717,0.3933,0.419,0.446,0.4891,0.5095,0.4694,0.5416,0.631,0.7391,0.7503,0.7777,0.859,0.8808,0.8808,0.8808,0.8808,0.8808,0.8808,0.8808,0.8808,0.8808,0.8808,0.8808,0.8808,0.8808,0.8808,0.8808,0.8808,0.8808,0.8808,0.8808,0.8808,-1.1354,-1.0415,-1.0303,-1.0043,-0.9571,-0.9603,-0.9261,-0.8639,-0.8171,-0.7882,-0.7704,-0.7196,-0.6933,-0.6758,-0.569,-0.4998,-0.4557,-0.3718,-0.3372,-0.3475,-0.3312,-0.2777,-0.1652,-0.0,-0.0,-0.0,0.1031,0.1257,0.0492,0.2428,0.2968,0.1693,0.0818,0.132,0.2451,0.094,-0.0,-0.0,-0.0,-0.0,-0.0,0.0034,0.057,0.1138,0.0536,0.0804,0.2004,0.0921,0.0031,0.0031,0.0029,0.0028,0.0028,0.0028,0.003,-0.0033,0.0033,-0.0,-0.0,0.0938,0.1339,0.1372,0.1372,0.1373,0.1421,0.2001,0.2618,0.3076,0.3422,0.3583,0.3581,0.358,0.358,0.358,0.358,0.358,0.358,0.358,0.358,0.3581,0.3593,0.37,0.3946,0.4085,0.4277,0.4414,0.4572,0.4562,0.4537,0.4606,0.549,0.6738,0.7117,0.7179,0.8427,0.8808,0.8808,0.8752,0.8699,0.8755,0.8755,0.8808,0.8752,0.8808,0.8808,0.8808,0.8808,0.8808,0.8808,0.8808,0.8808,0.8808,0.8808,0.8808,0.8808,-1.1742,-1.1121,-1.0796,-1.0501,-1.0227,-1.0193,-0.9538,-0.8477,-0.8227,-0.7841,-0.7335,-0.7063,-0.6975,-0.6985,-0.6592,-0.6121,-0.5612,-0.4971,-0.4491,-0.413,-0.3755,-0.3358,-0.295,-0.246,-0.1833,-0.1159,-0.0714,-0.0313,0.0089,0.0897,0.1076,0.0716,0.0221,0.0515,0.0985,0.047,-0.0,-0.0,-0.1064,-0.1722,-0.1619,-0.1142,-0.0669,-0.0434,-0.1243,-0.145,-0.0774,-0.0854,-0.0845,-0.0812,-0.0827,-0.0819,-0.082,-0.0851,-0.1123,-0.1535,-0.0638,-0.0,-0.0,0.0268,0.047,0.047,0.0469,-0.0,0.0525,0.0817,0.1539,0.2771,0.3391,0.3605,0.3592,0.3583,0.358,0.358,0.358,0.358,0.358,0.358,0.358,0.3592,0.3653,0.3802,0.3982,0.4105,0.4249,0.4429,0.4462,0.451,0.4503,0.4513,0.5115,0.6359,0.6799,0.7125,0.859,0.8808,0.8752,0.8639,0.8537,0.8506,0.8513,0.854,0.8533,0.8738,0.8785,0.8699,0.8699,0.8808,0.8808,0.8808,0.8808,0.8808,0.8808,0.8808,0.8808,-1.1994,-1.1591,-1.1288,-1.0793,-1.0324,-1.0333,-0.9448,-0.8106,-0.804,-0.7647,-0.7057,-0.6975,-0.6975,-0.6975,-0.6975,-0.6813,-0.6438,-0.6036,-0.5422,-0.465,-0.3957,-0.3615,-0.358,-0.3588,-0.3179,-0.2499,-0.2368,-0.1787,-0.0715,-0.0582,-0.0582,-0.0582,-0.0582,-0.057,-0.0546,-0.0482,-0.0421,-0.0691,-0.1627,-0.2365,-0.2571,-0.2085,-0.1742,-0.1845,-0.2394,-0.2676,-0.2676,-0.2086,-0.1742,-0.1742,-0.1742,-0.1742,-0.1742,-0.1742,-0.2013,-0.2453,-0.1579,-0.0572,-0.0,-0.0,-0.0,-0.0,-0.0,-0.0,-0.0,-0.0,-0.0,0.18,0.2298,0.2614,0.3334,0.3231,0.3174,0.349,0.358,0.358,0.358,0.358,0.358,0.3607,0.3753,0.3899,0.4017,0.42,0.4345,0.4508,0.4462,0.4462,0.4462,0.4517,0.4727,0.5742,0.6079,0.6956,0.8153,0.8537,0.8318,0.8206,0.783,0.791,0.7863,0.7999,0.8224,0.8542,0.8705,0.8612,0.8646,0.8752,0.8808,0.8808,0.8808,0.8808,0.8808,0.8808,0.8808,-1.2169,-1.1714,-1.1606,-1.0866,-0.9973,-0.9847,-0.8902,-0.7791,-0.7622,-0.7429,-0.7108,-0.7005,-0.7054,-0.6979,-0.6975,-0.6975,-0.6907,-0.6822,-0.6297,-0.526,-0.4237,-0.3727,-0.3667,-0.3668,-0.3622,-0.3445,-0.3544,-0.2911,-0.1875,-0.183,-0.1786,-0.1831,-0.1786,-0.1798,-0.1802,-0.1533,-0.1343,-0.139,-0.1567,-0.1923,-0.256,-0.2595,-0.2558,-0.2593,-0.2663,-0.2698,-0.2698,-0.2626,-0.2558,-0.2593,-0.2593,-0.2661,-0.2591,-0.2558,-0.2656,-0.2651,-0.2598,-0.1754,-0.0336,-0.0,-0.0,-0.0,-0.0,-0.0,-0.0,-0.0,-0.0,-0.0,-0.0,0.0989,0.2709,0.2514,0.2409,0.3355,0.358,0.358,0.358,0.358,0.358,0.3617,0.3816,0.3997,0.4078,0.4263,0.4489,0.4453,0.4462,0.4462,0.4462,0.4462,0.4494,0.4736,0.5456,0.6684,0.7554,0.8212,0.794,0.7613,0.7182,0.6923,0.675,0.6789,0.7192,0.7549,0.8359,0.8378,0.8699,0.8808,0.8808,0.8808,0.8808,0.8808,0.8808,0.8808,0.8808,-1.2479,-1.2402,-1.1649,-1.1026,-1.0413,-0.9994,-0.9127,-0.8145,-0.8141,-0.7802,-0.7391,-0.7325,-0.7214,-0.7047,-0.6975,-0.7017,-0.6979,-0.696,-0.6614,-0.587,-0.512,-0.4515,-0.4218,-0.4136,-0.3966,-0.3667,-0.3581,-0.3404,-0.313,-0.3044,-0.3047,-0.3047,-0.3046,-0.3028,-0.3021,-0.2946,-0.2695,-0.2305,-0.2406,-0.2585,-0.2708,-0.2688,-0.2684,-0.2684,-0.2686,-0.2684,-0.2686,-0.2686,-0.2686,-0.2684,-0.2686,-0.2686,-0.2686,-0.2684,-0.2684,-0.2681,-0.2695,-0.2221,-0.1073,-0.0,-0.0,-0.0,-0.0,-0.0,-0.0,-0.0,-0.0,-0.0,-0.0,0.045,0.0988,0.1611,0.2276,0.3488,0.358,0.358,0.3581,0.3585,0.358,0.3614,0.3839,0.4026,0.4136,0.4383,0.4565,0.4513,0.4513,0.457,0.4515,0.4625,0.446,0.4551,0.5492,0.6357,0.7222,0.7824,0.7777,0.7506,0.702,0.6473,0.6138,0.5973,0.632,0.7036,0.7788,0.8325,0.8646,0.8808,0.8808,0.8808,0.8808,0.8808,0.8808,0.8808,0.8808,-1.3168,-1.2812,-1.1959,-1.1329,-1.0882,-1.0344,-0.9552,-0.8739,-0.8822,-0.8411,-0.7796,-0.7817,-0.7697,-0.7412,-0.7325,-0.744,-0.7596,-0.721,-0.6926,-0.6729,-0.6233,-0.5534,-0.4785,-0.4476,-0.4395,-0.4228,-0.401,-0.401,-0.423,-0.4236,-0.4242,-0.4244,-0.4242,-0.4238,-0.4216,-0.404,-0.3731,-0.3456,-0.3394,-0.3328,-0.3207,-0.3179,-0.3037,-0.2798,-0.3034,-0.3169,-0.3171,-0.3006,-0.2876,-0.2712,-0.2679,-0.2679,-0.2679,-0.2679,-0.2679,-0.2681,-0.2655,-0.2421,-0.1777,-0.0,-0.0,-0.0,-0.0,-0.0,-0.0,-0.0,-0.0,-0.0,-0.0,-0.0,-0.0,0.1074,0.2279,0.3488,0.358,0.358,0.3587,0.3629,0.3622,0.3673,0.389,0.4078,0.4239,0.4645,0.4718,0.461,0.4774,0.4772,0.4829,0.5171,0.5115,0.5167,0.5706,0.646,0.705,0.7382,0.761,0.7396,0.7128,0.6519,0.6074,0.5801,0.5975,0.7071,0.794,0.8431,0.8808,0.8808,0.8808,0.8808,0.8808,0.8808,0.8808,0.8808,0.8808,-1.4066,-1.2909,-1.2407,-1.179,-1.1172,-1.0657,-0.9932,-0.9297,-0.9436,-0.8963,-0.8215,-0.832,-0.8255,-0.7957,-0.7904,-0.8152,-0.8448,-0.7773,-0.7543,-0.7648,-0.7318,-0.659,-0.544,-0.4826,-0.4783,-0.5002,-0.4696,-0.4737,-0.5091,-0.5135,-0.5262,-0.5089,-0.5091,-0.5267,-0.5116,-0.4838,-0.4536,-0.437,-0.4142,-0.3948,-0.3901,-0.3926,-0.3616,-0.2932,-0.3512,-0.3928,-0.4004,-0.3562,-0.3066,-0.2744,-0.2679,-0.2679,-0.2679,-0.2679,-0.2679,-0.2681,-0.2693,-0.2593,-0.222,-0.0906,-0.0,-0.0,-0.0,-0.0,-0.0,-0.0,-0.0,-0.0,-0.0,-0.0,-0.0,0.1388,0.2508,0.3355,0.358,0.358,0.3592,0.3741,0.3726,0.3726,0.3973,0.4236,0.4259,0.4896,0.5017,0.5095,0.5479,0.5475,0.5072,0.536,0.6086,0.6367,0.6596,0.698,0.7693,0.7877,0.8049,0.7667,0.7453,0.7114,0.6455,0.6129,0.6016,0.7111,0.8043,0.8533,0.8808,0.8808,0.8808,0.8808,0.8808,0.8808,0.8808,0.8808,0.8808,-1.4641,-1.3496,-1.252,-1.1849,-1.1261,-1.0274,-0.974,-0.9592,-0.9596,-0.9209,-0.8641,-0.8806,-0.8651,-0.8109,-0.8374,-0.8561,-0.8667,-0.8659,-0.8529,-0.8525,-0.8614,-0.7559,-0.613,-0.5348,-0.5171,-0.5305,-0.5176,-0.5132,-0.5308,-0.5435,-0.5252,-0.4892,-0.5338,-0.5531,-0.5623,-0.518,-0.4761,-0.4588,-0.4334,-0.4125,-0.4104,-0.4088,-0.3886,-0.3749,-0.3918,-0.4337,-0.4734,-0.3871,-0.3099,-0.2746,-0.2679,-0.2679,-0.2679,-0.2679,-0.2679,-0.2681,-0.2656,-0.2353,-0.1642,-0.0637,-0.0,-0.0,-0.0,-0.0,-0.0,-0.0,-0.0,-0.0,-0.0,0.0674,0.216,0.2833,0.3274,0.3491,0.358,0.358,0.3602,0.3705,0.3812,0.3912,0.4061,0.4261,0.4412,0.468,0.5124,0.5751,0.6244,0.6386,0.5571,0.5851,0.6652,0.7461,0.7811,0.8027,0.8287,0.8459,0.8381,0.7996,0.7886,0.8096,0.7388,0.6848,0.6897,0.7329,0.815,0.8752,0.8808,0.8808,0.8808,0.8808,0.8808,0.8808,0.8808,0.8808,0.8808,-1.4502,-1.3737,-1.2487,-1.1865,-1.1597,-1.0374,-0.9912,-0.9999,-1.007,-0.9632,-0.9144,-0.9346,-0.9186,-0.8617,-0.8888,-0.9164,-0.9368,-0.9563,-0.9426,-0.9056,-0.8956,-0.8164,-0.7017,-0.6328,-0.6027,-0.595,-0.5779,-0.5996,-0.6334,-0.6374,-0.6259,-0.6274,-0.6307,-0.6543,-0.6793,-0.5914,-0.5624,-0.5697,-0.5273,-0.4912,-0.5036,-0.5058,-0.4809,-0.4711,-0.4662,-0.4969,-0.4913,-0.4223,-0.3588,-0.307,-0.281,-0.2679,-0.2679,-0.2679,-0.2679,-0.2679,-0.2691,-0.2285,-0.1373,-0.0,-0.0,-0.0,-0.0,-0.0,-0.0,-0.0,-0.0,-0.0,-0.0,-0.0,0.1842,0.2916,0.3496,0.358,0.358,0.358,0.3581,0.3766,0.3905,0.4038,0.4202,0.4362,0.4512,0.4734,0.5126,0.5688,0.6349,0.6202,0.5894,0.6532,0.7055,0.7632,0.8258,0.8356,0.8441,0.8563,0.8652,0.8268,0.8262,0.848,0.8209,0.7616,0.7774,0.7928,0.8477,0.8808,0.8808,0.8808,0.8808,0.8808,0.8808,0.8808,0.8808,0.8808,0.8808,-1.404,-1.3818,-1.2443,-1.1949,-1.1858,-1.0833,-1.0312,-1.0356,-1.0633,-1.0333,-0.9747,-0.9999,-1.0025,-0.9508,-0.9767,-0.9942,-1.0433,-1.0472,-1.0147,-0.9746,-0.9359,-0.8748,-0.8107,-0.746,-0.7207,-0.7133,-0.668,-0.7063,-0.7607,-0.7867,-0.796,-0.7837,-0.7878,-0.7874,-0.7569,-0.6823,-0.6855,-0.697,-0.6276,-0.5962,-0.6144,-0.6171,-0.5914,-0.5533,-0.5421,-0.5341,-0.4985,-0.4564,-0.421,-0.3486,-0.3004,-0.2779,-0.2746,-0.2679,-0.2679,-0.2681,-0.2656,-0.232,-0.1508,-0.0,-0.0,-0.0,-0.0,-0.0,-0.0,-0.0,-0.0,-0.0,-0.0,-0.0,0.0895,0.2366,0.3399,0.358,0.358,0.358,0.3632,0.3841,0.4022,0.4053,0.429,0.4429,0.4625,0.4891,0.5206,0.5064,0.5723,0.5875,0.5912,0.6367,0.6823,0.7217,0.783,0.8491,0.8576,0.8656,0.8705,0.8593,0.859,0.8699,0.8699,0.8427,0.859,0.8808,0.8808,0.8808,0.8808,0.8808,0.8808,0.8808,0.8808,0.8808,0.8808,0.8808,0.8808,-1.4701,-1.3936,-1.3227,-1.2468,-1.1687,-1.11,-1.0659,-1.0371,-1.0777,-1.092,-1.0858,-1.0833,-1.1058,-1.1416,-1.0916,-1.0981,-1.1356,-1.1362,-1.1159,-1.071,-1.0591,-0.9972,-0.927,-0.865,-0.837,-0.8259,-0.8222,-0.8345,-0.8553,-0.8622,-0.8545,-0.8565,-0.8666,-0.8226,-0.766,-0.7531,-0.7146,-0.7027,-0.6612,-0.65,-0.6605,-0.6631,-0.6493,-0.6158,-0.5761,-0.5563,-0.5474,-0.4944,-0.4532,-0.4172,-0.3623,-0.3072,-0.2779,-0.2679,-0.2679,-0.2683,-0.269,-0.2593,-0.2185,-0.0,-0.0,-0.0,-0.0,-0.0,-0.0,-0.0,-0.0,-0.0,-0.0,-0.0,0.1429,0.2725,0.3444,0.358,0.358,0.358,0.3626,0.3843,0.4027,0.415,0.4314,0.4462,0.4462,0.457,0.4672,0.4613,0.4941,0.538,0.5767,0.61,0.6258,0.6423,0.6696,0.7244,0.7964,0.8215,0.8487,0.8649,0.8755,0.8808,0.8808,0.8808,0.8808,0.8808,0.8808,0.8808,0.8808,0.8808,0.8808,0.8808,0.8808,0.8808,0.8808,0.8808,0.8808,-1.4739,-1.4275,-1.3533,-1.2859,-1.2301,-1.1684,-1.1239,-1.1079,-1.1249,-1.1511,-1.1619,-1.1506,-1.1708,-1.2119,-1.166,-1.1542,-1.1737,-1.1811,-1.1658,-1.1394,-1.1356,-1.1089,-1.07,-1.0225,-0.987,-0.9248,-0.927,-0.9464,-0.9617,-0.9497,-0.9433,-0.9506,-0.972,-0.9598,-0.8683,-0.8218,-0.8072,-0.8065,-0.7404,-0.7198,-0.7511,-0.7404,-0.694,-0.6605,-0.606,-0.5852,-0.5547,-0.5207,-0.4858,-0.4503,-0.3983,-0.3335,-0.2814,-0.2679,-0.2679,-0.2683,-0.2686,-0.2693,-0.2323,-0.1849,-0.0,-0.0638,-0.0283,-0.0,-0.0,-0.0,-0.0,-0.0,-0.0,0.2024,0.2597,0.3086,0.3535,0.358,0.358,0.358,0.3627,0.3838,0.4056,0.4223,0.4336,0.4429,0.4462,0.4462,0.4517,0.4565,0.4565,0.495,0.4895,0.5224,0.5148,0.5251,0.5414,0.5962,0.6958,0.7616,0.8215,0.8484,0.8808,0.8808,0.8808,0.8808,0.8808,0.8808,0.8808,0.8808,0.8808,0.8808,0.8808,0.8808,0.8808,0.8808,0.8808,0.8808,0.8808,-1.468,-1.4672,-1.3718,-1.3323,-1.3218,-1.249,-1.2139,-1.2139,-1.2109,-1.2318,-1.2382,-1.2216,-1.2425,-1.2478,-1.2312,-1.2145,-1.2259,-1.2193,-1.2259,-1.2062,-1.1909,-1.1763,-1.1605,-1.1583,-1.126,-1.0022,-1.0214,-1.0601,-1.0732,-1.0612,-1.0384,-1.0583,-1.1074,-1.0904,-1.0277,-0.9322,-0.8798,-0.8952,-0.8278,-0.8045,-0.8445,-0.8321,-0.7656,-0.6974,-0.6227,-0.6037,-0.5665,-0.5369,-0.5112,-0.4727,-0.425,-0.3632,-0.3109,-0.2714,-0.2679,-0.2679,-0.2683,-0.2688,-0.2695,-0.2529,-0.2193,-0.1491,-0.0931,-0.0264,-0.0,-0.0,-0.0,-0.0,0.1305,0.266,0.3462,0.3587,0.3581,0.358,0.358,0.358,0.3627,0.3824,0.3941,0.4139,0.4314,0.4446,0.4462,0.4462,0.4462,0.4462,0.4462,0.4462,0.4462,0.4513,0.4608,0.4601,0.4878,0.5586,0.6578,0.7396,0.7943,0.8484,0.8808,0.8808,0.8808,0.8808,0.8808,0.8808,0.8808,0.8808,0.8808,0.8808,0.8808,0.8808,0.8808,0.8808,0.8808,0.8808,0.8808,-1.5241,-1.4916,-1.447,-1.416,-1.3912,-1.3591,-1.3478,-1.3537,-1.3478,-1.3484,-1.3524,-1.3478,-1.3684,-1.3881,-1.3624,-1.3644,-1.3736,-1.3557,-1.3247,-1.2879,-1.2631,-1.2378,-1.2217,-1.2648,-1.2483,-1.2067,-1.1766,-1.1681,-1.1603,-1.1316,-1.135,-1.1569,-1.1875,-1.181,-1.1303,-1.0424,-0.9561,-0.9281,-0.8753,-0.8651,-0.8706,-0.8511,-0.7999,-0.725,-0.6289,-0.5926,-0.6021,-0.5617,-0.5277,-0.5119,-0.4412,-0.3991,-0.36,-0.3074,-0.2746,-0.2679,-0.2679,-0.2684,-0.2693,-0.2663,-0.263,-0.2451,-0.2067,-0.1301,-0.0,-0.0,-0.0,-0.0,-0.0,0.1437,0.3414,0.3541,0.3581,0.358,0.358,0.358,0.3614,0.369,0.3797,0.4026,0.4253,0.4462,0.4462,0.4462,0.4462,0.4462,0.4462,0.4462,0.4462,0.4462,0.4512,0.451,0.4513,0.5441,0.6426,0.7182,0.7833,0.8484,0.8808,0.8808,0.8808,0.8808,0.8808,0.8808,0.8808,0.8808,0.8808,0.8808,0.8808,0.8808,0.8808,0.8808,0.8808,0.8808,0.8808,-1.5965,-1.5577,-1.522,-1.5005,-1.4843,-1.4519,-1.4717,-1.5058,-1.4831,-1.4692,-1.4692,-1.4692,-1.4767,-1.4916,-1.4804,-1.4748,-1.4665,-1.4392,-1.4057,-1.3769,-1.3583,-1.3462,-1.3132,-1.363,-1.3677,-1.3523,-1.3281,-1.3048,-1.2875,-1.2474,-1.2364,-1.2488,-1.2667,-1.2606,-1.2182,-1.1222,-1.0473,-0.9782,-0.9204,-0.8926,-0.9058,-0.8745,-0.8155,-0.7075,-0.6404,-0.601,-0.5709,-0.5582,-0.5312,-0.5151,-0.4473,-0.4088,-0.3763,-0.3272,-0.2679,-0.2679,-0.2679,-0.2681,-0.2686,-0.2693,-0.2687,-0.2615,-0.2331,-0.1922,-0.1258,-0.0,-0.0,-0.0,-0.0,0.0716,0.2416,0.322,0.3535,0.358,0.358,0.358,0.3609,0.3664,0.3763,0.3879,0.4098,0.4339,0.4462,0.4462,0.4462,0.4462,0.4462,0.4462,0.4462,0.4462,0.4462,0.4517,0.4625,0.5496,0.6315,0.691,0.7833,0.8484,0.8808,0.8808,0.8808,0.8808,0.8808,0.8808,0.8808,0.8808,0.8808,0.8808,0.8808,0.8808,0.8808,0.8808,0.8808,0.8808,0.8808,-1.6759,-1.638,-1.6021,-1.5831,-1.5773,-1.5527,-1.5746,-1.6208,-1.5933,-1.5735,-1.5763,-1.5755,-1.5735,-1.5771,-1.5715,-1.5589,-1.5249,-1.4932,-1.4686,-1.4564,-1.4497,-1.4504,-1.4501,-1.4596,-1.4501,-1.4303,-1.462,-1.4494,-1.3927,-1.3572,-1.3389,-1.3133,-1.3152,-1.3197,-1.2845,-1.1743,-1.1209,-1.0481,-0.9717,-0.9226,-0.9145,-0.8923,-0.8186,-0.6785,-0.6433,-0.5964,-0.5762,-0.5435,-0.5344,-0.5119,-0.4602,-0.4121,-0.3891,-0.3268,-0.281,-0.2714,-0.2679,-0.2679,-0.2686,-0.27,-0.2677,-0.2678,-0.2016,-0.1951,-0.1526,-0.0573,-0.0,0.0494,0.0179,0.0759,0.2276,0.3083,0.349,0.358,0.358,0.3585,0.3609,0.3671,0.3695,0.3837,0.4023,0.4167,0.4348,0.4462,0.4462,0.4462,0.4462,0.4462,0.4462,0.4462,0.4517,0.4572,0.4899,0.5712,0.6364,0.6637,0.7613,0.8593,0.8755,0.8808,0.8808,0.8808,0.8808,0.8808,0.8808,0.8808,0.8808,0.8808,0.8808,0.8808,0.8808,0.8808,0.8808,0.8808,0.8808,-1.7427,-1.715,-1.6809,-1.6662,-1.6672,-1.662,-1.6628,-1.6753,-1.6724,-1.6654,-1.6709,-1.6656,-1.6666,-1.664,-1.6622,-1.6462,-1.6102,-1.5649,-1.5345,-1.5173,-1.5025,-1.4887,-1.469,-1.4876,-1.4984,-1.4954,-1.5352,-1.5134,-1.4683,-1.4428,-1.3965,-1.3543,-1.3494,-1.3265,-1.3264,-1.2258,-1.1271,-1.0721,-1.0065,-0.941,-0.8949,-0.8788,-0.8246,-0.7401,-0.654,-0.5937,-0.6187,-0.5833,-0.5454,-0.5279,-0.4844,-0.4385,-0.3991,-0.3528,-0.3068,-0.281,-0.2679,-0.2681,-0.2698,-0.2683,-0.2591,-0.2573,-0.2426,-0.1741,-0.0,-0.0,0.0719,0.3021,0.1474,0.1203,0.2725,0.3402,0.3581,0.3534,0.3445,0.336,0.3331,0.3114,0.3222,0.3491,0.3596,0.3945,0.4239,0.4363,0.4462,0.4462,0.4462,0.4462,0.4462,0.4462,0.4899,0.5064,0.5115,0.5873,0.6689,0.6907,0.7396,0.854,0.8755,0.8755,0.8808,0.8808,0.8808,0.8808,0.8808,0.8808,0.8808,0.8808,0.8808,0.8808,0.8808,0.8808,0.8808,0.8808,0.8808,-1.8278,-1.801,-1.7679,-1.7639,-1.7785,-1.7617,-1.7648,-1.779,-1.7828,-1.7828,-1.7828,-1.782,-1.774,-1.7553,-1.7429,-1.7126,-1.681,-1.6307,-1.6099,-1.5996,-1.5815,-1.5736,-1.5864,-1.5956,-1.5928,-1.5823,-1.5938,-1.5924,-1.5529,-1.5289,-1.4963,-1.4703,-1.4588,-1.4436,-1.386,-1.2898,-1.2167,-1.1324,-1.0183,-0.9064,-0.861,-0.829,-0.8057,-0.7824,-0.7456,-0.7214,-0.6692,-0.6541,-0.5969,-0.5625,-0.5089,-0.4837,-0.4522,-0.3948,-0.3204,-0.2746,-0.27,-0.27,-0.2693,-0.269,-0.2461,-0.2191,-0.2216,-0.1882,-0.0,-0.0,-0.0,0.1303,0.197,0.2506,0.3187,0.3549,0.359,0.3498,0.3225,0.2277,0.219,0.2505,0.2535,0.2876,0.3241,0.3632,0.405,0.4317,0.4429,0.4462,0.4462,0.4462,0.4462,0.4462,0.5064,0.5828,0.5821,0.5923,0.6797,0.7396,0.7396,0.8212,0.8702,0.8752,0.8808,0.8808,0.8808,0.8808,0.8808,0.8808,0.8808,0.8808,0.8808,0.8808,0.8808,0.8808,0.8808,0.886,0.891,-1.9009,-1.8816,-1.8401,-1.8378,-1.8576,-1.8321,-1.8329,-1.8566,-1.8538,-1.8566,-1.8566,-1.8489,-1.8322,-1.8149,-1.7824,-1.7507,-1.7256,-1.6896,-1.6769,-1.6741,-1.6781,-1.6727,-1.6625,-1.6704,-1.6704,-1.6789,-1.6466,-1.6367,-1.6246,-1.5983,-1.569,-1.5802,-1.5533,-1.535,-1.4678,-1.3547,-1.2519,-1.1468,-1.0261,-0.9323,-0.8715,-0.8047,-0.7995,-0.8272,-0.8665,-0.8644,-0.7384,-0.6975,-0.6541,-0.5924,-0.5446,-0.5221,-0.5048,-0.421,-0.3624,-0.3181,-0.3027,-0.2742,-0.2728,-0.2682,-0.2317,-0.2028,-0.1495,-0.0,-0.0,-0.0,-0.0,-0.0,0.1256,0.2334,0.2968,0.2869,0.2958,0.296,0.2962,0.1564,-0.0,-0.0,-0.0,0.164,0.2203,0.3355,0.3766,0.4217,0.4387,0.4445,0.4462,0.4462,0.4517,0.4572,0.4952,0.5716,0.615,0.6197,0.6904,0.756,0.767,0.794,0.8427,0.8699,0.8755,0.8808,0.8808,0.8808,0.8808,0.8808,0.8808,0.8808,0.8808,0.8808,0.8808,0.8808,0.8808,0.891,0.8962,-1.9374,-1.9476,-1.8842,-1.8595,-1.8614,-1.8603,-1.8585,-1.866,-1.8614,-1.8651,-1.8633,-1.841,-1.8342,-1.8196,-1.8031,-1.7738,-1.7368,-1.7583,-1.7363,-1.7239,-1.7315,-1.7345,-1.7223,-1.7035,-1.6926,-1.6909,-1.685,-1.6825,-1.6632,-1.6203,-1.5956,-1.5828,-1.5981,-1.5842,-1.5125,-1.3942,-1.2542,-1.1596,-1.0713,-1.0153,-0.9307,-0.858,-0.8219,-0.8931,-0.9541,-0.9402,-0.7702,-0.736,-0.6888,-0.6312,-0.5947,-0.5393,-0.5109,-0.4524,-0.4093,-0.3703,-0.326,-0.2987,-0.2933,-0.2796,-0.26,-0.2131,-0.0,-0.0,-0.0,-0.0,-0.0,-0.0,-0.0,0.1076,0.1297,0.1249,0.1699,0.2152,0.2155,0.1479,-0.0,-0.0,-0.0,-0.0,0.1293,0.2674,0.3632,0.4073,0.4358,0.4428,0.446,0.4462,0.468,0.4734,0.484,0.5384,0.6095,0.6583,0.7125,0.7506,0.7726,0.7996,0.8321,0.8593,0.8808,0.8808,0.8808,0.8808,0.8808,0.8808,0.8808,0.8808,0.8808,0.8808,0.8804,0.8857,0.9057,0.9263,0.9211,-1.9654,-1.9692,-1.9434,-1.9225,-1.9022,-1.904,-1.9031,-1.904,-1.9031,-1.9031,-1.9014,-1.893,-1.8807,-1.8679,-1.8613,-1.8382,-1.8081,-1.7816,-1.7828,-1.7992,-1.8123,-1.8114,-1.7897,-1.7807,-1.7859,-1.7622,-1.7484,-1.7256,-1.7052,-1.6662,-1.658,-1.6531,-1.6463,-1.6113,-1.5409,-1.4302,-1.3033,-1.2142,-1.1363,-1.0642,-1.0017,-0.9299,-0.8933,-0.9354,-0.9901,-0.9813,-0.8864,-0.8305,-0.766,-0.7037,-0.6636,-0.5938,-0.5215,-0.481,-0.4379,-0.3928,-0.3488,-0.337,-0.308,-0.2796,-0.2261,-0.1084,-0.0,-0.0,-0.0,-0.0,-0.0,-0.0,-0.0,-0.0,-0.0,-0.0,0.0538,0.1123,-0.0,-0.0,-0.0,-0.0,-0.0,-0.0,-0.0,0.2433,0.3273,0.403,0.4258,0.4409,0.4438,0.4517,0.468,0.4789,0.4895,0.5166,0.5873,0.6532,0.702,0.7456,0.7836,0.8052,0.8321,0.8537,0.8755,0.8808,0.8808,0.8808,0.8808,0.8808,0.8808,0.8808,0.8808,0.8808,0.8854,0.9008,0.926,0.9614,0.9766,-1.9824,-1.9848,-1.9813,-1.967,-1.9462,-1.9448,-1.9457,-1.9434,-1.9394,-1.9344,-1.9289,-1.9227,-1.9143,-1.9027,-1.8869,-1.877,-1.8491,-1.8321,-1.8351,-1.8465,-1.8568,-1.863,-1.86,-1.8519,-1.8353,-1.8273,-1.8123,-1.7872,-1.774,-1.7395,-1.729,-1.7213,-1.7083,-1.6659,-1.5844,-1.468,-1.3655,-1.2854,-1.2253,-1.1298,-1.0774,-1.0397,-0.9995,-1.0214,-1.0579,-1.0257,-0.9653,-0.9103,-0.8556,-0.777,-0.7104,-0.6356,-0.5609,-0.4914,-0.4468,-0.3941,-0.3615,-0.3685,-0.3381,-0.2665,-0.191,-0.1065,-0.0,-0.0,-0.0,-0.0,-0.0,-0.0,-0.0,-0.0,-0.0,-0.0,-0.0,-0.0,-0.0,-0.0,-0.0,-0.0,-0.0,-0.0,-0.0,0.2304,0.3205,0.3964,0.4265,0.4406,0.4443,0.4462,0.4517,0.4625,0.4732,0.5111,0.5708,0.631,0.6861,0.7616,0.8265,0.8321,0.8537,0.854,0.8702,0.8755,0.8808,0.8808,0.8808,0.8808,0.8808,0.8808,0.8808,0.8808,0.9008,0.9361,0.9714,1.0115,1.0618,-1.9881,-1.9983,-1.9869,-1.9802,-1.9783,-1.9788,-1.9764,-1.9728,-1.9621,-1.9495,-1.935,-1.9189,-1.911,-1.9043,-1.8938,-1.8869,-1.8834,-1.877,-1.8769,-1.8788,-1.8868,-1.8758,-1.8733,-1.8725,-1.8771,-1.8642,-1.8561,-1.8534,-1.8484,-1.8209,-1.8026,-1.7782,-1.7572,-1.7069,-1.6318,-1.5117,-1.4018,-1.3192,-1.3107,-1.246,-1.1798,-1.152,-1.1273,-1.1068,-1.1148,-1.0748,-1.0094,-0.9737,-0.9076,-0.8136,-0.7623,-0.6854,-0.5902,-0.514,-0.4493,-0.3803,-0.3491,-0.3468,-0.3502,-0.2487,-0.2002,-0.1828,-0.1744,-0.1475,-0.0492,-0.0,-0.0,-0.0,-0.0,-0.0,-0.0,-0.0,-0.0,-0.0,-0.0,-0.0,-0.0,-0.0,-0.0,-0.0,-0.0,0.2187,0.3181,0.3912,0.4226,0.4406,0.4446,0.4462,0.4462,0.4517,0.4624,0.4948,0.5544,0.6202,0.6912,0.8046,0.8695,0.8699,0.8646,0.854,0.8593,0.8755,0.8808,0.8808,0.8808,0.8808,0.8808,0.8811,0.9061,0.9361,0.9614,0.9913,1.0214,1.0614,1.112,-2.0157,-2.0195,-2.0141,-2.0155,-2.0161,-1.9886,-1.9809,-1.9797,-1.975,-1.9692,-1.9632,-1.9544,-1.9526,-1.9481,-1.943,-1.935,-1.9359,-1.9316,-1.9286,-1.9277,-1.9282,-1.9312,-1.9264,-1.9191,-1.9194,-1.9146,-1.9118,-1.9,-1.8848,-1.8723,-1.861,-1.8398,-1.7911,-1.7197,-1.6402,-1.5527,-1.4815,-1.4093,-1.3743,-1.3211,-1.2357,-1.2242,-1.2033,-1.1536,-1.1457,-1.1041,-1.0399,-1.0162,-0.9381,-0.8472,-0.7987,-0.7237,-0.6277,-0.5504,-0.5005,-0.4258,-0.3795,-0.352,-0.3571,-0.317,-0.3041,-0.2954,-0.2821,-0.2641,-0.2373,-0.0717,-0.0,-0.0,-0.0,-0.0,-0.0,-0.0,-0.0,-0.0,-0.0,-0.0,-0.0,-0.0,-0.0,-0.0,-0.0,0.2857,0.3492,0.3958,0.4312,0.4407,0.4505,0.446,0.4462,0.4462,0.457,0.4842,0.533,0.6039,0.691,0.788,0.859,0.8752,0.8484,0.8215,0.8374,0.8752,0.8808,0.8808,0.8808,0.8808,0.9061,0.9364,0.9718,1.0068,1.0423,1.0669,1.1015,1.1371,1.1729,-2.033,-2.0331,-2.0343,-2.0346,-2.0324,-2.0083,-1.9974,-1.9936,-1.9906,-1.9875,-1.9821,-1.9804,-1.9797,-1.9797,-1.9809,-1.9809,-1.9788,-1.9704,-1.9673,-1.9684,-1.967,-1.9633,-1.9649,-1.9679,-1.9561,-1.9548,-1.9538,-1.9432,-1.9319,-1.9143,-1.8974,-1.8708,-1.8286,-1.7659,-1.6872,-1.6181,-1.5475,-1.4893,-1.4495,-1.4005,-1.3352,-1.2942,-1.2606,-1.2212,-1.1827,-1.1281,-1.089,-1.0326,-0.9593,-0.891,-0.8226,-0.7527,-0.6634,-0.595,-0.5427,-0.4655,-0.3966,-0.3665,-0.3578,-0.3578,-0.3447,-0.3498,-0.3593,-0.3592,-0.3498,-0.2237,-0.1656,-0.0,-0.112,-0.0,-0.0,-0.0,-0.0,-0.0,-0.0,-0.0,-0.0,-0.0,0.1165,0.2514,0.3179,0.3463,0.3716,0.4022,0.4355,0.4407,0.4506,0.4512,0.457,0.457,0.457,0.4734,0.506,0.5714,0.6529,0.745,0.8153,0.8699,0.8537,0.8268,0.8427,0.8808,0.8808,0.8906,0.926,0.9562,0.9666,0.9917,1.032,1.0876,1.1434,1.1629,1.1819,1.203,1.2295,-2.0385,-2.0385,-2.0385,-2.0363,-2.0314,-2.0287,-2.0253,-2.0181,-2.0133,-2.0051,-1.9926,-1.9895,-1.9904,-1.9869,-1.9847,-1.9869,-1.9878,-1.9847,-1.9836,-1.9813,-1.9809,-1.9802,-1.9813,-1.9804,-1.9815,-1.9824,-1.9824,-1.9828,-1.979,-1.9574,-1.9328,-1.9066,-1.8717,-1.822,-1.7583,-1.6946,-1.6177,-1.5626,-1.5205,-1.4699,-1.41,-1.3598,-1.3219,-1.2773,-1.2283,-1.1681,-1.1223,-1.0743,-0.9928,-0.9266,-0.8635,-0.7679,-0.6797,-0.6079,-0.5478,-0.479,-0.406,-0.3838,-0.3707,-0.3751,-0.3622,-0.3626,-0.3581,-0.358,-0.349,-0.3176,-0.2864,-0.2865,-0.2733,-0.1655,-0.0,-0.0,-0.0,-0.0,-0.0,-0.0,-0.0,0.3014,0.2599,0.3042,0.3471,0.376,0.3987,0.4204,0.4385,0.4458,0.4551,0.4893,0.4897,0.484,0.4732,0.457,0.4952,0.5389,0.6256,0.7343,0.8103,0.8755,0.8808,0.859,0.8752,0.8808,0.8808,0.911,0.9965,1.0364,1.0517,1.0669,1.0969,1.1529,1.2152,1.2201,1.2241,1.2456,1.2725,-2.0321,-2.0332,-2.032,-2.0351,-2.0361,-2.036,-2.0321,-2.0282,-2.0307,-2.0288,-2.0247,-2.0233,-2.0189,-2.0221,-2.0181,-2.0159,-2.015,-2.0138,-2.0085,-2.0049,-1.9974,-1.9983,-1.9983,-1.9974,-2.0022,-2.0097,-2.0134,-2.0125,-2.0079,-1.9908,-1.9673,-1.9433,-1.9081,-1.8771,-1.8419,-1.7924,-1.706,-1.6341,-1.5982,-1.5403,-1.4791,-1.4248,-1.3801,-1.3289,-1.2513,-1.1917,-1.1531,-1.0873,-1.006,-0.9434,-0.8878,-0.8136,-0.7569,-0.6933,-0.6295,-0.5262,-0.4694,-0.4337,-0.4216,-0.4176,-0.4049,-0.3751,-0.3667,-0.3624,-0.358,-0.358,-0.3583,-0.3585,-0.3588,-0.2594,-0.1833,-0.1251,0.0268,0.1433,0.1297,0.1701,0.3146,0.3508,0.3141,0.3298,0.374,0.3907,0.4092,0.4317,0.4426,0.4481,0.465,0.5105,0.5277,0.5166,0.5001,0.4785,0.5169,0.5769,0.6529,0.7619,0.8212,0.8755,0.8755,0.8808,0.8808,0.8808,0.8808,0.9211,0.9913,1.0712,1.1362,1.1466,1.1321,1.2103,1.2676,1.2671,1.2715,1.2827,1.2886,-2.0324,-2.0329,-2.0342,-2.036,-2.0342,-2.0313,-2.0291,-2.0316,-2.0348,-2.0367,-2.0357,-2.0355,-2.037,-2.0326,-2.0286,-2.0274,-2.0278,-2.026,-2.0237,-2.0231,-2.0178,-2.0208,-2.0192,-2.0175,-2.0228,-2.0305,-2.0331,-2.0302,-2.0272,-2.0109,-1.9877,-1.966,-1.9354,-1.9204,-1.8952,-1.8571,-1.808,-1.7369,-1.6772,-1.6154,-1.5554,-1.4998,-1.445,-1.3809,-1.2879,-1.2247,-1.1763,-1.0948,-1.0298,-0.9597,-0.8999,-0.8435,-0.8002,-0.751,-0.7346,-0.6443,-0.5979,-0.5535,-0.5196,-0.4863,-0.448,-0.4094,-0.3878,-0.3794,-0.3665,-0.358,-0.358,-0.3581,-0.3583,-0.3404,-0.2909,-0.2101,0.0535,0.3057,0.2645,0.2191,0.2821,0.3499,0.3591,0.3653,0.3832,0.4,0.4177,0.4353,0.4508,0.4595,0.492,0.5485,0.5655,0.5599,0.538,0.5111,0.5658,0.6258,0.7074,0.7673,0.8212,0.8646,0.8755,0.8808,0.8808,0.8959,0.911,0.9413,0.9762,1.0767,1.1828,1.162,1.1579,1.2363,1.2886,1.2832,1.2827,1.2881,1.2886,-2.0365,-2.0346,-2.0346,-2.0277,-2.0247,-2.0125,-2.0154,-2.0272,-2.0266,-2.0294,-2.0295,-2.0329,-2.0332,-2.0322,-2.0312,-2.0299,-2.03,-2.0297,-2.0323,-2.0383,-2.0375,-2.0373,-2.0341,-2.0383,-2.0319,-2.0352,-2.0377,-2.0351,-2.0351,-2.0214,-2.0015,-1.9809,-1.9675,-1.9513,-1.9308,-1.91,-1.8726,-1.8398,-1.7753,-1.7132,-1.6566,-1.6025,-1.5396,-1.477,-1.3736,-1.2734,-1.2025,-1.1303,-1.0629,-0.982,-0.9151,-0.8671,-0.8167,-0.807,-0.8021,-0.8058,-0.752,-0.6836,-0.6225,-0.5754,-0.5034,-0.4648,-0.4387,-0.4051,-0.3796,-0.3622,-0.358,-0.3581,-0.3583,-0.3587,-0.3226,-0.2734,-0.0848,0.2012,0.3142,0.2954,0.3222,0.3602,0.3653,0.3737,0.3887,0.4051,0.4147,0.4368,0.4501,0.4645,0.5027,0.5703,0.6369,0.631,0.598,0.5762,0.6522,0.7069,0.7074,0.7723,0.8209,0.8533,0.8699,0.8808,0.8808,0.9061,0.9465,1.0072,1.0728,1.1438,1.2147,1.1886,1.1886,1.252,1.2886,1.2886,1.2886,1.2886,1.2886,-2.0149,-2.009,-1.9974,-1.9926,-1.9905,-1.9883,-1.9954,-2.0056,-2.0068,-2.0179,-2.0336,-2.0367,-2.0354,-2.0357,-2.0318,-2.0292,-2.0297,-2.0301,-2.0322,-2.0351,-2.0399,-2.0399,-2.0352,-2.0349,-2.0332,-2.0316,-2.0329,-2.0355,-2.0354,-2.0264,-2.0175,-2.0075,-1.9921,-1.9753,-1.9683,-1.9468,-1.9247,-1.9139,-1.8628,-1.7897,-1.7208,-1.6441,-1.5739,-1.49,-1.3873,-1.3128,-1.2495,-1.1953,-1.1335,-1.0667,-1.0147,-0.9275,-0.817,-0.8402,-0.8533,-0.8662,-0.9022,-0.8299,-0.7342,-0.6603,-0.5888,-0.4949,-0.4434,-0.4094,-0.3794,-0.3667,-0.358,-0.3583,-0.3539,-0.3496,-0.3409,-0.296,-0.2103,0.0847,0.3595,0.3587,0.358,0.362,0.3666,0.3787,0.3933,0.408,0.417,0.4333,0.4462,0.4765,0.515,0.5925,0.7255,0.7586,0.6964,0.6907,0.7714,0.8099,0.7777,0.7833,0.8371,0.8586,0.8752,0.8808,0.8857,0.9695,1.0526,1.1255,1.1954,1.226,1.2304,1.2089,1.2246,1.2725,1.2886,1.2886,1.2886,1.2886,1.2886,-1.9888,-1.9882,-1.9764,-1.975,-1.9767,-1.9738,-1.9788,-1.9901,-1.9902,-2.0002,-2.0147,-2.0279,-2.0353,-2.0353,-2.0308,-2.0276,-2.0278,-2.0295,-2.0326,-2.0348,-2.0329,-2.0365,-2.0345,-2.0316,-2.0357,-2.0348,-2.034,-2.0351,-2.035,-2.0335,-2.0269,-2.0225,-2.009,-2.0014,-1.9998,-1.9772,-1.9618,-1.9602,-1.9201,-1.8618,-1.7843,-1.712,-1.6153,-1.5198,-1.4377,-1.3591,-1.2794,-1.2294,-1.1934,-1.1271,-1.057,-0.9709,-0.8903,-0.8829,-0.9292,-0.9725,-0.9936,-0.9649,-0.8415,-0.7487,-0.6742,-0.5679,-0.5216,-0.5094,-0.4445,-0.4274,-0.3622,-0.3535,-0.2725,-0.2592,-0.286,-0.2636,-0.174,0.0401,0.2593,0.3592,0.3583,0.3597,0.3622,0.3668,0.3836,0.4027,0.4127,0.4346,0.4464,0.4754,0.5198,0.6485,0.7761,0.8472,0.7958,0.778,0.8371,0.8368,0.7827,0.8046,0.8643,0.8752,0.8804,0.9162,0.9521,1.0751,1.1698,1.2099,1.2363,1.2412,1.2403,1.2295,1.2403,1.2827,1.2886,1.2886,1.2934,1.2934,1.2934,-1.9649,-1.9716,-1.9604,-1.964,-1.9726,-1.9613,-1.9653,-1.9752,-1.9786,-1.9788,-1.9869,-2.0125,-2.0216,-2.0225,-2.0233,-2.0229,-2.0243,-2.0266,-2.0317,-2.0243,-2.0225,-2.0219,-2.0254,-2.0303,-2.0322,-2.0338,-2.034,-2.0337,-2.0336,-2.0316,-2.0298,-2.0291,-2.0274,-2.023,-2.0181,-2.0075,-1.9952,-1.9859,-1.9604,-1.9332,-1.8696,-1.7983,-1.6881,-1.5886,-1.4998,-1.4063,-1.3281,-1.2632,-1.2407,-1.1819,-1.1132,-1.0369,-0.9973,-0.9843,-1.0079,-1.0563,-1.0557,-1.006,-0.9226,-0.8484,-0.7498,-0.6631,-0.6471,-0.6039,-0.5386,-0.4744,-0.414,-0.3607,-0.28,-0.2317,-0.2629,-0.2499,-0.1604,-0.0178,0.1829,0.3457,0.3494,0.3541,0.36,0.3617,0.3805,0.3956,0.4185,0.4353,0.456,0.4798,0.5742,0.7147,0.8271,0.8516,0.8437,0.8265,0.859,0.8368,0.7937,0.8259,0.8857,0.891,0.9012,0.9566,1.0182,1.1082,1.1913,1.2607,1.2779,1.272,1.2725,1.2725,1.2832,1.2881,1.2886,1.2934,1.2978,1.3027,1.3027,-1.9518,-1.9381,-1.9365,-1.938,-1.94,-1.9356,-1.9462,-1.9613,-1.9636,-1.9695,-1.9731,-1.9821,-1.9897,-1.9878,-1.9899,-1.9923,-2.0022,-2.0136,-2.0057,-1.9924,-1.9926,-1.9991,-2.0064,-2.0119,-2.019,-2.0221,-2.0245,-2.0289,-2.024,-2.0234,-2.0294,-2.0337,-2.036,-2.0341,-2.0345,-2.0257,-2.0186,-2.0092,-1.9976,-1.9721,-1.9134,-1.8422,-1.7722,-1.6865,-1.6061,-1.5446,-1.4748,-1.3683,-1.3185,-1.2619,-1.2008,-1.1318,-1.1025,-1.1004,-1.1196,-1.1079,-1.1079,-1.0489,-0.9783,-0.9288,-0.835,-0.7248,-0.7078,-0.7061,-0.6383,-0.5722,-0.5293,-0.5201,-0.4407,-0.3465,-0.3431,-0.3317,-0.2553,-0.0312,0.1787,0.2684,0.3132,0.3428,0.3639,0.3751,0.387,0.4116,0.4361,0.4458,0.4477,0.4925,0.569,0.7147,0.8467,0.8645,0.8808,0.8808,0.8808,0.8804,0.859,0.858,0.8956,0.9008,0.9364,1.0119,1.0775,1.1183,1.195,1.2676,1.2886,1.2832,1.2886,1.2886,1.2886,1.2886,1.2886,1.2934,1.3022,1.3157,1.32]},{"header":{"parameterUnit":"m.s-1","parameterCategory":1,"la1":31.0,"la2":29.5877,"lo1":-88.7671,"lo2":-86.6584,"dy":0.0162,"dx":0.0185,"nx":115,"ny":88,"refTime":"2024-06-14T18:00:00:Z","depth":0,"parameterNumber":3,"parameterNumberName":"V-component_of_WINDS"},"data":[0.0,0.0,0.0,0.0,0.0,0.0,0.0,0.0,0.0,0.0,0.0,0.0,0.0,0.0,0.0,0.0,0.0,0.0,0.0,0.0,0.0,0.0,0.0,0.0,0.0,0.0,0.0,0.0,0.0,0.0,0.0,0.0,0.0,0.0,0.0,0.0,0.0,0.0,0.0,0.0,0.0,0.0,0.0,0.0,0.0,0.0,0.0,0.0,0.0,0.0,0.0,0.0,0.0,0.0,0.0,0.0,0.0,0.0,0.0,0.0,0.0,0.0,0.0,0.0,0.0,0.0,0.0,0.0,0.0,0.0,0.0,0.0,0.0,0.0,0.0,0.0,0.0,0.0,0.0,0.0,0.0,0.0,0.0,0.0,0.0,0.0,0.0,0.0,0.0,0.0,0.0,0.0,0.0,0.0,0.0,0.0,0.0,0.0,0.0,0.0,0.0,0.0,0.0,0.0,0.0,0.0,0.0,0.0,0.0,0.0,0.0,0.0,0.0,0.0,0.0,0.0,0.0,0.0,0.0,0.0,0.0,0.0,0.0,0.0,0.0,0.0,0.0,0.0,0.0,0.0,0.0,0.0,0.0,0.0,0.0,0.0,0.0,0.0,0.0,0.0,0.0,0.0,0.0,0.0,0.0,0.0,0.0,0.0,0.0,0.0,0.0,0.0,0.0,0.0,0.0,0.0,0.0,0.0,0.0,0.0,0.0,0.0,0.0,0.0,0.0,0.0,0.0,0.0,0.0,0.0,0.0,0.0,0.0,0.0,0.0,0.0,0.0,0.0,0.0,0.0,0.0,0.0,0.0,0.0,0.0,0.0,0.0,0.0,0.0,0.0,0.0,0.0,0.0,0.0,0.0,0.0,0.0,0.0,0.0,0.0,0.0,0.0,0.0,0.0,0.0,0.0,0.0,0.0,0.0,0.0,0.0,0.0,0.0,0.0,0.0,0.0,0.0,0.0,0.0,0.0,0.0,0.0,0.0,0.0,0.0,0.0,0.0,0.0,0.0,0.0,0.0,0.0,0.0,0.0,0.0,0.0,0.0,0.0,0.0,0.0,0.0,0.0,0.0,0.0,0.0,0.0,0.0,0.0,0.0,0.0,0.0,0.0,0.0,0.0,0.0,0.0,0.0,0.0,0.0,0.0,0.0,0.0,0.0,0.0,0.0,0.0,0.0,0.0,0.0,0.0,0.0,0.0,0.0,0.0,0.0,0.0,0.0,0.0,0.0,0.0,0.0,0.0,0.0,0.0,0.0,0.0,0.0,0.0,0.0,0.0,0.0,0.0,0.0,0.0,0.0,0.0,0.0,0.0,0.0,0.0,0.0,0.0,0.0,0.0,0.0,0.0,0.0,0.0,0.0,0.0,0.0,0.0,0.0,0.0,0.0,0.0,0.0,0.0,0.0,0.0,0.0,0.0,0.0,0.0,0.0,0.0,0.0,0.0,0.0,0.0,0.0,0.0,0.0,0.0,0.0,0.0,0.0,0.0,0.0,0.0,0.0,0.0,0.0,0.0,0.0,0.0,0.0,0.0,0.0,0.0,0.0,0.0,0.0,0.0,0.0,0.0,0.0,0.0,0.0,0.0,0.0,0.0,0.0,0.0,0.0,0.0,0.0,0.0,0.0,0.0,0.0,0.0,0.0,0.0,0.0,0.0,0.0,0.0,0.0,0.0,0.0,0.0,0.0,0.0,0.0,0.0,0.0,0.0,0.0,0.0,0.0,0.0,0.0,0.0,0.0,0.0,0.0,0.0,0.0,0.0,0.0,0.0,0.0,0.0,0.0,0.0,0.0,0.0,0.0,0.0,0.0,0.0,0.0,0.0,0.0,0.0,0.0,0.0,0.0,0.0,0.0,0.0,0.0,0.0,0.0,0.0,0.0,0.0,0.0,0.0,0.0,0.0,0.0,0.0,0.0,0.0,0.0,0.0,0.0,0.0,0.0,0.0,0.0,0.0,0.0,0.0,0.0,0.0,0.0,0.0,0.0,0.0,0.0,0.0,0.0,0.0,0.0,0.0,0.0,0.0,0.0,0.0,0.0,0.0,0.0,0.0,0.0,0.0,0.0,0.0,0.0,0.0,0.0,0.0,0.0,0.0,0.0,0.0,0.0,0.0,0.0,0.0,0.0,0.0,0.0,0.0,0.0,0.0,0.0,0.0,0.0,0.0,0.0,0.0,0.0,0.0,0.0,0.0,0.0,0.0,0.0,0.0,0.0,0.0,0.0,0.0,0.0,0.0,0.0,0.0,0.0,0.0,0.0,0.0,0.0,0.0,0.0,0.0,0.0,0.0,0.0,0.0,0.0,0.0,0.0,0.0,0.0,0.0,0.0,0.0,0.0,0.0,0.0,0.0,0.0,0.0,0.0,0.0,0.0,0.0,0.0,0.0,0.0,0.0,0.0,0.0,0.0,0.0,0.0,0.0,0.0,0.0,0.0,0.0,0.0,0.0,0.0,0.0,0.0,0.0,0.0,0.0,0.0,0.0,0.0,0.0,0.0,0.0,0.0,0.0,0.0,0.0,0.0,0.0,0.0,0.0,0.0,0.0,0.0,0.0,0.0,0.0,0.0,0.0,0.0,0.0,0.0,0.0,0.0,0.0,0.0,0.0,0.0,0.0,0.0,0.0,0.0,0.0,0.0,0.0,0.0,0.0,0.0,0.0,0.0,0.0,0.0,0.0,0.0,0.0,0.0,0.0,0.0,0.0,0.0,0.0,0.0,0.0,0.0,0.0,0.0,0.0,0.0,0.0,0.0,0.0,0.0,0.0,0.0,0.0,0.0,0.0,0.0,0.0,0.0,0.0,0.0,0.0,0.0,0.0,0.0,0.0,0.0,0.0,0.0,0.0,0.0,0.0,0.0,0.0,0.0,0.0,0.0,0.0,0.0,0.0,0.0,0.0,0.0,0.0,0.0,0.0,0.0,0.0,0.0,0.0,0.0,0.0,0.0,0.0,0.0,0.0,0.0,0.0,0.0,0.0,0.0,0.0,0.0,0.0,0.0,0.0,0.0,0.0,0.0,0.0,0.0,0.0,0.0,0.0,0.0,0.0,0.0,0.0,0.0,0.0,0.0,0.0,0.0,0.0,0.0,0.0,0.0,0.0,0.0,0.0,0.0,0.0,0.0,0.0,0.0,0.0,0.0,0.0,0.0,0.0,0.0,0.0,0.0,0.0,0.0,0.0,0.0,0.0,0.0,0.0,0.0,0.0,0.0,0.0,0.0,0.0,0.0,0.0,0.0,0.0,0.0,0.0,0.0,0.0,0.0,0.0,0.0,0.0,0.0,0.0,0.0,0.0,0.0,0.0,0.0,0.0,0.0,0.0,0.0,0.0,0.0,0.0,0.0,0.0,0.0,0.0,0.0,0.0,0.0,0.0,0.0,0.0,0.0,0.0,0.0,0.0,0.0,0.0,0.0,0.0,0.0,0.0,0.0,0.0,0.0,0.0,0.0,0.0,0.0,0.0,0.0,0.0,0.0,0.0,0.0,0.0,0.0,0.0,0.0,0.0,0.0,0.0,0.0,0.0,0.0,0.0,0.0,0.0,0.0,0.0,0.0,0.0,0.0,0.0,0.0,0.0,0.0,0.0,0.0,0.0,0.0,0.0,0.0,0.0,0.0,0.0,0.0,0.0,0.0,0.0,0.0,0.0,0.0,0.0,0.0,0.0,0.0,0.0,0.0,0.0,0.0,0.0,0.0,0.0,0.0,0.0,0.0,0.0,0.0,0.0,0.0,0.0,0.0,0.0,0.0,0.0,0.0,0.0,0.0,0.0,0.0,0.0,0.0,0.0,0.0,0.0,0.0,0.0,0.0,0.0,0.0,0.0,0.0,0.0,0.0,0.0,0.0,0.0,0.0,0.0,0.0,0.0,0.0,0.0,0.0,0.0,0.0,0.0,0.0,0.0,0.0,0.0,0.0,0.0,0.0,0.0,0.0,0.0,0.0,0.0,0.0,0.0,0.0,0.0,0.0,0.0,0.0,0.0,0.0,0.0,0.0,0.0,0.0,0.0,0.0,0.0,0.0,0.0,0.0,0.0,0.0,0.0,0.0,0.0,0.0,0.0,0.0,0.0,0.0,0.0,0.0,0.0,0.0,0.0,0.0,0.0,0.0,0.0,0.0,0.0,0.0,0.0,0.0,0.0,0.0,0.0,0.0,0.0,0.0,0.0,0.0,0.0,0.0,0.0,0.0,0.0,0.0,0.0,0.0,0.0,0.0,0.0,0.0,0.0,0.0,0.0,0.0,0.0,0.0,0.0,-1.0104,0.0,0.0,0.0,0.0,0.0,0.0,0.0,0.0,0.0,0.0,0.0,0.0,0.0,0.0,0.0,0.0,0.0,0.0,0.0,0.0,0.0,0.0,0.0,0.0,0.0,0.0,0.0,0.0,0.0,0.0,0.0,0.0,0.0,0.0,0.0,0.0,0.0,0.0,0.0,0.0,0.0,0.0,0.0,0.0,0.0,0.0,0.0,0.0,0.0,0.0,0.0,0.0,0.0,0.0,0.0,0.0,0.0,0.0,0.0,0.0,0.0,0.0,0.0,0.0,0.0,0.0,0.0,0.0,0.0,0.0,0.0,0.0,0.0,0.0,0.0,0.0,0.0,0.0,0.0,0.0,0.0,0.0,0.0,0.0,0.0,0.0,0.0,0.0,0.0,0.0,0.0,0.0,0.0,0.0,0.0,0.0,0.0,0.0,0.0,0.0,0.0,0.0,0.0,0.0,0.0,0.0,0.0,0.0,0.0,0.0,-1.0196,-1.0194,-1.0194,-1.0194,-1.0165,0.0,0.0,0.0,0.0,0.0,0.0,0.0,0.0,0.0,0.0,0.0,0.0,0.0,0.0,0.0,0.0,0.0,0.0,0.0,0.0,0.0,0.0,0.0,0.0,0.0,0.0,0.0,0.0,0.0,0.0,0.0,0.0,0.0,0.0,0.0,0.0,0.0,0.0,0.0,0.0,0.0,0.0,0.0,0.0,0.0,0.0,0.0,0.0,0.0,0.0,0.0,0.0,0.0,0.0,0.0,0.0,0.0,0.0,0.0,0.0,0.0,0.0,0.0,0.0,0.0,0.0,0.0,0.0,0.0,0.0,0.0,0.0,0.0,0.0,0.0,0.0,0.0,0.0,0.0,0.0,0.0,0.0,0.0,0.0,0.0,0.0,0.0,0.0,0.0,0.0,0.0,0.0,0.0,0.0,0.0,0.0,0.0,0.0,0.0,0.0,0.0,0.0,0.0,0.0,0.0,0.0,0.0,0.0,0.0,0.0,0.0,0.0,-1.0489,-1.0486,-1.0476,0.0,0.0,0.0,0.0,0.0,0.0,0.0,0.0,0.0,0.0,0.0,0.0,0.0,0.0,0.0,0.0,0.0,0.0,0.0,0.0,0.0,0.0,0.0,0.0,0.0,0.0,0.0,0.0,0.0,0.0,0.0,0.0,0.0,0.0,0.0,0.0,0.0,0.0,0.0,0.0,0.0,0.0,0.0,0.0,0.0,0.0,0.0,0.0,0.0,0.0,0.0,0.0,0.0,0.0,0.0,0.0,0.0,0.0,0.0,0.0,0.0,0.0,0.0,0.0,0.0,0.0,0.0,0.0,0.0,0.0,0.0,0.0,0.0,0.0,0.0,0.0,0.0,0.0,0.0,0.0,0.0,0.0,0.0,0.0,0.0,0.0,0.0,0.0,0.0,0.0,0.0,0.0,0.0,0.0,0.0,0.0,0.0,0.0,0.0,0.0,0.0,0.0,0.0,0.0,0.0,0.0,0.0,0.0,0.0,0.0,-1.0631,-1.1353,-1.137,0.0,-1.1293,0.0,0.0,0.0,0.0,0.0,0.0,0.0,0.0,0.0,0.0,0.0,0.0,0.0,0.0,0.0,0.0,0.0,0.0,0.0,0.0,0.0,0.0,0.0,0.0,0.0,0.0,0.0,0.0,0.0,0.0,0.0,0.0,0.0,0.0,0.0,0.0,0.0,0.0,0.0,0.0,0.0,0.0,0.0,0.0,0.0,0.0,0.0,0.0,0.0,0.0,0.0,0.0,0.0,0.0,0.0,0.0,0.0,0.0,0.0,0.0,0.0,0.0,0.0,0.0,0.0,0.0,0.0,0.0,0.0,0.0,0.0,0.0,0.0,0.0,0.0,0.0,0.0,0.0,0.0,0.0,0.0,0.0,0.0,0.0,0.0,0.0,0.0,0.0,0.0,0.0,0.0,0.0,0.0,0.0,0.0,0.0,0.0,0.0,0.0,0.0,0.0,0.0,0.0,0.0,0.0,0.0,0.0,0.0,0.0,0.0,0.0,-1.1496,-1.1507,-1.1473,0.0,0.0,0.0,0.0,0.0,0.0,0.0,0.0,0.0,0.0,0.0,0.0,0.0,0.0,0.0,0.0,0.0,0.0,0.0,0.0,0.0,0.0,0.0,0.0,0.0,0.0,0.0,0.0,0.0,0.0,0.0,0.0,0.0,0.0,0.0,0.0,0.0,0.0,0.0,0.0,0.0,0.0,0.0,0.0,0.0,0.0,0.0,0.0,0.0,0.0,0.0,0.0,0.0,0.0,0.0,0.0,0.0,0.0,0.0,0.0,0.0,0.0,0.0,0.0,0.0,0.0,0.0,0.0,0.0,0.0,0.0,0.0,0.0,0.0,0.0,0.0,0.0,0.0,0.0,0.0,0.0,0.0,0.0,0.0,0.0,0.0,0.0,0.0,0.0,0.0,0.0,0.0,0.0,0.0,0.0,0.0,0.0,0.0,0.0,0.0,0.0,0.0,0.0,0.0,0.0,0.0,0.0,0.0,0.0,0.0,-1.0816,0.0,-1.1731,-1.1566,-1.133,-1.1067,0.0,0.0,0.0,0.0,0.0,0.0,0.0,0.0,0.0,0.0,0.0,0.0,0.0,0.0,0.0,0.0,0.0,0.0,0.0,0.0,0.0,0.0,0.0,0.0,0.0,0.0,0.0,0.0,0.0,0.0,0.0,0.0,0.0,0.0,0.0,0.0,0.0,0.0,0.0,0.0,0.0,0.0,0.0,0.0,0.0,0.0,0.0,0.0,0.0,0.0,0.0,0.0,0.0,0.0,0.0,0.0,0.0,0.0,0.0,0.0,0.0,0.0,0.0,0.0,0.0,0.0,0.0,0.0,0.0,0.0,0.0,0.0,0.0,0.0,0.0,0.0,0.0,0.0,0.0,0.0,0.0,0.0,0.0,0.0,0.0,0.0,0.0,0.0,0.0,0.0,0.0,0.0,0.0,0.0,0.0,0.0,0.0,0.0,0.0,0.0,0.0,0.0,0.0,0.0,0.0,0.0,0.0,0.0,0.0,-1.0419,-1.0831,-1.2372,-1.17,-1.0982,0.0,0.0,0.0,0.0,0.0,0.0,0.0,0.0,0.0,0.0,0.0,0.0,0.0,0.0,0.0,0.0,0.0,0.0,0.0,0.0,0.0,0.0,0.0,0.0,0.0,0.0,0.0,0.0,0.0,0.0,0.0,0.0,0.0,0.0,0.0,0.0,0.0,0.0,0.0,0.0,0.0,0.0,0.0,0.0,0.0,0.0,0.0,0.0,0.0,0.0,0.0,0.0,0.0,0.0,0.0,0.0,0.0,0.0,0.0,0.0,0.0,0.0,0.0,0.0,0.0,0.0,0.0,0.0,0.0,0.0,0.0,0.0,0.0,0.0,0.0,0.0,0.0,0.0,0.0,0.0,0.0,0.0,0.0,0.0,0.0,0.0,0.0,0.0,0.0,0.0,0.0,0.0,0.0,0.0,0.0,0.0,0.0,0.0,0.0,0.0,0.0,0.0,0.0,0.0,0.0,0.0,0.0,0.0,0.0,-0.8791,-0.9557,-1.0793,-1.2321,-1.12,-1.0386,0.0,0.0,0.0,0.0,0.0,0.0,0.0,0.0,0.0,0.0,0.0,0.0,0.0,0.0,0.0,0.0,0.0,0.0,0.0,0.0,0.0,0.0,0.0,0.0,0.0,0.0,0.0,0.0,0.0,0.0,0.0,0.0,0.0,0.0,0.0,0.0,0.0,0.0,0.0,0.0,0.0,0.0,0.0,0.0,0.0,0.0,0.0,0.0,0.0,0.0,0.0,0.0,0.0,0.0,0.0,0.0,0.0,0.0,0.0,0.0,0.0,0.0,0.0,0.0,0.0,0.0,0.0,0.0,0.0,0.0,0.0,0.0,0.0,0.0,0.0,0.0,0.0,0.0,0.0,0.0,0.0,0.0,0.0,0.0,0.0,0.0,0.0,0.0,0.0,0.0,0.0,0.0,0.0,0.0,0.0,0.0,0.0,0.0,0.0,0.0,0.0,0.0,0.0,0.0,0.0,0.0,0.0,0.0,0.0,-0.7785,0.0,-1.079,0.0,-1.0439,-0.9471,0.0,0.0,0.0,0.0,0.0,0.0,0.0,0.0,0.0,0.0,0.0,0.0,0.0,0.0,0.0,0.0,0.0,0.0,0.0,0.0,0.0,0.0,0.0,0.0,0.0,0.0,0.0,0.0,0.0,0.0,0.0,0.0,0.0,0.0,0.0,0.0,0.0,0.0,0.0,0.0,0.0,0.0,0.0,0.0,0.0,0.0,0.0,0.0,0.0,0.0,0.0,0.0,0.0,0.0,0.0,0.0,0.0,0.0,0.0,0.0,0.0,0.0,0.0,0.0,0.0,0.0,0.0,0.0,0.0,0.0,0.0,0.0,0.0,0.0,0.0,0.0,0.0,0.0,0.0,0.0,0.0,0.0,0.0,0.0,0.0,0.0,0.0,0.0,0.0,0.0,0.0,0.0,0.0,0.0,0.0,0.0,0.0,0.0,0.0,0.0,0.0,0.0,0.0,0.0,0.0,0.0,0.0,0.0,-0.7624,-0.8403,-0.9878,-1.0766,-1.0956,-0.9495,-0.8305,0.0,0.0,0.0,0.0,0.0,0.0,0.0,0.0,0.0,0.0,0.0,0.0,0.0,0.0,0.0,0.0,0.0,0.0,0.0,0.0,0.0,0.0,0.0,0.0,0.0,0.0,0.0,0.0,0.0,0.0,0.0,0.0,0.0,0.0,0.0,0.0,0.0,0.0,0.0,0.0,0.0,0.0,0.0,0.0,0.0,0.0,0.0,0.0,0.0,0.0,0.0,0.0,0.0,0.0,0.0,0.0,0.0,0.0,0.0,0.0,0.0,0.0,0.0,0.0,0.0,0.0,0.0,0.0,0.0,0.0,0.0,0.0,0.0,0.0,0.0,0.0,0.0,0.0,0.0,0.0,0.0,0.0,0.0,0.0,0.0,0.0,0.0,0.0,0.0,0.0,0.0,0.0,0.0,0.0,0.0,0.0,0.0,0.0,0.0,0.0,0.0,0.0,0.0,0.0,0.0,0.0,0.0,0.0,0.0,-0.8473,-0.9617,-1.0473,-1.0917,-0.9532,-0.8837,0.0,0.0,0.0,0.0,0.0,0.0,0.0,0.0,0.0,0.0,0.0,0.0,0.0,0.0,0.0,0.0,0.0,0.0,0.0,0.0,0.0,0.0,0.0,0.0,0.0,0.0,0.0,0.0,0.0,0.0,0.0,0.0,0.0,0.0,0.0,0.0,0.0,0.0,0.0,0.0,0.0,0.0,0.0,0.0,0.0,0.0,0.0,0.0,0.0,0.0,0.0,0.0,0.0,0.0,0.0,0.0,0.0,0.0,0.0,0.0,0.0,0.0,0.0,0.0,0.0,0.0,0.0,0.0,0.0,0.0,0.0,0.0,0.0,0.0,0.0,0.0,0.0,0.0,0.0,0.0,0.0,0.0,0.0,0.0,0.0,0.0,0.0,0.0,0.0,0.0,0.0,0.0,0.0,0.0,0.0,0.0,0.0,0.0,0.0,0.0,0.0,0.0,0.0,0.0,0.0,0.0,0.0,0.0,0.0,-0.9565,-1.0091,-1.0598,-1.1065,-0.9889,-0.9286,-0.935,0.0,0.0,0.0,0.0,0.0,0.0,0.0,0.0,0.0,0.0,0.0,0.0,0.0,0.0,0.0,0.0,0.0,0.0,0.0,0.0,0.0,0.0,0.0,0.0,0.0,0.0,0.0,0.0,0.0,0.0,0.0,0.0,0.0,0.0,0.0,0.0,0.0,0.0,0.0,0.0,0.0,0.0,0.0,0.0,0.0,0.0,0.0,0.0,0.0,0.0,0.0,0.0,0.0,0.0,0.0,0.0,0.0,0.0,0.0,0.0,0.0,0.0,0.0,0.0,0.0,0.0,0.0,0.0,0.0,0.0,0.0,0.0,0.0,0.0,0.0,0.0,0.0,0.0,0.0,0.0,0.0,0.0,0.0,0.0,0.0,0.0,0.0,0.0,0.0,0.0,0.0,0.0,0.0,0.0,0.0,0.0,0.0,0.0,0.0,0.0,0.0,0.0,0.0,0.0,0.0,0.0,0.0,0.0,-1.1352,-1.1224,-1.1239,-1.1374,-1.0534,-0.9703,0.0,0.0,0.0,0.0,0.0,0.0,0.0,0.0,0.0,0.0,0.0,0.0,0.0,0.0,0.0,0.0,0.0,0.0,0.0,0.0,0.0,0.0,0.0,0.0,0.0,0.0,0.0,0.0,0.0,0.0,0.0,0.0,0.0,0.0,0.0,0.0,0.0,0.0,0.0,0.0,0.0,0.0,0.0,0.0,0.0,0.0,0.0,0.0,0.0,0.0,0.0,0.0,0.0,0.0,0.0,0.0,0.0,0.0,0.0,0.0,0.0,0.0,0.0,0.0,0.0,0.0,0.0,0.0,0.0,0.0,0.0,0.0,0.0,0.0,0.0,0.0,0.0,0.0,0.0,0.0,0.0,0.0,0.0,0.0,0.0,0.0,0.0,0.0,0.0,0.0,0.0,0.0,0.0,0.0,0.0,0.0,0.0,0.0,0.0,0.0,0.0,0.0,0.0,0.0,0.0,0.0,0.0,0.0,0.0,-1.2107,-1.2783,-1.3124,-1.3093,-1.1763,-1.1186,0.0,0.0,0.0,0.0,0.0,0.0,0.0,0.0,0.0,0.0,0.0,0.0,0.0,0.0,0.0,0.0,0.0,0.0,0.0,0.0,0.0,0.0,0.0,0.0,0.0,0.0,0.0,0.0,0.0,0.0,0.0,0.0,0.0,0.0,0.0,0.0,0.0,0.0,0.0,0.0,0.0,0.0,0.0,0.0,0.0,0.0,0.0,0.0,0.0,0.0,0.0,0.0,0.0,0.0,0.0,0.0,0.0,0.0,0.0,0.0,0.0,0.0,0.0,0.0,0.0,0.0,0.0,0.0,0.0,0.0,0.0,0.0,0.0,0.0,0.0,0.0,0.0,0.0,0.0,0.0,0.0,0.0,0.0,0.0,0.0,0.0,0.0,0.0,0.0,0.0,0.0,0.0,0.0,0.0,0.0,0.0,0.0,0.0,0.0,0.0,0.0,0.0,0.0,0.0,0.0,0.0,0.0,0.0,-1.1968,-1.2521,-1.3775,-1.4415,-1.4393,-1.3136,-1.231,0.0,0.0,0.0,0.0,0.0,0.0,0.0,0.0,0.0,0.0,0.0,0.0,0.0,0.0,0.0,0.0,0.0,0.0,0.0,0.0,0.0,0.0,0.0,0.0,0.0,0.0,0.0,0.0,0.0,0.0,0.0,0.0,0.0,0.0,0.0,0.0,0.0,0.0,0.0,0.0,0.0,0.0,0.0,0.0,0.0,0.0,0.0,0.0,0.0,0.0,0.0,0.0,0.0,0.0,0.0,0.0,0.0,0.0,0.0,0.0,0.0,0.0,0.0,0.0,0.0,0.0,0.0,0.0,0.0,0.0,0.0,0.0,0.0,0.0,0.0,0.0,0.0,0.0,0.0,0.0,0.0,0.0,0.0,0.0,0.0,0.0,0.0,0.0,0.0,0.0,0.0,0.0,0.0,0.0,0.0,0.0,0.0,0.0,0.0,0.0,0.0,0.0,0.0,0.0,0.0,0.0,0.0,0.0,-1.2535,-1.2834,-1.4382,-1.5195,-1.5176,-1.4272,-1.3082,0.0,0.0,0.0,0.0,0.0,0.0,0.0,0.0,0.0,0.0,0.0,0.0,0.0,0.0,0.0,0.0,0.0,0.0,0.0,0.0,0.0,0.0,0.0,0.0,0.0,0.0,0.0,0.0,0.0,0.0,0.0,0.0,0.0,0.0,0.0,0.0,0.0,0.0,0.0,0.0,0.0,0.0,0.0,0.0,0.0,0.0,0.0,0.0,0.0,0.0,0.0,0.0,0.0,0.0,0.0,0.0,0.0,0.0,0.0,0.0,0.0,0.0,0.0,0.0,0.0,0.0,0.0,0.0,0.0,0.0,0.0,0.0,0.0,0.0,0.0,0.0,0.0,0.0,0.0,0.0,0.0,0.0,0.0,0.0,0.0,0.0,0.0,0.0,0.0,0.0,0.0,0.0,0.0,0.0,0.0,0.0,0.0,0.0,0.0,0.0,0.0,0.0,0.0,0.0,0.0,0.0,0.0,0.0,-1.2782,-1.357,-1.4634,-1.5195,-1.5195,-1.3753,-1.2791,0.0,0.0,0.0,0.0,0.0,0.0,0.0,0.0,0.0,0.0,0.0,0.0,0.0,0.0,0.0,0.0,0.0,0.0,0.0,0.0,0.0,0.0,0.0,0.0,0.0,0.0,0.0,0.0,0.0,0.0,0.0,0.0,0.0,0.0,0.0,0.0,0.0,0.0,0.0,0.0,0.0,0.0,0.0,0.0,0.0,0.0,0.0,0.0,-0.9754,0.0,0.0,0.0,0.0,0.0,0.0,0.0,0.0,0.0,0.0,0.0,0.0,0.0,0.0,0.0,0.0,0.0,0.0,0.0,0.0,0.0,0.0,0.0,0.0,0.0,0.0,0.0,0.0,0.0,0.0,0.0,0.0,0.0,0.0,0.0,0.0,0.0,0.0,0.0,0.0,0.0,0.0,0.0,0.0,0.0,0.0,0.0,0.0,0.0,0.0,0.0,0.0,0.0,0.0,0.0,0.0,0.0,0.0,0.0,-1.2906,-1.3837,-1.473,-1.5195,-1.5147,-1.3934,-1.3088,0.0,0.0,0.0,0.0,0.0,0.0,0.0,0.0,0.0,0.0,0.0,0.0,0.0,0.0,0.0,0.0,0.0,0.0,0.0,0.0,0.0,0.0,0.0,0.0,0.0,0.0,0.0,0.0,0.0,0.0,0.0,0.0,0.0,0.0,0.0,0.0,0.0,0.0,0.0,0.0,0.0,0.0,0.0,0.0,0.0,0.0,0.0,0.0,0.0,0.0,0.0,0.0,0.0,0.0,0.0,0.0,0.0,0.0,0.0,0.0,0.0,0.0,0.0,0.0,0.0,0.0,0.0,0.0,0.0,0.0,0.0,0.0,0.0,0.0,0.0,0.0,0.0,0.0,0.0,0.0,0.0,0.0,0.0,0.0,0.0,0.0,0.0,0.0,0.0,0.0,0.0,0.0,0.0,0.0,0.0,0.0,0.0,0.0,0.0,0.0,0.0,0.0,0.0,0.0,0.0,0.0,0.0,-1.1685,-1.2976,-1.39,-1.4757,-1.5205,-1.5195,-1.4355,-1.3535,-1.2733,0.0,0.0,0.0,0.0,0.0,0.0,0.0,0.0,0.0,0.0,0.0,0.0,0.0,0.0,0.0,0.0,0.0,0.0,0.0,0.0,0.0,0.0,0.0,0.0,0.0,0.0,0.0,0.0,0.0,0.0,0.0,0.0,0.0,0.0,0.0,0.0,0.0,0.0,-0.8279,-0.8872,0.0,0.0,0.0,0.0,0.0,0.0,0.0,0.0,-0.954,0.0,0.0,0.0,0.0,0.0,0.0,0.0,0.0,0.0,0.0,0.0,0.0,0.0,0.0,0.0,0.0,0.0,0.0,0.0,0.0,0.0,0.0,0.0,0.0,0.0,0.0,0.0,0.0,0.0,0.0,0.0,0.0,0.0,0.0,0.0,0.0,0.0,0.0,0.0,0.0,0.0,0.0,0.0,0.0,0.0,0.0,0.0,0.0,0.0,0.0,0.0,0.0,0.0,0.0,0.0,0.0,-1.0877,-1.2015,-1.3037,-1.3963,-1.4837,-1.5263,-1.5176,-1.4359,-1.3527,-1.2704,0.0,0.0,0.0,0.0,0.0,0.0,0.0,0.0,0.0,0.0,0.0,0.0,0.0,0.0,0.0,0.0,0.0,0.0,0.0,0.0,0.0,0.0,0.0,0.0,0.0,0.0,0.0,0.0,0.0,0.0,0.0,0.0,0.0,0.0,0.0,0.0,0.0,0.0,0.0,-1.0656,-1.1099,0.0,0.0,0.0,0.0,0.0,0.0,0.0,0.0,-1.003,0.0,0.0,0.0,0.0,0.0,0.0,0.0,0.0,0.0,0.0,0.0,0.0,0.0,0.0,0.0,0.0,0.0,0.0,0.0,0.0,0.0,0.0,0.0,0.0,0.0,0.0,0.0,0.0,0.0,0.0,0.0,0.0,0.0,0.0,0.0,0.0,0.0,0.0,0.0,0.0,0.0,0.0,0.0,0.0,0.0,0.0,0.0,0.0,0.0,0.0,0.0,0.0,0.0,0.0,0.0,-1.1119,-1.22,-1.3123,-1.3989,-1.4857,-1.5291,-1.5243,-1.4364,-1.3478,0.0,0.0,0.0,0.0,0.0,0.0,0.0,0.0,0.0,0.0,0.0,0.0,0.0,0.0,0.0,0.0,0.0,0.0,0.0,0.0,0.0,0.0,0.0,0.0,0.0,0.0,0.0,0.0,0.0,0.0,0.0,0.0,0.0,0.0,0.0,0.0,0.0,0.0,0.0,0.0,-1.0671,-1.0956,-1.1176,0.0,0.0,0.0,0.0,0.0,0.0,-1.0737,-1.0241,0.0,0.0,0.0,0.0,0.0,0.0,0.0,0.0,0.0,0.0,0.0,0.0,0.0,0.0,0.0,0.0,0.0,0.0,0.0,0.0,0.0,0.0,0.0,0.0,0.0,0.0,0.0,0.0,0.0,0.0,0.0,0.0,0.0,0.0,0.0,0.0,0.0,0.0,0.0,0.0,0.0,0.0,0.0,0.0,0.0,0.0,0.0,0.0,0.0,0.0,0.0,0.0,0.0,0.0,0.0,-1.1024,-1.2226,-1.3101,-1.3756,-1.4765,-1.5214,-1.5026,-1.4152,-1.3227,0.0,0.0,0.0,0.0,0.0,0.0,0.0,0.0,0.0,0.0,0.0,0.0,0.0,0.0,0.0,0.0,0.0,0.0,0.0,0.0,0.0,0.0,0.0,0.0,0.0,0.0,0.0,0.0,0.0,0.0,0.0,0.0,0.0,0.0,0.0,0.0,0.0,0.0,0.0,0.0,0.0,-1.1222,-1.1327,-1.1465,0.0,0.0,0.0,0.0,-1.2418,-1.1624,0.0,0.0,0.0,0.0,0.0,0.0,0.0,0.0,0.0,0.0,0.0,0.0,0.0,0.0,0.0,0.0,0.0,0.0,0.0,0.0,0.0,0.0,0.0,0.0,0.0,0.0,0.0,0.0,0.0,0.0,0.0,0.0,0.0,0.0,0.0,0.0,0.0,0.0,0.0,0.0,0.0,0.0,0.0,0.0,0.0,0.0,0.0,0.0,0.0,0.0,0.0,0.0,0.0,0.0,0.0,0.0,-1.0312,-1.1963,-1.2845,-1.3016,-1.4496,-1.4923,-1.4176,-1.329,-1.242,0.0,0.0,0.0,0.0,0.0,0.0,0.0,0.0,0.0,0.0,0.0,0.0,0.0,0.0,0.0,0.0,0.0,0.0,0.0,0.0,0.0,0.0,0.0,0.0,0.0,0.0,0.0,0.0,0.0,0.0,0.0,0.0,0.0,0.0,0.0,0.0,0.0,0.0,0.0,0.0,0.0,-1.3875,-1.2373,-1.2724,-1.3126,0.0,0.0,-1.3168,-1.3252,-1.3667,0.0,0.0,0.0,0.0,0.0,0.0,0.0,0.0,0.0,0.0,0.0,0.0,0.0,0.0,0.0,0.0,0.0,0.0,0.0,0.0,0.0,0.0,0.0,0.0,0.0,0.0,0.0,0.0,0.0,0.0,0.0,0.0,0.0,0.0,0.0,0.0,0.0,0.0,0.0,0.0,0.0,0.0,0.0,0.0,0.0,0.0,0.0,0.0,0.0,0.0,0.0,0.0,0.0,0.0,0.0,-0.8457,-1.0186,-1.191,-1.279,-1.285,-1.4436,-1.4883,-1.403,-1.3156,-1.2257,0.0,0.0,0.0,0.0,0.0,0.0,0.0,0.0,0.0,0.0,0.0,0.0,0.0,0.0,0.0,0.0,0.0,0.0,0.0,0.0,0.0,0.0,0.0,0.0,0.0,0.0,0.0,0.0,0.0,0.0,0.0,0.0,0.0,0.0,0.0,0.0,0.0,0.0,0.0,0.0,0.0,0.0,-1.2959,-1.3922,0.0,0.0,0.0,-1.4647,-1.4639,0.0,0.0,0.0,0.0,0.0,0.0,0.0,0.0,0.0,0.0,0.0,0.0,0.0,0.0,0.0,0.0,0.0,0.0,0.0,0.0,0.0,0.0,0.0,0.0,0.0,0.0,0.0,0.0,0.0,0.0,0.0,0.0,0.0,0.0,0.0,0.0,0.0,0.0,0.0,0.0,0.0,0.0,0.0,0.0,0.0,0.0,0.0,0.0,0.0,0.0,0.0,0.0,0.0,0.0,0.0,0.0,0.0,-1.0175,-1.1896,-1.2788,-1.284,-1.4432,-1.478,-1.3702,-1.305,0.0,0.0,0.0,0.0,0.0,0.0,0.0,0.0,0.0,0.0,0.0,0.0,0.0,0.0,0.0,0.0,0.0,0.0,0.0,0.0,0.0,0.0,0.0,0.0,0.0,0.0,0.0,-0.4692,0.0,0.0,0.0,0.0,0.0,0.0,0.0,0.0,0.0,0.0,0.0,0.0,0.0,0.0,-1.3298,-1.3151,-1.4692,-1.5723,0.0,0.0,-1.587,-1.5879,-1.5089,-1.3988,0.0,0.0,0.0,0.0,0.0,0.0,0.0,0.0,0.0,0.0,0.0,0.0,0.0,0.0,0.0,0.0,0.0,0.0,0.0,0.0,0.0,0.0,0.0,0.0,0.0,0.0,0.0,0.0,0.0,0.0,0.0,0.0,0.0,0.0,0.0,0.0,0.0,0.0,0.0,0.0,0.0,0.0,0.0,0.0,0.0,0.0,0.0,0.0,0.0,0.0,0.0,0.0,0.0,0.0,0.0,-1.0175,-1.1857,-1.2743,-1.2856,-1.4432,-1.4499,-1.286,-1.2727,-1.1916,0.0,0.0,0.0,0.0,0.0,0.0,0.0,0.0,0.0,0.0,0.0,0.0,0.0,0.0,0.0,0.0,0.0,0.0,0.0,0.0,0.0,0.0,0.0,0.0,0.0,0.0,0.0,0.0,0.0,0.0,0.0,0.0,0.0,0.0,0.0,0.0,0.0,0.0,0.0,0.0,0.0,-1.5078,-1.2713,-1.4817,-1.6541,0.0,0.0,-1.6627,-1.6627,-1.7117,-1.6323,-1.2872,0.0,0.0,0.0,0.0,0.0,0.0,0.0,0.0,0.0,0.0,0.0,0.0,0.0,0.0,0.0,0.0,0.0,0.0,0.0,0.0,0.0,0.0,0.0,0.0,0.0,0.0,0.0,0.0,0.0,0.0,0.0,0.0,0.0,0.0,0.0,0.0,0.0,0.0,0.0,0.0,0.0,0.0,0.0,0.0,0.0,0.0,0.0,0.0,0.0,0.0,0.0,0.0,0.0,-0.8381,-1.0185,-1.1845,-1.2714,-1.2788,-1.437,-1.4422,-1.2739,-1.2698,-1.1863,0.0,0.0,0.0,0.0,0.0,0.0,0.0,0.0,0.0,0.0,0.0,0.0,0.0,0.0,0.0,0.0,0.0,0.0,0.0,0.0,0.0,0.0,0.0,0.0,0.0,0.0,0.0,0.0,-0.6731,-0.7355,-0.7727,0.0,0.0,0.0,0.0,0.0,0.0,0.0,0.0,0.0,0.0,-1.5419,-1.5106,-1.653,0.0,0.0,-1.7457,-1.738,-1.7371,-1.6847,-1.5807,-1.3954,-1.3134,0.0,0.0,0.0,0.0,0.0,0.0,0.0,0.0,0.0,0.0,0.0,0.0,0.0,0.0,0.0,0.0,0.0,0.0,0.0,0.0,0.0,0.0,0.0,0.0,0.0,0.0,0.0,0.0,0.0,0.0,0.0,0.0,0.0,0.0,0.0,0.0,0.0,0.0,0.0,0.0,0.0,0.0,0.0,0.0,0.0,0.0,0.0,0.0,0.0,0.0,0.0,0.0,-0.8494,-1.05,-1.1959,-1.2824,-1.3054,-1.4453,-1.4388,-1.2787,-1.2698,-1.1849,0.0,0.0,0.0,0.0,0.0,0.0,0.0,0.0,0.0,0.0,0.0,0.0,0.0,0.0,0.0,0.0,0.0,0.0,0.0,0.0,0.0,0.0,0.0,0.0,0.0,0.0,0.0,0.0,-0.7705,-0.8409,-0.8969,0.0,0.0,0.0,0.0,0.0,0.0,0.0,0.0,0.0,0.0,-1.5856,-1.6794,-1.7642,-1.819,-1.8147,-1.7952,-1.7789,-1.7789,-1.694,-1.595,-1.4995,0.0,0.0,0.0,0.0,0.0,0.0,0.0,0.0,0.0,0.0,0.0,0.0,0.0,0.0,0.0,0.0,0.0,0.0,0.0,0.0,0.0,0.0,0.0,0.0,0.0,0.0,0.0,0.0,0.0,0.0,-0.5085,0.0,0.0,0.0,0.0,0.0,0.0,0.0,0.0,0.0,0.0,0.0,0.0,0.0,0.0,0.0,0.0,0.0,0.0,0.0,0.0,0.0,0.0,-0.8739,-1.1248,-1.2214,-1.3084,-1.3848,-1.4738,-1.4388,-1.2777,-1.2689,-1.1834,-1.0039,0.0,0.0,0.0,0.0,0.0,0.0,0.0,0.0,0.0,0.0,0.0,0.0,0.0,0.0,0.0,0.0,0.0,0.0,0.0,0.0,0.0,0.0,0.0,0.0,0.0,0.0,-0.6987,-0.7679,-0.8328,0.0,0.0,0.0,0.0,0.0,0.0,0.0,0.0,0.0,0.0,-1.5508,-1.6646,-1.7147,-1.7771,-1.811,-1.7861,-1.7836,-1.7789,-1.7789,-1.7752,-1.727,0.0,0.0,0.0,0.0,0.0,0.0,0.0,0.0,0.0,0.0,0.0,0.0,0.0,0.0,0.0,0.0,0.0,0.0,0.0,0.0,0.0,0.0,0.0,0.0,0.0,0.0,0.0,-0.8342,-0.8043,0.0,0.0,0.0,0.0,0.0,0.0,0.0,0.0,0.0,0.0,0.0,-1.1655,-1.1776,0.0,0.0,0.0,0.0,0.0,0.0,0.0,0.0,0.0,0.0,0.0,0.0,-0.9287,-1.1233,-1.2223,-1.3089,-1.3876,-1.418,-1.3806,-1.2729,-1.2142,-1.1023,-0.9318,0.0,0.0,0.0,0.0,0.0,0.0,0.0,0.0,0.0,0.0,0.0,0.0,0.0,0.0,0.0,0.0,0.0,0.0,0.0,0.0,0.0,0.0,0.0,0.0,0.0,-0.7243,0.0,0.0,0.0,0.0,0.0,0.0,0.0,0.0,0.0,0.0,0.0,-1.3809,-1.5221,-1.6493,-1.7489,-1.8053,-1.8165,-1.8164,0.0,0.0,0.0,0.0,0.0,0.0,0.0,0.0,0.0,0.0,0.0,0.0,0.0,0.0,-1.5857,-1.4316,-1.3229,-1.2752,-1.3423,0.0,0.0,0.0,0.0,0.0,0.0,0.0,0.0,0.0,0.0,0.0,0.0,0.0,0.0,-0.981,0.0,-0.949,0.0,0.0,0.0,0.0,0.0,0.0,0.0,0.0,-1.2156,-1.2815,-1.3031,-1.3338,-1.3294,0.0,-1.3184,-1.2111,0.0,0.0,0.0,0.0,0.0,0.0,0.0,0.0,-0.999,-1.1645,-1.263,-1.3507,-1.4286,-1.4059,-1.3529,-1.271,-1.1542,-1.0421,-0.9341,-0.9192,-0.8731,0.0,0.0,0.0,0.0,0.0,0.0,0.0,0.0,0.0,0.0,0.0,0.0,0.0,0.0,0.0,0.0,0.0,0.0,0.0,0.0,0.0,0.0,0.0,-0.8201,0.0,0.0,0.0,0.0,0.0,0.0,0.0,0.0,0.0,-1.2322,-1.3322,-1.4588,-1.6185,-1.7143,-1.7885,-1.8394,0.0,0.0,0.0,0.0,0.0,0.0,0.0,-1.7752,-1.752,-1.7278,-1.7058,-1.6796,-1.5739,-1.5331,-1.653,0.0,0.0,-1.6032,-1.4872,-1.4507,-1.5458,-1.4614,-1.3818,-1.426,-1.4565,-1.476,0.0,0.0,0.0,0.0,0.0,0.0,0.0,0.0,-1.1474,-1.1484,0.0,-1.0644,0.0,0.0,0.0,0.0,0.0,-1.1096,0.0,0.0,-1.451,-1.49,-1.4233,-1.4999,-1.4909,-1.4111,-1.4755,-1.4182,-1.2464,-1.0939,0.0,0.0,0.0,0.0,0.0,0.0,-1.0852,-1.2417,-1.3403,-1.4324,-1.5122,-1.4347,-1.3497,-1.2642,-1.094,-1.0056,-1.009,-0.9952,-0.9533,-0.8774,-0.8608,0.0,0.0,0.0,0.0,0.0,0.0,0.0,0.0,0.0,0.0,0.0,0.0,0.0,0.0,0.0,0.0,0.0,0.0,0.0,0.0,-0.7856,0.0,0.0,0.0,0.0,0.0,0.0,0.0,0.0,0.0,0.0,-1.3489,-1.389,-1.4839,-1.6872,0.0,0.0,0.0,0.0,-1.8408,-1.8875,-1.8939,-1.9217,-1.9908,-2.001,-1.9756,-1.9077,0.0,0.0,-1.9077,-1.8358,-1.7901,-1.7916,-1.9098,-1.9462,-1.7555,-1.6798,-1.6728,-1.7566,-1.6527,-1.5787,-1.6593,-1.7256,-1.7746,-1.2565,0.0,0.0,0.0,0.0,-1.1866,-1.2451,-1.3248,-1.3262,-1.324,-1.3238,-1.299,0.0,0.0,0.0,0.0,0.0,0.0,-1.3801,-1.4683,-1.5799,-1.6462,-1.6785,-1.7038,-1.7005,-1.6772,-1.6932,-1.6122,-1.4504,-1.3963,-1.2477,-1.0143,0.0,0.0,0.0,0.0,-1.2318,-1.3354,-1.3737,-1.4324,-1.5186,-1.4353,-1.3219,-1.182,-1.0675,-1.0075,-1.0104,-1.0025,-0.9837,-0.957,-0.8893,0.0,0.0,0.0,0.0,0.0,0.0,0.0,0.0,0.0,0.0,0.0,0.0,0.0,0.0,0.0,0.0,0.0,0.0,0.0,-0.7307,-0.8434,-0.9291,0.0,0.0,0.0,0.0,0.0,0.0,0.0,0.0,0.0,-1.5098,-1.5801,-1.6621,0.0,0.0,-1.8376,-1.8473,-1.8953,-1.9386,-1.9521,-2.0022,0.0,-2.0684,-2.0706,-2.0644,-2.0438,-2.0565,-2.0635,-2.0438,-2.0376,-2.0229,-1.9801,-2.0699,-2.101,-1.9547,-1.9041,-1.8932,-1.8878,-1.8695,-1.8705,-1.9013,-1.9241,-1.9368,-1.5053,-1.4388,-1.3511,-1.3349,-1.3715,-1.4064,-1.4497,-1.4989,-1.4989,-1.518,-1.5468,-1.5139,-1.4714,-1.423,-1.3956,0.0,0.0,0.0,-1.5606,-1.6449,-1.6979,-1.7461,-1.7949,-1.8262,-1.8231,-1.7923,-1.8213,-1.7655,-1.6336,-1.6259,-1.5072,-1.2873,0.0,0.0,-1.1702,-1.2563,-1.3278,-1.38,-1.419,-1.468,-1.5186,-1.4033,-1.2775,-1.1439,-1.0565,-1.0104,-1.0104,-1.0065,-1.0006,-0.994,-0.9399,-0.9292,0.0,0.0,0.0,0.0,0.0,0.0,0.0,0.0,0.0,0.0,0.0,-0.5819,-0.5197,0.0,0.0,0.0,-0.6406,-0.7776,-0.8299,-0.9021,0.0,0.0,0.0,0.0,0.0,0.0,0.0,-1.2627,-1.3991,-1.5235,-1.622,-1.7121,-1.7866,-1.8289,-1.8584,-1.8687,-1.8519,0.0,-2.0006,-2.0625,-2.1123,-2.1547,-2.1811,-2.1878,-2.1883,-2.1865,-2.1638,-2.1559,-2.1848,-2.2064,-2.1958,-2.1464,-2.1955,-2.2189,-2.0687,-2.0845,-2.1186,-2.0873,-2.0451,-2.024,-2.0375,-2.0503,-2.061,-1.7058,-1.7275,-1.5093,-1.465,-1.5446,-1.6263,-1.6586,-1.6606,-1.6619,-1.7058,-1.7731,-1.6974,-1.665,-1.6652,-1.5927,0.0,-1.6817,-1.6867,-1.7324,-1.8115,-1.8184,-1.8193,-1.8252,-1.8955,-1.8896,-1.8144,-1.8929,-1.8862,-1.8004,-1.7925,-1.7093,-1.548,-1.3712,-1.272,-1.2574,-1.3437,-1.3911,-1.3908,-1.4752,-1.5195,-1.5176,-1.3562,-1.2321,-1.1531,-1.0589,-1.0104,-1.0104,-1.0104,-1.0074,-1.0011,-1.0006,-0.9907,-0.9679,0.0,0.0,0.0,0.0,0.0,0.0,0.0,0.0,0.0,0.0,0.0,0.0,0.0,0.0,0.0,-0.7338,0.0,-0.8984,-0.9674,0.0,0.0,0.0,-1.1579,-1.2528,-1.3165,-1.3582,-1.3667,0.0,0.0,-1.6983,-1.7929,-1.8632,-1.8669,-1.8905,-1.8932,-1.8434,-1.94,-2.0575,-2.1895,-2.2207,-2.2522,-2.3093,-2.3212,-2.3186,-2.3177,-2.2696,-2.2562,-2.3079,-2.3382,-2.3171,-2.2401,-2.2935,-2.3081,-2.1499,-2.2316,-2.3259,-2.3193,-2.1914,-2.0856,-2.1185,-2.1504,-2.171,-1.8036,-1.8809,-1.7854,-1.7282,-1.6976,-1.7339,-1.7494,-1.7497,-1.7536,-1.7681,-1.7868,-1.7654,-1.7587,-1.7592,-1.7391,-1.7455,-1.7711,-1.8388,-1.8779,-1.9033,-1.9678,-1.999,-1.999,-2.0185,-2.0176,-1.9971,-2.0115,-1.9739,-1.8929,-1.8883,-1.8324,-1.7277,-1.6123,-1.4886,-1.3629,-1.442,-1.4864,-1.4864,-1.5087,-1.5195,-1.5157,-1.3553,-1.2614,-1.2392,-1.0906,-1.0104,-1.0104,-1.0104,-1.007,-1.0006,-0.9951,-0.9889,-0.9835,-0.8241,0.0,0.0,0.0,0.0,0.0,0.0,0.0,0.0,0.0,-0.7357,-0.6335,0.0,-0.7094,0.0,-0.8488,-1.0688,-0.9818,-1.0557,0.0,0.0,-1.2582,-1.3078,-1.5167,-1.5048,-1.5092,-1.5906,-1.6826,-1.764,-1.8235,-1.8655,-1.8948,-1.9124,-1.9576,-1.9695,-1.9202,-2.0924,-2.2292,-2.2511,-2.3166,-2.3757,-2.3892,-2.3976,-2.3937,-2.3967,-2.3784,-2.3764,-2.3933,-2.4012,-2.3874,-2.344,-2.3692,-2.3687,-2.3011,-2.3511,-2.3912,-2.3908,-2.3208,-2.2579,-2.2663,-2.2735,-2.2794,-1.8545,-1.9212,-1.9104,-1.8843,-1.8535,-1.8799,-1.8931,-1.8957,-1.8996,-1.9026,-1.9075,-1.9088,-1.9094,-1.905,-1.9089,-1.9116,-1.9189,-1.9658,-1.9873,-1.9912,-2.0371,-2.0596,-2.0596,-2.0596,-2.0596,-2.0596,-2.0566,-2.0303,-1.9834,-1.9783,-1.9322,-1.8488,-1.7969,-1.6826,-1.5186,-1.5205,-1.5243,-1.5253,-1.5214,-1.5195,-1.5157,-1.3562,-1.2695,-1.2652,-1.1021,-1.0104,-1.0104,-1.0104,-1.0082,-1.0043,-0.9977,-0.9914,-0.9865,-0.8616,-0.734,0.0,0.0,0.0,0.0,0.0,0.0,0.0,0.0,0.0,0.0,0.0,-0.8189,-0.6829,-0.9739,-1.1571,-1.1269,-1.2028,-1.3038,-1.4209,-1.4294,-1.4973,-1.6711,-1.6485,-1.6598,-1.7569,-1.7977,-1.8393,-1.8933,-1.9073,-1.9328,-1.976,-2.0453,-2.0884,-2.0915,-2.2108,-2.306,-2.33,-2.3813,-2.4199,-2.4199,-2.4199,-2.4199,-2.4199,-2.4199,-2.4199,-2.4199,-2.4199,-2.4135,-2.3987,-2.408,-2.4135,-2.3876,-2.3996,-2.4199,-2.4151,-2.3917,-2.3671,-2.364,-2.3531,-2.3437,-1.8707,-1.8991,-1.9385,-1.9662,-1.9839,-2.0153,-2.0321,-2.0391,-2.0412,-2.0444,-2.0511,-2.0574,-2.0572,-2.0508,-2.0567,-2.0581,-2.0591,-2.0566,-2.0566,-2.0585,-2.0595,-2.0586,-2.0576,-2.0596,-2.0596,-2.0596,-2.0596,-2.0596,-2.0596,-2.0537,-2.0131,-1.9396,-1.9254,-1.8387,-1.6812,-1.5915,-1.5422,-1.5291,-1.5234,-1.5205,-1.5176,-1.3674,-1.2815,-1.2652,-1.1122,-1.0223,-1.0104,-1.0104,-1.0104,-1.0104,-1.0034,-0.9946,-0.9874,-0.9064,-0.8241,0.0,-0.7333,0.0,0.0,0.0,0.0,0.0,0.0,0.0,0.0,-0.8425,-0.875,-0.9627,-1.1323,-1.2528,-1.2917,-1.3775,-1.4621,-1.5362,-1.6123,-1.6881,-1.7611,-1.7739,-1.8028,-1.8796,-1.8974,-1.9101,-1.9259,-1.9295,-1.9601,-2.0354,-2.1175,-2.1881,-2.251,-2.2923,-2.3444,-2.4116,-2.4199,-2.4199,-2.4199,-2.4199,-2.4199,-2.4199,-2.4199,-2.4199,-2.4199,-2.4199,-2.419,-2.4181,-2.4181,-2.419,-2.4199,-2.419,-2.4199,-2.4199,-2.417,-2.4142,-2.4122,-2.3946,-2.3867,-1.8485,-1.8855,-1.9151,-1.9513,-1.9895,-2.0069,-2.0238,-2.0404,-2.0455,-2.0513,-2.0586,-2.0604,-2.0604,-2.058,-2.0542,-2.0505,-2.0524,-2.0459,-2.0442,-2.0448,-2.0493,-2.0518,-2.0527,-2.0566,-2.0596,-2.0596,-2.0596,-2.0596,-2.0596,-2.0576,-2.0487,-2.0315,-1.9571,-1.8721,-1.7752,0.0,0.0,0.0,-1.5291,-1.5263,-1.5166,-1.419,-1.3355,-1.27,-1.1697,0.0,-1.0146,-1.0104,-1.0104,-1.01,-0.9977,0.0,0.0,0.0,0.0,0.0,0.0,0.0,0.0,0.0,0.0,0.0,-0.9641,-1.0118,-0.9502,-0.9422,-0.9932,-1.1202,-1.4082,-1.5321,-1.3948,-1.5178,-1.6427,-1.7192,-1.744,-1.7907,-1.8819,-1.8956,-1.9031,-1.9166,-1.9227,-1.9261,-1.928,-1.9295,-1.9611,-2.0455,-2.1248,-2.2065,-2.2841,-2.3519,-2.3996,-2.4171,-2.4199,-2.4199,-2.4199,-2.4199,-2.4199,-2.4199,-2.4199,-2.4199,-2.4199,-2.4199,-2.4199,-2.4199,-2.4199,-2.4199,-2.4199,-2.4199,-2.4199,-2.4199,-2.4199,-2.4199,-2.4199,-2.4151,-2.4113,-1.8324,0.0,-1.8919,-1.9283,0.0,-1.9771,-1.9983,-2.0173,-2.0408,-2.0537,-2.0596,-2.0567,-2.0565,-2.0596,-2.0538,-2.0515,-2.0548,-2.0502,-2.0507,-2.0493,-2.0531,-2.0543,-2.0547,-2.0576,-2.0596,-2.0596,-2.0596,-2.0596,-2.0596,-2.0596,-2.0596,-2.0596,-2.0127,-1.9257,-1.8009,-1.6707,-1.5831,-1.5349,-1.5313,-1.5291,-1.5224,-1.4359,-1.371,-1.3281,-1.2063,0.0,0.0,0.0,0.0,0.0,0.0,0.0,0.0,0.0,0.0,-0.9045,-0.8715,-0.8554,-0.859,-0.8912,-0.9303,-0.9818,-1.1294,-1.1819,-1.0947,-1.0892,-1.1324,-1.2426,-1.5174,-1.6346,-1.5067,-1.634,-1.7503,-1.7909,-1.8298,-1.8773,-1.9198,-1.938,-1.9413,-1.932,-1.937,-1.9409,-1.9329,-1.9666,-2.0225,-2.1024,-2.1872,-2.2663,-2.3447,-2.3933,-2.419,-2.4199,-2.4199,-2.4199,-2.4199,-2.4199,-2.4199,-2.4199,-2.4199,-2.4199,-2.4199,-2.4199,-2.4199,-2.4199,-2.4199,-2.4199,-2.4199,-2.4199,-2.4199,-2.4199,-2.4199,-2.4199,-2.4199,-2.4199,-2.4199,-1.8137,-1.8237,-1.8669,-1.8956,-1.9123,-1.9367,-1.96,-1.9857,0.0,0.0,0.0,-2.0526,-2.0536,-2.0567,-2.0514,-2.051,-2.0568,-2.0561,-2.0554,-2.0574,-2.0572,-2.0585,-2.0586,-2.0605,-2.0596,-2.0596,-2.0596,-2.0596,-2.0596,-2.0596,-2.0596,-2.0596,-2.0596,-1.9721,-1.7989,-1.6262,-1.541,-1.54,-1.5326,-1.5291,-1.5263,-1.4538,-1.4061,-1.3886,-1.2425,-1.1562,-1.1401,-1.0569,-1.0104,-1.0104,-1.0038,-1.0015,-0.9995,-0.9937,-0.992,-0.9978,-0.988,-0.986,-0.9896,-0.9935,-1.0455,-1.1547,-1.2795,-1.3179,-1.2371,-1.2434,-1.2868,-1.3699,-1.5741,-1.6765,-1.6257,-1.7503,-1.8393,-1.8387,-1.8978,-1.9376,-1.94,-1.9532,-1.9573,-1.9434,-1.9536,-1.9573,-1.9456,-2.0089,-2.0907,-2.1747,-2.2519,-2.3307,-2.4016,-2.4171,-2.4199,-2.4199,-2.4199,-2.4199,-2.4199,-2.4199,-2.4199,-2.4199,-2.4199,-2.4199,-2.4199,-2.4199,-2.4199,-2.4199,-2.4199,-2.4199,-2.4199,-2.4199,-2.4199,-2.4199,-2.4199,-2.4199,-2.4199,-2.4199,-2.4199,-1.7992,-1.8199,-1.829,-1.8461,-1.8689,-1.8866,-1.9154,-1.9578,-2.0034,-2.0348,-2.0508,-2.0505,-2.0503,-2.0511,-2.0448,-2.042,-2.0423,-2.0359,-2.0375,-2.0428,-2.0474,-2.0507,-2.0515,-2.0572,-2.0596,-2.0596,-2.0596,-2.0596,-2.0596,-2.0596,-2.0596,-2.0596,-2.0596,-1.9717,-1.7995,-1.6269,-1.541,-1.541,-1.5321,-1.5295,-1.5288,-1.5112,-1.4645,-1.3905,-1.3007,-1.2156,-1.1406,-1.0579,-1.0104,-1.0104,-1.0038,-1.0011,-0.9996,-0.9948,-0.9908,-0.9914,-0.9895,-0.9886,-0.9918,-1.0583,-1.1655,-1.3083,-1.3457,-1.3454,-1.3191,-1.3774,-1.4558,-1.5459,-1.6653,-1.7532,-1.7999,-1.8894,-1.9456,-1.939,-1.9585,-1.9738,-1.9716,-1.9731,-1.9752,-1.9716,-1.9762,-1.9764,-1.9782,-2.049,-2.1322,-2.2103,-2.2868,-2.3509,-2.4045,-2.4199,-2.4199,-2.4199,-2.4199,-2.4199,-2.4199,-2.4199,-2.4199,-2.4199,-2.4199,-2.4199,-2.4199,-2.4199,-2.4199,-2.4199,-2.4199,-2.4199,-2.4199,-2.4199,-2.4199,-2.4199,-2.4199,-2.4199,-2.4199,-2.4199,-2.4199,-1.7869,-1.7992,-1.8142,-1.8278,-1.8402,-1.8607,-1.8931,-1.9351,-1.9556,-1.9921,-2.0326,-2.0333,-2.0391,-2.0499,-2.0463,-2.0485,-2.051,-2.047,-2.0471,-2.0513,-2.0535,-2.0558,-2.0552,-2.0542,-2.0567,-2.0596,-2.0557,-2.0566,-2.0596,-2.0596,-2.0596,-2.0527,-1.9678,-1.8779,-1.7939,-1.6269,-1.541,-1.541,-1.5346,-1.5292,-1.5288,-1.5234,-1.5007,-1.4593,-1.38,-1.2954,-1.2132,-1.1262,-1.0589,-1.0104,-1.007,-1.0052,-1.0052,-1.003,-1.0001,-1.0016,-1.0426,-1.0679,-1.0717,-1.1942,-1.2944,-1.3545,-1.4077,-1.4313,-1.4167,-1.4358,-1.4923,-1.5958,-1.7776,-1.884,-1.8583,-1.9288,-1.9773,-1.9718,-1.9767,-1.9813,-1.9811,-1.9869,-1.9877,-1.9832,-1.9876,-1.9886,-1.9813,-2.0934,-2.1831,-2.2339,-2.3195,-2.4035,-2.431,-2.4275,-2.419,-2.4199,-2.4199,-2.4199,-2.4199,-2.4199,-2.4199,-2.4199,-2.4199,-2.4199,-2.4199,-2.4199,-2.4199,-2.4199,-2.4199,-2.4199,-2.4199,-2.4199,-2.4199,-2.4199,-2.4199,-2.4199,-2.4199,-2.4199,-2.4199,-1.7726,-1.7825,-1.8035,-1.8112,-1.8125,-1.8399,-1.8699,-1.8975,-1.9116,-1.9465,-1.9945,-2.0102,-2.0263,-2.0407,-2.0435,-2.0491,-2.055,-2.0557,-2.0574,-2.0596,-2.0596,-2.0596,-2.0596,-2.0549,-2.0531,-2.0578,-2.054,-2.0533,-2.0552,-2.0575,-2.0565,-2.0371,-1.8837,-1.8008,-1.7949,-1.626,-1.541,-1.54,-1.5347,-1.5323,-1.5293,-1.5243,-1.5224,-1.5157,-1.4359,-1.3629,-1.2988,-1.1992,-1.1116,-1.0462,-1.0233,-1.0133,-1.0133,-1.0113,-1.0214,-1.0439,-1.105,-1.1608,-1.2012,-1.3161,-1.3932,-1.398,-1.4632,-1.5026,-1.497,-1.4776,-1.5168,-1.6478,-1.8747,-1.9864,-1.9202,-1.9503,-1.9896,-1.9856,-1.9904,-1.9922,-1.9926,-2.0003,-2.004,-1.9952,-2.0001,-2.0028,-2.0219,-2.136,-2.2519,-2.3085,-2.3969,-2.4608,-2.4517,-2.4414,-2.4365,-2.4228,-2.4199,-2.4199,-2.4199,-2.4199,-2.4199,-2.4199,-2.4199,-2.4199,-2.4199,-2.4199,-2.4199,-2.4199,-2.4199,-2.4199,-2.4199,-2.4199,-2.4199,-2.4199,-2.4199,-2.4199,-2.4199,-2.4199,-2.4199,-1.7542,-1.778,-1.7864,-1.7816,-1.7869,-1.8133,-1.8281,-1.8393,-1.8807,-1.9104,-1.9365,-1.9879,-2.0106,-2.0142,-2.0272,-2.037,-2.042,-2.0414,-2.0484,-2.0596,-2.0596,-2.0596,-2.0596,-2.0596,-2.0558,-2.053,-2.057,-2.0532,-2.0447,-2.0493,-2.0483,-2.0246,-1.879,-1.7978,-1.7734,-1.625,-1.542,-1.541,-1.539,-1.5352,-1.5305,-1.5291,-1.5253,-1.5195,-1.4422,-1.3971,-1.3797,-1.2352,-1.1468,-1.1324,-1.0643,-1.0227,-1.0237,-1.0214,-1.0552,-1.1304,-1.1679,-1.2385,-1.359,-1.3849,-1.4261,-1.4966,-1.5091,-1.5206,-1.5204,-1.5153,-1.5802,-1.7401,-1.918,-2.0105,-1.9907,-2.0081,-2.015,-2.0008,-2.0121,-2.0251,-2.0241,-2.0259,-2.0278,-2.026,-2.023,-2.0257,-2.0388,-2.1664,-2.3199,-2.4358,-2.4793,-2.4981,-2.4641,-2.471,-2.4669,-2.433,-2.4209,-2.4209,-2.419,-2.4199,-2.4199,-2.4199,-2.4199,-2.4199,-2.4199,-2.4199,-2.4199,-2.4199,-2.4199,-2.4199,-2.4199,-2.4199,-2.4199,-2.4199,-2.4199,-2.4199,-2.4199,-2.4199,-2.4199,-1.8321,-1.8403,-1.7989,-1.7789,-1.7811,-1.7905,-1.8154,-1.8469,-1.8678,-1.8947,-1.9283,-1.9654,-1.9867,-1.998,-2.0173,-2.0259,-2.0279,-2.0361,-2.042,-2.0488,-2.0527,-2.0537,-2.0537,-2.0537,-2.0539,-2.0555,-2.0545,-2.0547,-2.0534,-2.055,-2.0557,-2.0402,-1.9328,-1.852,-1.793,-1.6768,-1.5928,-1.543,-1.541,-1.5376,-1.5348,-1.5318,-1.5291,-1.5234,-1.4924,-1.4511,-1.4072,-1.3335,-1.2762,-1.2305,-1.1933,-1.1749,-1.173,-1.1394,-1.1513,-1.223,-1.2819,-1.3618,-1.4693,-1.4743,-1.4882,-1.5253,-1.5253,-1.5451,-1.595,-1.5534,-1.609,-1.8196,-1.9613,-2.0265,-2.0188,-2.0256,-2.0256,-2.0198,-2.0246,-2.0302,-2.0302,-2.0302,-2.0302,-2.0302,-2.0302,-2.0302,-2.0525,-2.1754,-2.3389,-2.4764,-2.5185,-2.5027,-2.4826,-2.4839,-2.4727,-2.4469,-2.4375,-2.4312,-2.4238,-2.4199,-2.4199,-2.4199,-2.4199,-2.4199,-2.4199,-2.4199,-2.4199,-2.4199,-2.4199,-2.4199,-2.4199,-2.4199,-2.4199,-2.4199,-2.4199,-2.4199,-2.4199,-2.4199,-2.4199,-1.8515,-1.8513,-1.8014,-1.7847,-1.7914,-1.7914,-1.8175,-1.8594,-1.8669,-1.8895,-1.9212,-1.9433,-1.9599,-1.9743,-1.9984,-2.0086,-2.0142,-2.0266,-2.0331,-2.0357,-2.0441,-2.0478,-2.0473,-2.0478,-2.0527,-2.0537,-2.0541,-2.054,-2.0568,-2.0561,-2.0558,-2.0423,-1.97,-1.8862,-1.7977,-1.7124,-1.6269,-1.5488,-1.541,-1.541,-1.54,-1.5357,-1.5308,-1.5304,-1.5318,-1.5053,-1.4492,-1.4187,-1.3773,-1.3196,-1.2952,-1.2835,-1.2816,-1.2415,-1.2571,-1.3442,-1.4048,-1.4642,-1.5291,-1.5304,-1.5284,-1.5294,-1.5284,-1.5656,-1.6314,-1.6185,-1.6907,-1.8758,-1.9838,-2.0302,-2.0302,-2.0302,-2.0302,-2.0302,-2.0302,-2.0302,-2.0302,-2.0302,-2.0302,-2.0302,-2.0302,-2.0533,-2.1081,-2.2302,-2.3764,-2.4976,-2.5164,-2.5044,-2.5022,-2.4946,-2.4846,-2.4556,-2.4543,-2.4478,-2.4256,-2.4199,-2.4199,-2.4199,-2.4199,-2.4199,-2.4199,-2.4199,-2.4199,-2.4199,-2.4199,-2.4199,-2.4199,-2.4199,-2.4199,-2.4199,-2.4199,-2.4199,-2.4199,-2.4199,-2.4199,-1.7568,-1.7859,-1.7845,-1.8026,-1.8192,-1.8253,-1.8374,-1.8739,-1.8905,-1.9028,-1.9069,-1.9246,-1.9311,-1.9352,-1.9682,-1.9859,-1.9935,-2.0059,-2.0149,-2.0221,-2.0337,-2.0408,-2.0422,-2.0469,-2.0478,-2.0439,-2.0521,-2.0547,-2.0512,-2.0511,-2.047,-2.0379,-1.9719,-1.887,-1.8008,-1.7211,-1.6289,-1.5605,-1.5449,-1.541,-1.54,-1.54,-1.5351,-1.5319,-1.5362,-1.535,-1.522,-1.4531,-1.4082,-1.4062,-1.3389,-1.2959,-1.2939,-1.293,-1.3603,-1.4971,-1.5273,-1.5332,-1.5371,-1.5333,-1.5303,-1.53,-1.53,-1.5692,-1.6658,-1.7228,-1.8053,-1.9149,-1.9913,-2.0321,-2.0312,-2.0302,-2.0302,-2.0302,-2.0302,-2.0302,-2.0302,-2.0302,-2.0302,-2.0312,-2.0379,-2.0985,-2.2379,-2.3465,-2.4255,-2.5034,-2.5283,-2.5226,-2.5091,-2.5158,-2.502,-2.4713,-2.4617,-2.4629,-2.4303,-2.4199,-2.4199,-2.4209,-2.4228,-2.4218,-2.4218,-2.4199,-2.4209,-2.4199,-2.4199,-2.4199,-2.4199,-2.4199,-2.4199,-2.4199,-2.4199,-2.4199,-2.4199,-2.4199,-2.4199,-1.8883,-1.9165,-1.8699,-1.8944,-1.9646,-1.9685,-1.9664,-1.9613,-1.9741,-1.953,-1.9235,-1.9274,-1.9295,-1.9323,-1.9419,-1.9563,-1.9735,-1.9936,-2.005,-2.0078,-2.026,-2.034,-2.0344,-2.0399,-2.0436,-2.0407,-2.0446,-2.0496,-2.0508,-2.0537,-2.0538,-2.0505,-2.0282,-1.9681,-1.8802,-1.7963,-1.7109,-1.6279,-1.5706,-1.5412,-1.5403,-1.5368,-1.5317,-1.5297,-1.537,-1.541,-1.541,-1.5044,-1.4878,-1.488,-1.4566,-1.443,-1.444,-1.4428,-1.4684,-1.5245,-1.5377,-1.541,-1.541,-1.5378,-1.5374,-1.5374,-1.5354,-1.6006,-1.7199,-1.7813,-1.852,-1.9718,-2.0265,-2.0446,-2.0369,-2.0321,-2.0302,-2.0302,-2.0302,-2.0302,-2.0302,-2.0302,-2.0302,-2.0369,-2.0716,-2.1562,-2.2581,-2.3581,-2.4408,-2.512,-2.5303,-2.5255,-2.5216,-2.5274,-2.5139,-2.4813,-2.4727,-2.4645,-2.4256,-2.4199,-2.4209,-2.4228,-2.4275,-2.4358,-2.4377,-2.4284,-2.4266,-2.4338,-2.4301,-2.4228,-2.4228,-2.4199,-2.4199,-2.4199,-2.4199,-2.4199,-2.4199,-2.4199,-2.4199,-1.9669,-1.9875,-1.9452,-1.9776,-2.0594,-2.0612,-2.0495,-2.0318,-2.0281,-1.9921,-1.939,-1.9295,-1.9295,-1.9295,-1.9295,-1.9374,-1.9523,-1.9742,-1.9889,-1.9944,-2.0122,-2.0246,-2.0302,-2.035,-2.0359,-2.0355,-2.039,-2.043,-2.0476,-2.0509,-2.0529,-2.0519,-2.0529,-2.0099,-1.925,-1.8392,-1.7544,-1.6665,-1.5815,-1.5366,-1.5363,-1.5318,-1.5292,-1.5299,-1.5332,-1.5374,-1.5374,-1.5327,-1.5292,-1.5292,-1.5292,-1.5292,-1.5292,-1.5292,-1.5288,-1.5273,-1.5349,-1.5409,-1.541,-1.541,-1.541,-1.5439,-1.5713,-1.6494,-1.7822,-1.8008,-1.8848,-2.0066,-2.0565,-2.0547,-2.0472,-2.04,-2.033,-2.0308,-2.0302,-2.0302,-2.0302,-2.0302,-2.0302,-2.0456,-2.1283,-2.211,-2.2783,-2.3822,-2.4639,-2.5245,-2.5303,-2.5303,-2.5303,-2.5293,-2.5195,-2.4873,-2.4843,-2.4663,-2.4366,-2.4275,-2.433,-2.4348,-2.4461,-2.4527,-2.4563,-2.4437,-2.4403,-2.446,-2.4412,-2.4321,-2.4247,-2.4209,-2.4199,-2.4199,-2.4199,-2.4199,-2.4199,-2.4199,-2.4199,-1.9664,-2.0086,-2.0002,-2.0435,-2.1026,-2.1118,-2.0845,-2.0701,-2.066,-2.0273,-1.9528,-1.9378,-1.9381,-1.9305,-1.9295,-1.9295,-1.9372,-1.9536,-1.9671,-1.9802,-1.9935,-2.0107,-2.0277,-2.0286,-2.0285,-2.0315,-2.0358,-2.0389,-2.0402,-2.0406,-2.041,-2.0416,-2.041,-2.0046,-1.9154,-1.8452,-1.7556,-1.6729,-1.5909,-1.5388,-1.5295,-1.5299,-1.5285,-1.5289,-1.5297,-1.5301,-1.5301,-1.5284,-1.5285,-1.5289,-1.5289,-1.5288,-1.528,-1.5285,-1.5259,-1.523,-1.5318,-1.5398,-1.5387,-1.541,-1.541,-1.5518,-1.6172,-1.6973,-1.7783,-1.8076,-1.8789,-2.0215,-2.0596,-2.0591,-2.0574,-2.0471,-2.0356,-2.0321,-2.0302,-2.0302,-2.0302,-2.0302,-2.0302,-2.0514,-2.1639,-2.2668,-2.3129,-2.4178,-2.5139,-2.5255,-2.5303,-2.5303,-2.5303,-2.5303,-2.5168,-2.4945,-2.4867,-2.4728,-2.4517,-2.4366,-2.4436,-2.4519,-2.4639,-2.4753,-2.476,-2.4689,-2.4676,-2.4692,-2.445,-2.433,-2.4228,-2.4199,-2.4199,-2.4199,-2.4199,-2.4199,-2.4199,-2.4199,-2.4199,-2.0265,-2.1481,-2.1233,-2.164,-2.2459,-2.2713,-2.2591,-2.2227,-2.2217,-2.1437,-2.0308,-2.0124,-1.9822,-1.9363,-1.9295,-1.928,-1.9305,-1.9384,-1.9484,-1.966,-1.9798,-1.9954,-2.0059,-2.0106,-2.017,-2.0277,-2.0312,-2.0342,-2.0337,-2.0369,-2.0389,-2.0389,-2.0379,-2.0263,-1.9919,-1.914,-1.8308,-1.7505,-1.6594,-1.5875,-1.5359,-1.5243,-1.5224,-1.5224,-1.5234,-1.5224,-1.5234,-1.5234,-1.5234,-1.5224,-1.5234,-1.5234,-1.5234,-1.5224,-1.5224,-1.5205,-1.5282,-1.5318,-1.5343,-1.5391,-1.541,-1.5566,-1.6221,-1.707,-1.791,-1.8408,-1.9189,-2.04,-2.0596,-2.0601,-2.0572,-2.0474,-2.0371,-2.0298,-2.0302,-2.0302,-2.0312,-2.0331,-2.0302,-2.0494,-2.1773,-2.2831,-2.3456,-2.4543,-2.5245,-2.5274,-2.5274,-2.5274,-2.5284,-2.5264,-2.5293,-2.5168,-2.503,-2.4804,-2.4576,-2.4442,-2.4478,-2.4552,-2.4685,-2.4804,-2.4849,-2.4879,-2.4884,-2.4742,-2.4515,-2.4349,-2.4247,-2.4199,-2.4199,-2.4199,-2.4199,-2.4199,-2.4199,-2.4199,-2.4199,-2.0871,-2.2192,-2.1687,-2.1879,-2.2561,-2.2567,-2.2234,-2.1905,-2.2114,-2.1352,-2.0177,-2.0232,-1.9922,-1.931,-1.9207,-1.9132,-1.9039,-1.9031,-1.9158,-1.9404,-1.962,-1.9788,-1.9932,-1.9983,-2.0031,-2.0107,-2.0162,-2.0162,-2.0117,-2.0145,-2.0174,-2.0184,-2.0174,-2.0155,-2.005,-1.9009,-1.8136,-1.7574,-1.65,-1.5656,-1.5252,-1.5119,-1.5098,-1.5094,-1.5079,-1.5071,-1.508,-1.5114,-1.5149,-1.5189,-1.5195,-1.5195,-1.5195,-1.5195,-1.5195,-1.5205,-1.5249,-1.5288,-1.5298,-1.5352,-1.541,-1.5576,-1.6494,-1.7373,-1.8076,-1.8818,-1.9912,-2.0439,-2.0596,-2.0596,-2.0547,-2.0489,-2.04,-2.0298,-2.0302,-2.0302,-2.034,-2.0581,-2.0542,-2.0831,-2.2062,-2.3129,-2.3736,-2.4465,-2.5147,-2.5177,-2.5146,-2.5137,-2.5136,-2.5138,-2.5139,-2.5118,-2.4962,-2.4757,-2.4585,-2.4528,-2.451,-2.4575,-2.4654,-2.4762,-2.4824,-2.4879,-2.4888,-2.466,-2.4436,-2.4312,-2.4199,-2.4199,-2.4199,-2.4199,-2.4199,-2.4199,-2.4199,-2.4199,-2.4199,-2.1454,-2.2136,-2.149,-2.1379,-2.1576,-2.1028,-2.0591,-2.0167,-2.0705,-2.0371,-1.9471,-1.984,-1.9687,-1.9092,-1.8966,-1.8861,-1.8644,-1.865,-1.8786,-1.9049,-1.9315,-1.9554,-1.9783,-1.9912,-1.9922,-1.9878,-1.9943,-1.9923,-1.9866,-1.9855,-1.9811,-1.9856,-1.9866,-1.983,-1.9607,-1.8216,-1.7538,-1.7208,-1.5875,-1.5128,-1.4949,-1.4912,-1.492,-1.491,-1.4914,-1.4921,-1.4942,-1.4983,-1.5072,-1.5174,-1.5195,-1.5195,-1.5195,-1.5195,-1.5195,-1.5205,-1.5272,-1.5289,-1.5309,-1.5364,-1.541,-1.5527,-1.6748,-1.7969,-1.8115,-1.9277,-2.0254,-2.0557,-2.0596,-2.0576,-2.0537,-2.049,-2.0423,-2.0321,-2.0302,-2.0302,-2.0369,-2.0948,-2.1129,-2.1129,-2.2533,-2.4024,-2.3851,-2.4615,-2.494,-2.5044,-2.4972,-2.4953,-2.4929,-2.4948,-2.4872,-2.4842,-2.4832,-2.4747,-2.4586,-2.4425,-2.441,-2.4502,-2.4568,-2.4607,-2.4738,-2.4811,-2.4818,-2.4598,-2.4392,-2.4266,-2.4199,-2.4199,-2.4199,-2.4199,-2.4199,-2.4199,-2.4199,-2.4199,-2.4199,-2.1007,-2.1703,-2.1255,-2.1267,-2.1518,-2.1065,-2.0769,-2.0687,-2.0815,-2.0325,-1.9755,-1.9779,-1.9431,-1.8762,-1.8699,-1.8678,-1.8586,-1.8569,-1.8607,-1.8706,-1.8794,-1.919,-1.9591,-1.9788,-1.9815,-1.98,-1.9834,-1.9845,-1.9809,-1.9764,-1.9773,-1.9805,-1.975,-1.9778,-1.961,-1.868,-1.7923,-1.7272,-1.6319,-1.5394,-1.4925,-1.4868,-1.4892,-1.4897,-1.4883,-1.4879,-1.4901,-1.4967,-1.5065,-1.5183,-1.5195,-1.5195,-1.5195,-1.5195,-1.5195,-1.5205,-1.5259,-1.5289,-1.5303,-1.5358,-1.54,-1.5488,-1.6455,-1.7314,-1.7978,-1.9004,-1.9883,-2.0381,-2.0596,-2.0594,-2.0551,-2.0479,-2.0383,-2.0317,-2.0302,-2.0302,-2.0427,-2.1014,-2.162,-2.2187,-2.3331,-2.4168,-2.4707,-2.4946,-2.5187,-2.5162,-2.5044,-2.4917,-2.4872,-2.4848,-2.4827,-2.479,-2.4774,-2.4705,-2.4588,-2.4395,-2.434,-2.4428,-2.4453,-2.4374,-2.4547,-2.4693,-2.4659,-2.4544,-2.4356,-2.4209,-2.4199,-2.4199,-2.4199,-2.4199,-2.4199,-2.4199,-2.4199,-2.4199,-2.4199,-2.0052,-2.0853,-2.0179,-2.0042,-2.0187,-1.9823,-1.9665,-1.973,-1.9979,-1.9749,-1.9279,-1.9486,-1.9151,-1.848,-1.8427,-1.8379,-1.8287,-1.8274,-1.8301,-1.8465,-1.8568,-1.8887,-1.928,-1.9476,-1.9561,-1.9615,-1.9667,-1.9612,-1.9495,-1.9472,-1.9406,-1.9309,-1.9411,-1.9415,-1.9184,-1.8337,-1.7569,-1.6784,-1.5876,-1.5007,-1.4523,-1.4484,-1.4476,-1.4498,-1.4565,-1.4639,-1.4791,-1.4851,-1.4946,-1.5091,-1.5162,-1.5195,-1.5195,-1.5195,-1.5195,-1.5195,-1.5263,-1.5289,-1.531,-1.5371,-1.54,-1.5566,-1.6211,-1.708,-1.7939,-1.8809,-1.9658,-2.0449,-2.0576,-2.0586,-2.0533,-2.0428,-2.0346,-2.0302,-2.0302,-2.0302,-2.0312,-2.136,-2.2149,-2.2899,-2.3832,-2.4736,-2.5264,-2.5234,-2.5197,-2.5136,-2.4997,-2.4873,-2.4787,-2.4809,-2.4807,-2.4769,-2.468,-2.4616,-2.4515,-2.4349,-2.4265,-2.4358,-2.4339,-2.4284,-2.4357,-2.4528,-2.4469,-2.4399,-2.4275,-2.4199,-2.4199,-2.4199,-2.4199,-2.4199,-2.4199,-2.4199,-2.4199,-2.4199,-2.4199,-1.8888,-1.9735,-1.8711,-1.8312,-1.8347,-1.794,-1.7952,-1.7938,-1.8511,-1.8546,-1.8331,-1.8806,-1.8559,-1.8071,-1.7988,-1.7936,-1.7712,-1.7689,-1.7844,-1.8044,-1.827,-1.8548,-1.8869,-1.9061,-1.9148,-1.9206,-1.94,-1.9274,-1.9066,-1.8992,-1.8868,-1.8803,-1.8902,-1.8777,-1.8386,-1.7433,-1.6652,-1.6031,-1.4968,-1.4305,-1.4047,-1.4025,-1.4018,-1.4047,-1.4216,-1.4382,-1.4581,-1.4698,-1.4804,-1.495,-1.5104,-1.5177,-1.5183,-1.5195,-1.5195,-1.5205,-1.5259,-1.5294,-1.5307,-1.5371,-1.541,-1.5547,-1.6201,-1.7061,-1.7939,-1.8809,-1.9658,-2.0527,-2.0596,-2.0566,-2.0488,-2.0371,-2.0313,-2.0302,-2.0302,-2.0302,-2.06,-2.1783,-2.2812,-2.2985,-2.4332,-2.512,-2.5264,-2.5164,-2.5031,-2.5169,-2.5038,-2.4952,-2.4863,-2.4842,-2.4811,-2.4761,-2.4645,-2.4487,-2.4386,-2.4274,-2.4246,-2.4266,-2.4256,-2.4228,-2.4228,-2.4303,-2.4256,-2.4199,-2.4199,-2.4199,-2.4199,-2.4199,-2.4199,-2.4199,-2.4199,-2.4199,-2.4199,-2.4199,-2.4199,-1.7914,-1.8662,-1.7875,-1.7724,-1.7911,-1.7592,-1.7394,-1.7431,-1.7586,-1.7646,-1.7547,-1.7677,-1.7526,-1.7166,-1.7384,-1.732,-1.7076,-1.7085,-1.7183,-1.7477,-1.7539,-1.7898,-1.8293,-1.8551,-1.869,-1.8771,-1.8798,-1.8744,-1.866,-1.8596,-1.8643,-1.858,-1.8479,-1.8369,-1.7722,-1.6915,-1.6049,-1.5331,-1.4426,-1.394,-1.3847,-1.3824,-1.3846,-1.3913,-1.4082,-1.4214,-1.4353,-1.4565,-1.4708,-1.4794,-1.4948,-1.5101,-1.5177,-1.5195,-1.5195,-1.5214,-1.5253,-1.5289,-1.5304,-1.5361,-1.541,-1.5478,-1.6211,-1.708,-1.792,-1.8789,-1.9648,-2.0391,-2.0596,-2.0547,-2.0438,-2.0355,-2.0306,-2.0302,-2.0302,-2.0302,-2.0562,-2.1793,-2.2841,-2.3533,-2.4466,-2.5303,-2.5303,-2.5274,-2.5205,-2.5196,-2.5124,-2.5044,-2.4978,-2.4929,-2.4869,-2.4837,-2.4775,-2.4651,-2.451,-2.4375,-2.4303,-2.4256,-2.4218,-2.4199,-2.4199,-2.4199,-2.4199,-2.4199,-2.4199,-2.4199,-2.4199,-2.4199,-2.4199,-2.4199,-2.4199,-2.4199,-2.4199,-2.4199,-2.4199,-1.6441,-1.724,-1.6712,-1.6758,-1.7087,-1.7079,-1.7061,-1.706,-1.7077,-1.7066,-1.7065,-1.7058,-1.6956,-1.6834,-1.6965,-1.6952,-1.6841,-1.6789,-1.6884,-1.7052,-1.7076,-1.724,-1.7461,-1.771,-1.7898,-1.8249,-1.8194,-1.8083,-1.7991,-1.7956,-1.7835,-1.7785,-1.7902,-1.7769,-1.732,-1.6483,-1.5758,-1.5089,-1.4147,-1.3537,-1.3344,-1.3426,-1.3693,-1.3847,-1.402,-1.4129,-1.4356,-1.4504,-1.4624,-1.4727,-1.4866,-1.5045,-1.5181,-1.5195,-1.5195,-1.5214,-1.5234,-1.5272,-1.5313,-1.5338,-1.5352,-1.5387,-1.6199,-1.7041,-1.7852,-1.8672,-1.9551,-2.0312,-2.0586,-2.0545,-2.0412,-2.0343,-2.031,-2.0302,-2.0302,-2.0302,-2.0571,-2.1764,-2.3004,-2.3649,-2.4591,-2.512,-2.5303,-2.5303,-2.5293,-2.5245,-2.5245,-2.5172,-2.5183,-2.5117,-2.5023,-2.4971,-2.4937,-2.4831,-2.4672,-2.4528,-2.4375,-2.4294,-2.4199,-2.4199,-2.4199,-2.4199,-2.4199,-2.4199,-2.4199,-2.4199,-2.4199,-2.4199,-2.4199,-2.4199,-2.4199,-2.4199,-2.4199,-2.4199,-2.4199,-1.4874,-1.5734,-1.5506,-1.5668,-1.6035,-1.6351,-1.648,-1.648,-1.6515,-1.6421,-1.6507,-1.6509,-1.634,-1.641,-1.6413,-1.6488,-1.6416,-1.6477,-1.6416,-1.6525,-1.6696,-1.6799,-1.6885,-1.6853,-1.7012,-1.7713,-1.7603,-1.7384,-1.7258,-1.7148,-1.7196,-1.6936,-1.7052,-1.6952,-1.6689,-1.6065,-1.5162,-1.4466,-1.3642,-1.3063,-1.282,-1.2936,-1.3328,-1.3687,-1.3904,-1.4051,-1.4289,-1.4455,-1.4537,-1.4657,-1.4823,-1.4986,-1.5113,-1.5199,-1.5195,-1.5195,-1.5214,-1.5243,-1.5282,-1.532,-1.5362,-1.5485,-1.639,-1.7273,-1.8086,-1.8906,-1.9707,-2.0234,-2.0593,-2.0551,-2.0412,-2.034,-2.0312,-2.0302,-2.0302,-2.0302,-2.0571,-2.1687,-2.2638,-2.3476,-2.4466,-2.5216,-2.5303,-2.5303,-2.5303,-2.5303,-2.5303,-2.5303,-2.5303,-2.5274,-2.5168,-2.5129,-2.5097,-2.4939,-2.4766,-2.4575,-2.4445,-2.4294,-2.4199,-2.4199,-2.4199,-2.4199,-2.4199,-2.4199,-2.4199,-2.4199,-2.4199,-2.4199,-2.4199,-2.4199,-2.4199,-2.4199,-2.4199,-2.4199,-2.4199,-1.3663,-1.4216,-1.4533,-1.4727,-1.4854,-1.5161,-1.5301,-1.5301,-1.5301,-1.5308,-1.5286,-1.5301,-1.5131,-1.5016,-1.5197,-1.5153,-1.5122,-1.5323,-1.5579,-1.5834,-1.6094,-1.6351,-1.6435,-1.6044,-1.6123,-1.6533,-1.6725,-1.6761,-1.6803,-1.6856,-1.6669,-1.6755,-1.6803,-1.6406,-1.5628,-1.4887,-1.4377,-1.3694,-1.3038,-1.2706,-1.2668,-1.2858,-1.3183,-1.3565,-1.38,-1.396,-1.41,-1.435,-1.4499,-1.4556,-1.4775,-1.4894,-1.4994,-1.511,-1.5183,-1.5195,-1.5195,-1.5224,-1.5272,-1.5297,-1.5719,-1.64,-1.7141,-1.8039,-1.8916,-1.9727,-2.0225,-2.042,-2.0586,-2.0545,-2.04,-2.0339,-2.0312,-2.0302,-2.0302,-2.0302,-2.0494,-2.1195,-2.2098,-2.2831,-2.412,-2.5303,-2.5303,-2.5303,-2.5303,-2.5303,-2.5303,-2.5303,-2.5303,-2.5303,-2.5264,-2.5255,-2.5274,-2.5061,-2.4847,-2.4639,-2.447,-2.4294,-2.4199,-2.4199,-2.4199,-2.4199,-2.4199,-2.4199,-2.4199,-2.4199,-2.4199,-2.4199,-2.4199,-2.4199,-2.4199,-2.4199,-2.4199,-2.4199,-2.4199,-1.27,-1.3128,-1.3584,-1.3749,-1.3781,-1.4206,-1.4212,-1.398,-1.3951,-1.3942,-1.3942,-1.3942,-1.3891,-1.3788,-1.3865,-1.3996,-1.4224,-1.4582,-1.4878,-1.5092,-1.5286,-1.5419,-1.565,-1.5205,-1.5189,-1.5352,-1.555,-1.5758,-1.59,-1.5895,-1.5968,-1.5983,-1.614,-1.599,-1.5453,-1.4825,-1.4154,-1.3402,-1.2903,-1.2514,-1.2467,-1.2783,-1.3179,-1.3591,-1.3812,-1.3988,-1.4219,-1.4353,-1.4497,-1.4545,-1.4747,-1.4868,-1.4954,-1.5069,-1.5195,-1.5195,-1.5195,-1.5205,-1.5234,-1.5272,-1.564,-1.6513,-1.7413,-1.8288,-1.9187,-1.9971,-2.0557,-2.0596,-2.0557,-2.0515,-2.0414,-2.0332,-2.031,-2.0302,-2.0302,-2.0302,-2.0465,-2.1051,-2.1618,-2.2282,-2.3542,-2.4611,-2.5303,-2.5303,-2.5303,-2.5303,-2.5303,-2.5303,-2.5303,-2.5303,-2.5303,-2.5293,-2.5264,-2.5049,-2.4865,-2.4706,-2.447,-2.4294,-2.4199,-2.4199,-2.4199,-2.4199,-2.4199,-2.4199,-2.4199,-2.4199,-2.4199,-2.4199,-2.4199,-2.4199,-2.4199,-2.4199,-2.4199,-2.4199,-2.4199,-1.1735,-1.2176,-1.263,-1.282,-1.283,-1.3202,-1.3154,-1.2834,-1.2787,-1.2799,-1.2765,-1.2758,-1.2799,-1.2771,-1.2839,-1.3023,-1.3551,-1.3986,-1.4244,-1.4438,-1.456,-1.4567,-1.4501,-1.4406,-1.4501,-1.4683,-1.4367,-1.4494,-1.5,-1.5073,-1.5001,-1.5174,-1.5467,-1.5659,-1.5444,-1.4567,-1.4218,-1.3659,-1.3013,-1.2355,-1.2415,-1.2743,-1.3229,-1.376,-1.3874,-1.405,-1.4261,-1.4441,-1.4485,-1.4556,-1.4707,-1.4859,-1.4911,-1.505,-1.5162,-1.5199,-1.5195,-1.5195,-1.5234,-1.5509,-1.5998,-1.6908,-1.7698,-1.856,-1.9383,-2.0207,-2.0596,-2.057,-2.0507,-2.0445,-2.0371,-2.0324,-2.0308,-2.0302,-2.0302,-2.0331,-2.0465,-2.0821,-2.1224,-2.2042,-2.3109,-2.3937,-2.4659,-2.5303,-2.5303,-2.5303,-2.5303,-2.5303,-2.5303,-2.5303,-2.5293,-2.5283,-2.5202,-2.499,-2.4832,-2.4771,-2.4519,-2.4266,-2.4218,-2.4199,-2.4199,-2.4199,-2.4199,-2.4199,-2.4199,-2.4199,-2.4199,-2.4199,-2.4199,-2.4199,-2.4199,-2.4199,-2.4199,-2.4199,-2.4199,-1.068,-1.1191,-1.1715,-1.194,-1.1892,-1.1965,-1.197,-1.1895,-1.1819,-1.1934,-1.1754,-1.1881,-1.1833,-1.1869,-1.1911,-1.2181,-1.2637,-1.3073,-1.3457,-1.3782,-1.4072,-1.4189,-1.431,-1.4117,-1.3973,-1.4006,-1.3642,-1.3868,-1.4303,-1.4491,-1.4588,-1.4651,-1.4921,-1.4994,-1.4667,-1.4227,-1.3552,-1.3006,-1.2319,-1.2154,-1.2546,-1.2907,-1.326,-1.3561,-1.3867,-1.4157,-1.4401,-1.4621,-1.4684,-1.4602,-1.4691,-1.4804,-1.4894,-1.4981,-1.5082,-1.5162,-1.5195,-1.5205,-1.5301,-1.5819,-1.6596,-1.7478,-1.8425,-1.9414,-2.0068,-2.0381,-2.0583,-2.0521,-2.0445,-2.0404,-2.0355,-2.0332,-2.0312,-2.03,-2.0315,-2.0349,-2.0453,-2.0527,-2.0935,-2.1436,-2.2389,-2.3262,-2.4043,-2.4745,-2.5303,-2.5303,-2.5303,-2.5303,-2.5303,-2.5303,-2.5202,-2.5169,-2.5139,-2.4943,-2.4747,-2.4697,-2.4575,-2.4284,-2.4218,-2.4218,-2.4199,-2.4199,-2.4199,-2.4199,-2.4199,-2.4199,-2.4199,-2.4199,-2.4199,-2.4199,-2.4199,-2.4199,-2.4199,-2.4199,-2.4199,-0.9213,-0.9728,-1.0258,-1.0287,-1.0113,-1.0325,-1.0292,-1.0065,-1.0036,-1.0036,-1.0036,-1.0031,-1.0191,-1.0547,-1.0733,-1.1175,-1.1662,-1.2177,-1.2466,-1.2724,-1.2979,-1.3029,-1.2904,-1.2806,-1.2841,-1.2985,-1.2906,-1.2953,-1.344,-1.3887,-1.4138,-1.4198,-1.4525,-1.469,-1.4228,-1.4076,-1.3632,-1.3085,-1.2575,-1.2475,-1.2886,-1.3463,-1.3954,-1.4187,-1.4713,-1.5039,-1.53,-1.5503,-1.5449,-1.535,-1.5433,-1.5227,-1.4905,-1.4865,-1.5073,-1.5183,-1.5122,-1.5122,-1.5272,-1.6075,-1.6971,-1.7844,-1.8727,-1.9548,-2.0332,-2.0596,-2.0596,-2.0574,-2.0462,-2.0413,-2.0407,-2.0387,-2.036,-2.0356,-2.0361,-2.0381,-2.041,-2.0403,-2.0646,-2.1133,-2.1683,-2.2611,-2.3571,-2.4485,-2.512,-2.5303,-2.5303,-2.5303,-2.5303,-2.5303,-2.5169,-2.4994,-2.4965,-2.4911,-2.4717,-2.4575,-2.4575,-2.4366,-2.4237,-2.4209,-2.4199,-2.4199,-2.4199,-2.4199,-2.4199,-2.4199,-2.4199,-2.4199,-2.4199,-2.4199,-2.4199,-2.4199,-2.4199,-2.418,-2.4151,-0.7825,-0.8133,-0.8876,-0.9013,-0.8712,-0.9084,-0.9089,-0.8756,-0.8793,-0.8756,-0.8756,-0.8918,-0.9235,-0.9549,-1.0084,-1.0624,-1.1046,-1.145,-1.1687,-1.1777,-1.1805,-1.1932,-1.2024,-1.1915,-1.1915,-1.1811,-1.224,-1.2389,-1.2579,-1.2943,-1.3342,-1.3556,-1.3864,-1.4066,-1.4112,-1.4028,-1.3722,-1.3076,-1.3075,-1.313,-1.3355,-1.4151,-1.465,-1.5077,-1.5552,-1.6087,-1.6392,-1.6432,-1.6189,-1.6166,-1.5931,-1.5491,-1.4766,-1.4804,-1.539,-1.5637,-1.5757,-1.5749,-1.6089,-1.67,-1.7307,-1.8149,-1.8994,-1.9951,-2.041,-2.0596,-2.0586,-2.0576,-2.0528,-2.0483,-2.047,-2.0415,-2.0402,-2.0412,-2.0431,-2.0438,-2.0449,-2.0469,-2.0508,-2.0834,-2.141,-2.212,-2.3123,-2.4225,-2.488,-2.5207,-2.5303,-2.5303,-2.5293,-2.5283,-2.5182,-2.5009,-2.4896,-2.4854,-2.4687,-2.4536,-2.4512,-2.4436,-2.4303,-2.4228,-2.4218,-2.4199,-2.4199,-2.4199,-2.4199,-2.4199,-2.4199,-2.4199,-2.4199,-2.4199,-2.4199,-2.4199,-2.4199,-2.4151,-2.4132,-0.6813,-0.6517,-0.8047,-0.8671,-0.863,-0.8724,-0.8716,-0.8553,-0.863,-0.8598,-0.859,-0.9079,-0.9195,-0.9523,-0.979,-1.0293,-1.0905,-1.104,-1.1168,-1.1464,-1.1789,-1.1535,-1.14,-1.1383,-1.1579,-1.1621,-1.1689,-1.1726,-1.1864,-1.1989,-1.2299,-1.259,-1.3115,-1.3176,-1.3441,-1.3761,-1.3687,-1.334,-1.3528,-1.3783,-1.3995,-1.4565,-1.5217,-1.5547,-1.58,-1.6041,-1.6331,-1.6628,-1.6733,-1.6771,-1.6562,-1.5773,-1.5158,-1.5272,-1.5968,-1.6704,-1.6577,-1.6728,-1.7292,-1.7651,-1.8214,-1.9071,-1.9834,-2.0361,-2.0566,-2.0596,-2.0576,-2.0547,-2.0537,-2.0528,-2.0476,-2.0421,-2.0447,-2.0473,-2.0502,-2.0513,-2.0527,-2.0547,-2.0596,-2.0684,-2.1132,-2.178,-2.2611,-2.3705,-2.4716,-2.5111,-2.5293,-2.5303,-2.5253,-2.5234,-2.5194,-2.5063,-2.491,-2.4785,-2.4645,-2.4552,-2.4504,-2.4428,-2.4339,-2.4266,-2.4199,-2.4199,-2.4199,-2.4199,-2.4199,-2.4199,-2.4199,-2.4199,-2.4199,-2.4199,-2.419,-2.417,-2.4065,-2.3976,-2.3996,-0.5822,-0.5693,-0.6362,-0.6997,-0.7637,-0.7644,-0.7641,-0.7644,-0.7641,-0.7641,-0.7682,-0.7889,-0.8177,-0.8513,-0.8679,-0.9115,-0.9614,-0.9978,-1.0036,-1.0024,-1.0149,-1.0145,-1.0074,-1.0074,-1.0001,-1.0432,-1.0662,-1.1046,-1.1287,-1.1186,-1.1342,-1.1737,-1.2294,-1.2875,-1.3219,-1.3572,-1.3615,-1.3784,-1.397,-1.4187,-1.4575,-1.525,-1.595,-1.6284,-1.6892,-1.7169,-1.7491,-1.771,-1.7616,-1.7527,-1.763,-1.6887,-1.6049,-1.6368,-1.7085,-1.7904,-1.7537,-1.7749,-1.8406,-1.8708,-1.9105,-1.9853,-2.0391,-2.0596,-2.0596,-2.0596,-2.0596,-2.0586,-2.0576,-2.0566,-2.0547,-2.0537,-2.055,-2.0565,-2.0566,-2.0576,-2.0576,-2.0596,-2.0605,-2.0664,-2.0908,-2.1356,-2.2231,-2.3148,-2.4149,-2.5005,-2.5168,-2.5293,-2.5253,-2.5223,-2.5183,-2.5109,-2.4943,-2.4809,-2.4685,-2.4578,-2.4479,-2.4419,-2.4339,-2.4275,-2.4218,-2.4199,-2.4199,-2.4199,-2.4199,-2.4199,-2.4199,-2.4199,-2.4199,-2.4199,-2.4161,-2.4094,-2.3967,-2.3795,-2.3723,-0.5173,-0.5041,-0.5216,-0.5733,-0.6465,-0.6507,-0.651,-0.655,-0.6725,-0.6898,-0.7021,-0.7189,-0.7492,-0.7833,-0.8156,-0.8357,-0.8869,-0.9084,-0.9,-0.9056,-0.9157,-0.8986,-0.8822,-0.8833,-0.9151,-0.931,-0.9535,-0.9958,-1.0191,-1.0298,-1.0492,-1.0913,-1.1469,-1.1993,-1.2773,-1.3511,-1.3896,-1.409,-1.4539,-1.4657,-1.5034,-1.5709,-1.6472,-1.675,-1.718,-1.7589,-1.7872,-1.806,-1.8142,-1.8195,-1.8267,-1.8199,-1.7789,-1.772,-1.826,-1.8541,-1.8597,-1.8524,-1.9177,-1.9585,-1.984,-2.0314,-2.0439,-2.0537,-2.0576,-2.0586,-2.0596,-2.0596,-2.0596,-2.0596,-2.0596,-2.0586,-2.0586,-2.0586,-2.0586,-2.0586,-2.0586,-2.0596,-2.0596,-2.0625,-2.085,-2.1036,-2.2103,-2.307,-2.4187,-2.4986,-2.5197,-2.5303,-2.5293,-2.5264,-2.5224,-2.512,-2.4971,-2.4846,-2.474,-2.4528,-2.4348,-2.4339,-2.4275,-2.4284,-2.4237,-2.4218,-2.4199,-2.4199,-2.4199,-2.4199,-2.4199,-2.4199,-2.4199,-2.4199,-2.4094,-2.3917,-2.3744,-2.3544,-2.33,-0.4911,-0.4522,-0.5,-0.526,-0.5255,-0.5348,-0.5435,-0.5564,-0.5999,-0.6428,-0.6852,-0.7318,-0.7576,-0.7742,-0.7844,-0.8009,-0.814,-0.8406,-0.8455,-0.8365,-0.845,-0.8598,-0.8488,-0.8386,-0.8211,-0.8594,-0.8606,-0.8594,-0.8816,-0.898,-0.9384,-0.9958,-1.0402,-1.1137,-1.1965,-1.3611,-1.4265,-1.427,-1.5145,-1.5318,-1.5516,-1.6002,-1.6556,-1.6962,-1.7085,-1.7454,-1.7841,-1.8027,-1.8205,-1.8601,-1.829,-1.8456,-1.9007,-1.8072,-1.8535,-1.9794,-1.9306,-1.9419,-2.0117,-2.0258,-2.0331,-2.0387,-2.0443,-2.0455,-2.0502,-2.0547,-2.0596,-2.0586,-2.0596,-2.0596,-2.0596,-2.0596,-2.0596,-2.0596,-2.0596,-2.0596,-2.0596,-2.0596,-2.0596,-2.0566,-2.0566,-2.0803,-2.1939,-2.3069,-2.4274,-2.4986,-2.5216,-2.5303,-2.5303,-2.5293,-2.5254,-2.5163,-2.5008,-2.4873,-2.4716,-2.4401,-2.4219,-2.4228,-2.4247,-2.4284,-2.4266,-2.4218,-2.4199,-2.4199,-2.4199,-2.4199,-2.4199,-2.4208,-2.4074,-2.3917,-2.3795,-2.364,-2.3491,-2.3291,-2.3054,-0.3827,-0.3334,-0.3915,-0.3735,-0.3238,-0.4682,-0.5308,-0.5351,-0.5524,-0.5693,-0.5862,-0.6115,-0.6204,-0.6283,-0.6407,-0.6615,-0.6619,-0.6888,-0.6972,-0.7112,-0.7402,-0.7269,-0.7202,-0.7175,-0.7081,-0.7016,-0.7006,-0.7293,-0.752,-0.7851,-0.8189,-0.8677,-0.9725,-1.0956,-1.2081,-1.3262,-1.3695,-1.4342,-1.4998,-1.5468,-1.5887,-1.6172,-1.6486,-1.6943,-1.6986,-1.7247,-1.7653,-1.7779,-1.8214,-1.8698,-1.8368,-1.8854,-1.9462,-1.873,-1.9182,-2.0031,-1.9756,-1.9965,-2.0254,-2.0301,-2.035,-2.0373,-2.0392,-2.0406,-2.0429,-2.0544,-2.0566,-2.0566,-2.0576,-2.0576,-2.0596,-2.0596,-2.0596,-2.0596,-2.0596,-2.0596,-2.0596,-2.0596,-2.0596,-2.0527,-2.0508,-2.1343,-2.2366,-2.3339,-2.4457,-2.4995,-2.5226,-2.5293,-2.5303,-2.5303,-2.5274,-2.5203,-2.5075,-2.4913,-2.4706,-2.4434,-2.4256,-2.4209,-2.4294,-2.4375,-2.4321,-2.4209,-2.4199,-2.4199,-2.4199,-2.4199,-2.4074,-2.3926,-2.3753,-2.3575,-2.341,-2.3277,-2.3093,-2.2931,-2.2772,-0.2767,-0.2451,-0.2814,-0.2408,-0.1868,-0.3586,-0.4382,-0.442,-0.4596,-0.4771,-0.4988,-0.5214,-0.5351,-0.5351,-0.5308,-0.5308,-0.5348,-0.565,-0.5827,-0.5924,-0.6202,-0.619,-0.6007,-0.5876,-0.6027,-0.5837,-0.5834,-0.608,-0.637,-0.6967,-0.7522,-0.8183,-0.9067,-1.0195,-1.1434,-1.236,-1.3217,-1.3827,-1.4369,-1.4887,-1.5359,-1.577,-1.599,-1.6354,-1.6658,-1.7044,-1.7343,-1.7707,-1.8137,-1.8471,-1.8807,-1.9108,-1.9405,-1.9615,-1.9736,-1.9963,-2.017,-2.0267,-2.0292,-2.0292,-2.0325,-2.0356,-2.0379,-2.0369,-2.0356,-2.0425,-2.047,-2.0478,-2.0516,-2.0547,-2.0557,-2.0566,-2.0576,-2.0576,-2.0576,-2.0566,-2.0557,-2.0557,-2.0524,-2.0471,-2.0961,-2.1866,-2.2815,-2.3714,-2.4697,-2.4995,-2.5235,-2.5264,-2.5274,-2.5274,-2.5274,-2.5234,-2.515,-2.5,-2.4799,-2.4559,-2.4366,-2.4228,-2.4275,-2.4358,-2.4303,-2.4199,-2.4199,-2.4142,-2.3967,-2.3816,-2.3774,-2.3649,-2.3455,-2.3192,-2.2933,-2.2823,-2.2704,-2.2625,-2.2527,-0.1739,-0.1739,-0.1739,-0.1379,-0.1065,-0.1953,-0.2532,-0.2702,-0.3234,-0.3761,-0.4281,-0.473,-0.4733,-0.5,-0.5087,-0.5,-0.5002,-0.5087,-0.513,-0.5216,-0.5308,-0.526,-0.5216,-0.5214,-0.5171,-0.5173,-0.5173,-0.5082,-0.5303,-0.5984,-0.6797,-0.7607,-0.8382,-0.9284,-1.0306,-1.127,-1.2301,-1.3054,-1.3571,-1.4132,-1.4729,-1.5036,-1.5409,-1.5844,-1.63,-1.6761,-1.7118,-1.7446,-1.7911,-1.8284,-1.8623,-1.9005,-1.9328,-1.9576,-1.9752,-1.9951,-2.0182,-2.0215,-2.0249,-2.0241,-2.0285,-2.0304,-2.0312,-2.0302,-2.0308,-2.0339,-2.0376,-2.0386,-2.0414,-2.046,-2.0488,-2.0508,-2.0518,-2.0518,-2.0518,-2.0508,-2.0498,-2.0473,-2.0431,-2.0666,-2.1311,-2.2174,-2.3205,-2.4149,-2.487,-2.4966,-2.5168,-2.5173,-2.5192,-2.5194,-2.5224,-2.5274,-2.5182,-2.5082,-2.486,-2.4591,-2.4393,-2.4218,-2.4199,-2.4256,-2.4209,-2.4199,-2.4199,-2.4045,-2.3619,-2.3414,-2.3346,-2.3277,-2.3126,-2.2874,-2.2616,-2.2589,-2.2545,-2.2472,-2.2377,-0.0665,0.0089,-0.031,0.0089,0.0889,0.0667,-0.0222,-0.1418,-0.2045,-0.2401,-0.2576,-0.2754,-0.2927,-0.2842,-0.3241,-0.3373,-0.3598,-0.3823,-0.3995,-0.4125,-0.4337,-0.4293,-0.4293,-0.4337,-0.4347,-0.418,-0.4096,-0.4094,-0.4314,-0.4964,-0.5827,-0.6644,-0.7516,-0.8211,-0.8884,-0.9783,-1.1079,-1.2147,-1.26,-1.3331,-1.4036,-1.4436,-1.493,-1.5491,-1.6161,-1.663,-1.6935,-1.74,-1.7871,-1.822,-1.8508,-1.8825,-1.9092,-1.9311,-1.9518,-1.9811,-1.9933,-1.9974,-2.005,-2.0078,-2.0124,-2.0241,-2.0277,-2.0294,-2.0302,-2.0302,-2.0321,-2.0331,-2.035,-2.0392,-2.0436,-2.046,-2.0477,-2.0487,-2.0476,-2.0467,-2.0443,-2.0414,-2.0404,-2.0824,-2.1484,-2.2446,-2.3504,-2.4485,-2.5101,-2.5091,-2.509,-2.5091,-2.5096,-2.5109,-2.5142,-2.5204,-2.5128,-2.4987,-2.4799,-2.4538,-2.4366,-2.4218,-2.4218,-2.4199,-2.4199,-2.4199,-2.4199,-2.3996,-2.364,-2.3236,-2.2914,-2.2873,-2.2956,-2.2642,-2.2405,-2.2396,-2.236,-2.233,-2.2319,0.0577,0.1154,0.0888,0.129,0.2093,0.2359,0.1686,0.0488,-0.0355,-0.0756,-0.0755,-0.1022,-0.1112,-0.1199,-0.1507,-0.1774,-0.2042,-0.2308,-0.2575,-0.2978,-0.3196,-0.3065,-0.3108,-0.315,-0.3068,-0.2944,-0.2903,-0.2898,-0.3165,-0.3818,-0.4635,-0.587,-0.6664,-0.7085,-0.7705,-0.8561,-0.9512,-1.0644,-1.1527,-1.2395,-1.3109,-1.3743,-1.4387,-1.507,-1.5834,-1.6401,-1.6799,-1.7352,-1.7746,-1.8146,-1.845,-1.8725,-1.8967,-1.9188,-1.9137,-1.9397,-1.9556,-1.9625,-1.9738,-1.9873,-2.0002,-2.0125,-2.0187,-2.0223,-2.0267,-2.0302,-2.0302,-2.0312,-2.0321,-2.0342,-2.0379,-2.0419,-2.0432,-2.0456,-2.0435,-2.042,-2.0392,-2.0366,-2.0627,-2.0983,-2.1735,-2.2687,-2.3687,-2.4687,-2.5245,-2.51,-2.5019,-2.5001,-2.4993,-2.4996,-2.5044,-2.512,-2.5003,-2.4869,-2.467,-2.4521,-2.4366,-2.4247,-2.4218,-2.4199,-2.4199,-2.4122,-2.4045,-2.3896,-2.3714,-2.3221,-2.2721,-2.2806,-2.2849,-2.2535,-2.2319,-2.2338,-2.233,-2.231,-2.2319,0.1961,0.2049,0.2049,0.249,0.2936,0.3458,0.3282,0.2759,0.1639,0.1064,0.0842,0.0355,0.0133,0.0089,-0.0089,-0.0399,-0.0709,-0.1019,-0.1243,-0.1649,-0.1738,-0.1648,-0.1556,-0.1649,-0.1822,-0.1781,-0.1828,-0.2004,-0.2094,-0.2751,-0.3845,-0.5077,-0.5318,-0.578,-0.6554,-0.7332,-0.8094,-0.8677,-0.9891,-1.0967,-1.1871,-1.2577,-1.3325,-1.4016,-1.499,-1.5938,-1.6552,-1.7077,-1.7516,-1.7993,-1.8353,-1.8595,-1.8896,-1.9012,-1.8895,-1.8869,-1.909,-1.9304,-1.9448,-1.9582,-1.982,-1.9934,-1.9993,-2.0134,-2.0233,-2.0285,-2.0302,-2.0312,-2.0321,-2.034,-2.0371,-2.0423,-2.0441,-2.0428,-2.0414,-2.0373,-2.0342,-2.0427,-2.0716,-2.1196,-2.2043,-2.2976,-2.3821,-2.4774,-2.5207,-2.5061,-2.4988,-2.4952,-2.4851,-2.4846,-2.4907,-2.4959,-2.4771,-2.4651,-2.467,-2.4495,-2.4357,-2.4266,-2.4228,-2.4199,-2.4199,-2.4074,-2.3876,-2.3584,-2.3271,-2.2941,-2.2607,-2.2712,-2.2712,-2.247,-2.2319,-2.2319,-2.2319,-2.2319,-2.2319,0.3372,0.3814,0.4291,0.4554,0.4687,0.4819,0.4515,0.3989,0.3719,0.2791,0.1734,0.1469,0.1379,0.1334,0.0976,0.0664,0.0487,0.0221,0.0044,-0.0089,-0.0223,-0.0267,0.0,-0.0311,-0.0621,-0.102,-0.1154,-0.12,-0.1513,-0.2175,-0.2746,-0.3404,-0.3917,-0.4651,-0.5136,-0.5998,-0.6674,-0.6919,-0.8148,-0.9566,-1.0701,-1.1945,-1.2917,-1.3834,-1.4877,-1.5577,-1.6138,-1.6604,-1.7044,-1.7492,-1.7754,-1.8203,-1.8789,-1.8761,-1.8616,-1.847,-1.8601,-1.886,-1.9127,-1.9313,-1.9563,-1.9851,-2.0003,-2.0125,-2.0223,-2.0277,-2.0302,-2.0321,-2.0329,-2.0346,-2.0371,-2.0412,-2.0439,-2.0412,-2.0389,-2.034,-2.0302,-2.0533,-2.0792,-2.1475,-2.2302,-2.3139,-2.3956,-2.4572,-2.4986,-2.5098,-2.5032,-2.492,-2.4689,-2.462,-2.4691,-2.4697,-2.4467,-2.4383,-2.4478,-2.447,-2.4312,-2.4247,-2.4209,-2.4199,-2.417,-2.3847,-2.3503,-2.3075,-2.2721,-2.258,-2.2544,-2.2616,-2.2554,-2.2377,-2.2319,-2.2319,-2.2319,-2.2319,-2.2319,0.45,0.4865,0.5435,0.5524,0.5389,0.5567,0.5348,0.487,0.4824,0.4252,0.3326,0.285,0.2589,0.2589,0.2224,0.1863,0.173,0.1375,0.1199,0.1155,0.1154,0.1023,0.1022,0.102,0.0755,0.0355,0.0266,0.0044,-0.0666,-0.0532,-0.0752,-0.1769,-0.2645,-0.317,-0.3616,-0.4656,-0.5303,-0.5436,-0.6658,-0.7999,-0.9438,-1.075,-1.2283,-1.3387,-1.4377,-1.5161,-1.594,-1.6389,-1.6654,-1.7109,-1.7505,-1.7975,-1.8355,-1.8304,-1.8041,-1.7911,-1.8018,-1.8339,-1.868,-1.9008,-1.9306,-1.9645,-1.9813,-1.9875,-2.005,-2.0107,-2.0285,-2.031,-2.0355,-2.0373,-2.0347,-2.0367,-2.0404,-2.0396,-2.0383,-2.0369,-2.0321,-2.0398,-2.0542,-2.0802,-2.1754,-2.2841,-2.3706,-2.4649,-2.4995,-2.5041,-2.4992,-2.4851,-2.4616,-2.4432,-2.4492,-2.4487,-2.4312,-2.4303,-2.4452,-2.4401,-2.4238,-2.4209,-2.419,-2.4025,-2.3864,-2.3454,-2.3084,-2.2755,-2.2535,-2.2508,-2.249,-2.2527,-2.249,-2.233,-2.2319,-2.2319,-2.2291,-2.2291,-2.2291,0.5449,0.5607,0.6087,0.6004,0.561,0.609,0.5962,0.5478,0.5394,0.5348,0.5,0.414,0.3884,0.384,0.3796,0.3431,0.3161,0.3074,0.272,0.253,0.2438,0.2483,0.2352,0.2179,0.2001,0.1824,0.169,0.1333,0.0799,0.102,0.0753,-0.031,-0.0885,-0.1326,-0.2389,-0.3404,-0.4014,-0.4494,-0.5391,-0.6422,-0.784,-0.9361,-1.112,-1.258,-1.3743,-1.4819,-1.555,-1.6168,-1.6316,-1.6724,-1.7142,-1.7603,-1.7808,-1.7757,-1.7545,-1.7407,-1.757,-1.7871,-1.8206,-1.8617,-1.9035,-1.9396,-1.9481,-1.9599,-1.9757,-1.9952,-2.0125,-2.0198,-2.0247,-2.0337,-2.0309,-2.0355,-2.0376,-2.04,-2.0397,-2.0383,-2.0337,-2.0339,-2.0417,-2.0514,-2.1581,-2.2725,-2.3735,-2.4687,-2.4908,-2.4973,-2.4873,-2.472,-2.4542,-2.4386,-2.4331,-2.4348,-2.4256,-2.4303,-2.4426,-2.433,-2.417,-2.4151,-2.4103,-2.3825,-2.3558,-2.3234,-2.2886,-2.2511,-2.2358,-2.2369,-2.2377,-2.2377,-2.2338,-2.231,-2.2319,-2.2291,-2.2254,-2.2225,-2.2225,0.6295,0.6673,0.681,0.6768,0.668,0.6807,0.6559,0.609,0.605,0.5787,0.5518,0.5265,0.5007,0.5002,0.4961,0.4737,0.4439,0.451,0.4723,0.4646,0.419,0.4067,0.39,0.3548,0.3243,0.2977,0.2665,0.2222,0.2217,0.244,0.2178,0.1333,0.0222,-0.0178,-0.0533,-0.1505,-0.2434,-0.3048,-0.3838,-0.4826,-0.6729,-0.8347,-1.0026,-1.1322,-1.2436,-1.3192,-1.3996,-1.5197,-1.5644,-1.6079,-1.6528,-1.7019,-1.7223,-1.719,-1.6995,-1.6979,-1.7142,-1.7543,-1.7924,-1.8229,-1.8645,-1.9132,-1.9185,-1.9139,-1.9356,-1.9632,-1.9752,-1.9756,-1.9879,-2.0163,-2.0229,-2.0366,-2.0427,-2.0427,-2.043,-2.039,-2.0346,-2.0487,-2.0639,-2.1273,-2.2234,-2.3341,-2.4418,-2.4966,-2.5072,-2.5048,-2.4895,-2.472,-2.4589,-2.4413,-2.4199,-2.4199,-2.4199,-2.419,-2.4256,-2.4229,-2.4113,-2.4094,-2.3926,-2.3553,-2.3239,-2.3056,-2.2712,-2.2405,-2.2319,-2.2338,-2.2319,-2.2319,-2.2319,-2.2319,-2.2319,-2.2291,-2.2217,-2.2115,-2.2077]}]]